     2.11           OBSERVATION DATA    G (GPS)             RINEX VERSION / TYPE
teqc 2010Oct21 OPUS Account 20111027 16:30:28UTC            PGM / RUN BY / DATE
N 1381                                                      MARKER NAME
1098                                                        MARKER NUMBER
CSMIDDLETON NGS                                             OBSERVER / AGENCY
0220280359 TRIMBLE 5700 NP 2.32 / SP 2.32                   REC # / TYPE / VERS
11885611 TRM41249.00 NONE                                   ANT # / TYPE
  -764477.7729 -5544126.4303  3049189.4437                  APPROX POSITION XYZ
        1.9990        0.0000        0.0000                  ANTENNA: DELTA H/E/N
     1     1                                                WAVELENGTH FACT L1/2
     5    L1    L2    C1    P1    P2                        # / TYPES OF OBSERV
    15                                                      LEAP SECONDS
  2011     8    16    16     7   30.0000000     GPS         TIME OF FIRST OBS
                                                            END OF HEADER
 11  8 16 16  7 30.0000000  0 10G03G06G07G08G10G13G16G19G20G23
   -662446.20357   -507662.94155  20977814.9144                   20977812.3164
   -403957.11757   -306519.22354  22524987.5004                   22524986.1644
  -1348090.19557  -1006050.01654  22640007.4924                   22640004.8094
  -1316524.97755   -992760.65253  24650717.2664                   24650718.6994
   -829614.83256   -627731.07853  23940810.4694                   23940809.0474
  -1082323.12957   -820613.37956  20244245.8284                   20244242.6954
     -4265.11757     -3678.43754  22754772.1954                   22754769.4224
  -1330828.14157  -1008960.07055  21514113.3674                   21514108.8554
    -16645.78955    -13086.28152  24522862.0004                   24522863.1724
   -546252.07857   -414040.13356  20244189.0004                   20244183.9534
 11  8 16 16  8  0.0000000  0 10G03G06G07G08G10G13G16G19G20G23
   -731273.30947   -561294.47745  20964717.4064                   20964715.9574
   -445197.12147   -338654.30944  22517140.2504                   22517138.3954
  -1493375.12146  -1119259.03144  22612361.0634                   22612358.7584
  -1470226.34445  -1112527.93042  24621469.5234                   24621469.3324
   -919750.16446   -697966.42643  23923659.0634                   23923656.8874
  -1196121.94947   -909287.79346  20222591.0864                   20222587.6374
     -4699.44947     -4016.91444  22754689.9454                   22754685.8984
  -1471431.50047  -1118521.12545  21487356.9614                   21487353.1174
    -19430.87545    -15256.77042  24522332.7194                   24522333.9024
   -602391.01247   -457784.77746  20233506.1414                   20233501.5004
 11  8 16 16  8 30.0000000  0 10G03G06G07G08G10G13G16G19G20G23
   -799518.31647   -614472.40645  20951730.8984                   20951728.9774
   -485978.34847   -370431.94544  22509379.4144                   22509377.6524
  -1638685.91047  -1232488.20744  22584709.3054                   22584707.0394
  -1624028.33246  -1232373.54342  24592202.4774                   24592201.1294
  -1009437.15646   -767852.41443  23906591.4694                   23906590.2424
  -1309435.91047   -997584.39546  20201027.9384                   20201024.7384
     -5087.91847     -4319.66444  22754615.7034                   22754613.2034
  -1611582.85947  -1227729.95345  21460686.8914                   21460683.3794
    -22369.47345    -17546.85942  24521773.6564                   24521775.3364
   -658011.42247   -501125.37546  20222922.1804                   20222917.4454
 11  8 16 16  9  0.0000000  0 10G03G06G07G08G10G13G16G19G20G23
   -867130.53547   -667157.26245  20938864.5474                   20938862.4454
   -526250.96547   -401813.21544  22501715.5704                   22501713.7894
  -1783970.50446  -1345696.97744  22557061.7894                   22557060.2544
  -1777879.94946  -1352257.84842  24562924.8984                   24562923.8324
  -1098625.36346   -837349.77743  23889620.6564                   23889618.4414
  -1422212.21547  -1085462.04746  20179567.5634                   20179564.0354
     -5381.00447     -4548.07444  22754560.1644                   22754557.2664
  -1751228.18047  -1336544.47745  21434113.6414                   21434109.4414
    -25412.69146    -19918.43442  24521194.9224                   24521195.7304
   -713062.38747   -544022.25846  20212446.2734                   20212441.2974
 11  8 16 16  9 30.0000000  0 10G03G06G07G08G10G13G16G19G20G23
   -934152.23847   -719381.98445  20926110.7344                   20926108.7504
   -566057.82847   -432831.60944  22494140.8594                   22494139.0514
  -1929270.10246  -1458917.43444  22529412.9144                   22529411.1294
  -1931822.81246  -1472213.28543  24533629.7734                   24533629.9964
  -1187357.55146   -906491.73443  23872735.1884                   23872733.4414
  -1534490.34447  -1172951.49646  20158201.7344                   20158198.5904
     -5622.39547     -4736.21544  22754513.3444                   22754510.6524
  -1890406.41447  -1444995.03145  21407629.0164                   21407624.9844
    -28604.56645    -22405.80942  24520587.1884                   24520589.1254
   -767585.49247   -586507.81646  20202070.8204                   20202065.7464
 11  8 16 16 10  0.0000000  0 10G03G06G07G08G10G13G16G19G20G23
  -1000590.46147   -771152.04345  20913468.7814                   20913466.2544
   -605407.17647   -463493.47344  22486652.6024                   22486651.5664
  -2074590.91847  -1572154.43444  22501759.6644                   22501757.5004
  -2085863.86345  -1592245.19543  24504316.7664                   24504317.4264
  -1275640.98446   -975284.02743  23855935.5864                   23855932.7894
  -1646275.27747  -1260056.64146  20136929.7664                   20136926.4064
     -5820.78547     -4890.84444  22754476.4694                   22754473.9574
  -2029121.86747  -1553084.95345  21381232.6414                   21381228.8444
    -31954.11345    -25016.19942  24519950.4064                   24519952.3284
   -821587.96147   -628587.67645  20191794.2424                   20191789.3634
 11  8 16 16 10 30.0000000  0 10G03G06G07G08G10G13G16G19G20G23
  -1066447.17247   -822468.98045  20900935.9694                   20900934.3134
   -644301.97747   -493801.13744  22479251.6564                   22479250.0824
  -2219934.40246  -1685409.09044  22474101.4534                   22474099.3164
  -2240004.65645  -1712354.87543  24474985.0164                   24474986.0944
  -1363477.95346  -1043728.43743  23839220.5004                   23839218.4454
  -1757566.71147  -1346777.24246  20115751.3204                   20115748.4574
     -5979.68447     -5014.70744  22754446.0474                   22754443.9344
  -2167373.52747  -1660813.50845  21354924.1954                   21354919.6994
    -35465.20745    -27752.38742  24519281.5704                   24519284.5634
   -875071.76247   -670263.39146  20181616.4694                   20181611.7304
 11  8 16 16 11  0.0000000  0 10G03G06G07G08G10G13G16G19G20G23
  -1131721.72347   -873332.27745  20888514.4924                   20888512.7584
   -682742.41847   -523754.76244  22471936.6094                   22471934.7234
  -2365298.62547  -1798679.88744  22446439.4144                   22446436.8794
  -2394244.28545  -1832541.53142  24445632.8364                   24445634.7624
  -1450867.89146  -1111824.55143  23822590.6414                   23822588.5434
  -1868362.14847  -1433111.34846  20094667.8054                   20094664.4804
     -6100.14147     -5108.60944  22754423.7034                   22754420.8524
  -2305157.79347  -1768177.83645  21328704.5084                   21328700.2774
    -39139.02745    -30615.42242  24518583.8594                   24518585.8054
   -928036.13747   -711534.36346  20171538.1564                   20171532.9734
 11  8 16 16 11 30.0000000  0 10G03G06G07G08G10G13G16G19G20G23
  -1196417.35547   -923744.47345  20876203.7114                   20876201.3834
   -720732.14547   -553357.16044  22464706.8984                   22464706.0514
  -2510685.38747  -1911968.25844  22418773.2034                   22418770.8134
  -2548584.88346  -1952806.90243  24416264.6564                   24416264.4104
  -1537813.94146  -1179574.76643  23806045.0474                   23806044.1024
  -1978662.18047  -1519059.42646  20073678.7974                   20073675.2344
     -6186.39147     -5175.85244  22754408.6174                   22754404.2734
  -2442474.55547  -1875177.89545  21302573.8054                   21302569.6214
    -42980.21545    -33608.76642  24517852.7274                   24517855.5634
   -980483.68747   -752402.60546  20161557.2274                   20161552.2384
 11  8 16 16 12  0.0000000  0 10G03G06G07G08G10G13G16G19G20G23
  -1260532.62547   -973704.42645  20864002.9224                   20864000.8554
   -758270.77347   -582608.06644  22457563.8204                   22457562.2934
  -2656092.21947  -2025272.27344  22391103.6644                   22391101.2304
  -2703024.83245  -2073149.64542  24386875.3054                   24386875.4774
  -1624315.37546  -1246978.48043  23789584.3754                   23789583.7854
  -2088462.77047  -1604618.32446  20052784.0944                   20052781.1134
     -6238.06646     -5216.17644  22754398.3674                   22754394.6564
  -2579319.22347  -1981810.09445  21276533.3054                   21276528.9774
    -46989.10545    -36732.92242  24517090.1024                   24517093.4454
  -1032412.80547   -792866.87946  20151675.6334                   20151670.9384
 11  8 16 16 12 30.0000000  0 10G03G06G07G08G10G13G16G19G20G23
  -1324066.63747  -1023211.46545  20851912.5234                   20851911.0784
   -795358.21146   -611507.39544  22450506.7114                   22450505.3674
  -2801517.07847  -2138590.32045  22363429.7584                   22363427.7154
  -2857562.48045  -2193568.55142  24357467.6804                   24357468.5004
  -1710371.22746  -1314035.01643  23773209.0944                   23773208.1994
  -2197760.70347  -1689785.55946  20031985.4924                   20031982.2034
     -6255.63747     -5229.91844  22754393.0164                   22754391.1024
  -2715687.79747  -2088071.28945  21250582.8834                   21250578.8164
    -51166.08645    -39988.02042  24516295.3984                   24516299.7344
  -1083822.49647   -832926.39846  20141892.8364                   20141887.8594
 11  8 16 16 13  0.0000000  0 10G03G06G07G08G10G13G16G19G20G23
  -1387020.33647  -1072266.31245  20839933.2344                   20839930.8984
   -831996.57847   -640056.80544  22443534.2274                   22443533.0164
  -2946959.83247  -2251922.33645  22335753.4064                   22335750.3324
  -3012198.58246  -2314064.16842  24328040.3284                   24328042.2154
  -1795983.01247  -1380745.50043  23756917.1094                   23756917.1564
  -2306554.96147  -1774560.30546  20011282.7114                   20011279.5004
     -6242.06646     -5219.38344  22754396.8134                   22754394.0044
  -2851578.73047  -2193960.31645  21224724.2344                   21224719.5784
    -55514.453 5                  24515468.742
  -1134713.62147   -872581.83646  20132208.6954                   20132203.6884
 11  8 16 16 13 30.0000000  0 10G03G06G07G08G10G13G16G19G20G23
  -1449393.32047  -1120868.66045  20828063.4304                   20828062.1094
   -868185.57846   -668256.05144  22436648.1954                   22436647.1054
  -3092418.53147  -2365266.78545  22308073.1254                   22308071.3364
  -3166931.66446  -2434635.35542  24298596.6094                   24298596.4304
  -1881149.83246  -1447109.29743  23740710.5864                   23740710.6484
  -2414842.05947  -1858939.86346  19990676.6804                   19990672.8204
     -6197.33246     -5184.57444  22754404.5704                   22754402.4304
  -2986987.86747  -2299473.93045  21198956.2664                   21198952.4534
    -60034.227 5                  24514609.109
  -1185084.85247   -911832.17246  20122623.0314                   20122618.6994
 11  8 16 16 14  0.0000000  0 10G03G06G07G08G10G13G16G19G20G23
  -1511186.57047  -1169019.25845  20816304.9694                   20816302.9694
   -903927.45347   -696106.88344  22429846.9694                   22429845.5904
  -3237893.25047  -2478623.69545  22280390.5634                   22280387.3914
  -3321762.35946  -2555282.64542  24269133.5004                   24269132.6414
  -1965873.47347  -1513127.73843  23724588.2034                   23724588.4184
  -2522621.26247  -1942923.66046  19970166.6724                   19970163.2384
     -6124.06246     -5127.53944  22754419.6564                   22754416.2234
  -3121913.21947  -2404610.54345  21173280.7974                   21173276.9654
    -64728.750 5                  24513715.859
  -1234937.43747   -950678.35545  20113136.4224                   20113131.8484
 11  8 16 16 14 30.0000000  0 10G03G06G07G08G10G13G16G19G20G23
  -1572401.06247  -1216718.87545  20804656.5634                   20804654.1644
   -939223.84847   -723610.58244  22423130.0864                   22423128.3794
  -3383383.39847  -2591992.64845  22252704.8754                   22252701.8014
  -3476690.70746  -2676006.03543  24239652.1484                   24239650.2114
  -2050155.03546  -1578801.69543  23708549.7504                   23708549.6254
  -2629890.87547  -2026510.37946  19949754.3674                   19949750.5904
     -6024.31246     -5049.88744  22754438.1954                   22754435.8164
  -3256352.68447  -2509368.55145  21147697.9694                   21147694.0744
    -69600.363 6                  24512788.828
  -1284272.36347   -989121.17246  20103748.4774                   20103743.9144
 11  8 16 16 15  0.0000000  0 10G03G06G07G08G10G13G16G19G20G23
  -1633034.89147  -1263966.02745  20793117.9614                   20793116.0394
   -974073.27747   -750766.01244  22416497.8674                   22416497.0164
  -3528885.42647  -2705370.86345  22225015.5864                   22225013.8954
  -3631713.66446  -2796803.08643  24210151.9144                   24210151.3634
  -2133992.46546  -1644129.59043  23692596.3204                   23692595.7544
  -2736646.23847  -2109696.38346  19929438.4144                   19929435.6884
     -5896.93446     -4950.68044  22754462.6254                   22754459.5164
  -3390300.89547  -2613743.77045  21122208.3204                   21122204.2624
    -74648.117 6                  24511828.203
  -1333086.83647  -1027158.44546  20094459.8674                   20094454.8364
 11  8 16 16 15 30.0000000  0 10G03G06G07G08G10G13G16G19G20G23
   -117669.40247    -83161.77745  21081482.7504                   21081480.1884
    566940.60947    450024.00044  22709743.5084                   22709741.9224
  -2098977.05147  -1591156.54745  22497118.7974                   22497116.6214
  -2211409.59046  -1690072.59443  24480426.1804                   24480425.2114
   -641967.18446   -481512.52043  23976519.4694                   23976518.4654
  -1267465.25447   -964880.03146  20209015.1884                   20209011.7734
   1569673.07446   1222766.15244  23054283.4774                   23054280.6884
  -1948334.39847  -1490133.50445  21396605.4454                   21396601.2154
   1495542.72746   1181712.82052  24810626.1954                   24810628.6294
    194036.82847    162808.03145  20385061.5554                   20385056.4344
 11  8 16 16 16  0.0000000  0 10G03G06G07G08G10G13G16G19G20G23
   -177147.95347   -129508.71545  21070164.5944                   21070162.0554
    532975.55946    423557.69144  22703280.2504                   22703278.3204
  -2244505.57447  -1704555.39845  22469425.3674                   22469422.9844
  -2366627.27746  -1811021.36342  24450889.3134                   24450888.4184
   -724924.04346   -546154.25843  23960733.0164                   23960731.9344
  -1373191.93047  -1047264.46146  20188895.8984                   20188892.3634
   1569845.56646   1222900.48444  23054316.1804                   23054313.5704
  -2081298.05947  -1593741.53945  21371303.4924                   21371299.0554
   1490131.42645   1177495.87542  24809596.1254                   24809599.9654
    146256.82047    125576.84845  20375969.1644                   20375964.2544
 11  8 16 16 16 30.0000000  0 10G03G06G07G08G10G13G16G19G20G23
   -236049.23047   -175405.84045  21058955.6804                   21058953.5864
    499451.89846    397435.32044  22696901.0864                   22696899.6914
  -2390045.24647  -1817962.91845  22441730.4064                   22441728.0744
  -2521940.64146  -1932044.76642  24421333.7664                   24421332.9884
   -807440.41846   -610452.78143  23945031.7584                   23945029.5234
  -1478400.59047  -1129245.24646  20168875.2114                   20168872.1334
   1570039.26646   1223051.35944  23054353.0004                   23054350.9804
  -2213764.37947  -1696962.03945  21346096.1254                   21346092.0164
   1484536.62946   1173135.92642  24808531.7344                   24808534.8554
     98994.56648     88749.08246  20366975.7424                   20366970.6724
 11  8 16 16 17  0.0000000  0 10G03G06G07G08G10G13G16G19G20G23
   -294372.83247   -220852.81245  21047856.9144                   21047854.9774
    466368.77746    371656.23844  22690605.5004                   22690603.8914
  -2535594.47347  -1931377.89145  22414033.2344                   22414031.3054
  -2677349.08646  -2053142.22342  24391760.9144                   24391759.5234
   -889516.59046   -674408.23843  23929412.1724                   23929411.1414
  -1583088.94547  -1210820.60246  20148953.7584                   20148950.3874
   1570253.11346   1223217.93844  23054394.6024                   23054391.3054
  -2345730.40247  -1799792.70745  21320983.4064                   21320979.7854
   1478756.81345   1168631.80542  24807432.3594                   24807435.0234
     52250.21948     52324.89145  20358080.9774                   20358075.6644
 11  8 16 16 17 30.0000000  0 10G03G06G07G08G10G13G16G19G20G23
   -352122.05147   -265852.22745  21036867.8984                   21036865.5784
    433722.37546    346217.44143  22684393.2584                   22684391.1254
  -2681154.55147  -2044801.30145  22386334.2344                   22386331.4414
  -2832854.29746  -2174315.12942  24362169.4064                   24362167.2544
   -971155.92246   -738023.33243  23913877.2344                   23913874.6414
  -1687257.59047  -1291990.98046  20129131.3834                   20129127.5864
   1570483.12546   1223397.10544  23054437.5084                   23054435.4344
  -2477195.94147  -1902233.38345  21295966.3524                   21295962.7384
   1472787.78945   1163980.25043  24806297.1094                   24806299.8284
      6021.21948     16302.24245  20349283.3984                   20349278.4384
 11  8 16 16 18  0.0000000  0 10G03G06G07G08G10G13G16G19G20G23
   -409293.51247   -310401.44145  21025988.7814                   21025986.5044
    401515.54346    321121.18444  22678264.1254                   22678262.5164
  -2826720.47347  -2158229.27745  22358633.8984                   22358631.0124
  -2988452.22746  -2295560.29342  24332561.0864                   24332558.3244
  -1052355.02046   -801295.37543  23898425.5004                   23898423.0164
  -1790900.60547  -1372751.77746  20109408.4454                   20109405.0514
   1570731.84846   1223590.84044  23054484.5084                   23054483.2504
  -2608154.34847  -2004278.89145  21271046.0554                   21271041.8524
   1466631.92245   1159183.03942  24805127.0394                   24805128.5904
    -39688.68048    -19315.89145  20340584.9694                   20340580.5944
 11  8 16 16 18 30.0000000  0 10G03G06G07G08G10G13G16G19G20G23
   -465889.25447   -354502.04345  21015218.7274                   21015216.6374
    369744.87146    296364.78144  22672218.8284                   22672216.6804
  -2972293.33647  -2271662.66845  22330932.5004                   22330929.8554
  -3144144.59446  -2416878.96943  24302932.8984                   24302931.5514
  -1133116.53146   -864226.46943  23883056.8444                   23883054.5824
  -1894018.02347  -1453103.02046  20089785.7584                   20089782.5084
   1570996.09046   1223796.69544  23054535.5864                   23054533.6054
  -2738605.07447  -2105928.79745  21246221.8444                   21246218.0434
   1460285.59445   1154237.47742  24803919.3594                   24803920.8594
    -84882.07447    -54531.55945  20331985.6174                   20331980.4964
 11  8 16 16 19  0.0000000  0  9G03G06G07G08G10G13G16G19G23
   -521910.37547   -398154.89145  21004558.7584                   21004556.4924
    338409.22346    271947.35544  22666255.6484                   22666254.0784
  -3117872.18447  -2385100.71545  22303229.8674                   22303226.9384
  -3299930.87546  -2538270.77743  24273286.6414                   24273286.7114
  -1213441.35946   -926817.28143  23867771.5784                   23867769.7074
  -1996607.96947  -1533043.24246  20070263.7974                   20070260.2274
   1571274.32046   1224013.44143  23054588.2194                   23054586.1214
  -2868545.76247  -2207181.28145  21221494.8524                   21221491.0784
   -129559.26647    -89344.97745  20323483.4224                   20323478.5824
 11  8 16 16 19 30.0000000  0  9G03G06G07G08G10G13G16G19G23
   -577359.51247   -441362.03545  20994006.7344                   20994004.5124
    307505.19946    247866.24644  22660374.8364                   22660373.4264
  -3263457.81647  -2498544.05945  22275525.4454                   22275522.9534
  -3455812.68446  -2659737.02342  24243623.2274                   24243623.1954
  -1293331.88746   -989069.70343  23852568.9304                   23852566.7234
  -2098670.88747  -1612572.80546  20050841.8984                   20050838.1174
   1571563.17246   1224238.47344  23054643.2194                   23054640.5944
  -2997975.52047  -2308035.62545  21196865.3054                   21196861.3834
   -173722.52747   -123757.92646  20315079.2894                   20315074.6094
 11  8 16 16 20  0.0000000  0  9G03G06G07G08G10G13G16G19G23
   -632235.74247   -484122.74645  20983564.4384                   20983561.6954
    277032.88746    224121.55944  22654576.3834                   22654575.0274
  -3409047.98847  -2611990.94945  22247820.3834                   22247818.1374
  -3611788.05146  -2781276.18443  24213941.4844                   24213942.4774
  -1372787.82846  -1050983.41443  23837448.1564                   23837447.3714
  -2200203.34847  -1691689.01646  20031520.7584                   20031517.2424
   1571862.50846   1224471.64844  23054700.9144                   23054697.9534
  -3126890.66047  -2408488.96545  21172333.3594                   21172329.5124
   -217370.94147   -157769.69146  20306773.6024                   20306768.6414
 11  8 16 16 20 30.0000000  0  9G03G06G07G08G10G13G16G19G23
   -686537.44147   -526435.76245  20973230.9774                   20973228.8954
    246993.21946    200714.00443  22648859.6564                   22648857.5704
  -3554638.87147  -2725438.37145  22220114.7974                   22220112.7074
  -3767854.11746  -2902885.98443  24184244.1334                   24184244.2544
  -1451807.81246  -1112557.46943  23822410.9694                   23822410.6724
  -2301201.30947  -1770388.73846  20012302.0084                   20012298.4574
   1572173.14846   1224713.65643  23054760.1334                   23054756.5044
  -3255286.22347  -2508537.43445  21147900.6564                   21147896.4184
   -260502.46947   -191378.68445  20298565.3594                   20298561.1174
 11  8 16 16 21  0.0000000  0  9G03G06G07G08G10G13G16G19G23
   -740264.32047   -568300.87945  20963006.9774                   20963004.8834
    217386.08246    177643.44944  22643226.1254                   22643223.6884
  -3700228.55147  -2838884.84845  22192411.0314                   22192408.0394
  -3924009.67246  -3024565.57842  24154527.9694                   24154529.0784
  -1530391.45346  -1173791.53143  23807457.5944                   23807457.1884
  -2401662.03947  -1848669.83646  19993184.3834                   19993180.7274
   1572495.16446   1224964.52743  23054821.1484                   23054818.1294
  -3383158.74647  -2608178.34445  21123568.0234                   21123562.9614
   -303116.31647   -224584.29346  20290456.4924                   20290451.9224
 11  8 16 16 21 30.0000000  0  9G03G06G07G08G10G13G16G19G23
   -793419.77047   -609720.72745  20952891.6484                   20952889.7814
    188207.60546    154906.94944  22637672.8284                   22637671.8484
  -3845818.29347  -2952331.38345  22164706.1644                   22164702.5704
  -4080256.82445  -3146316.54742  24124795.5394                   24124795.8284
  -1608541.94546  -1234688.05943  23792586.0784                   23792585.9384
  -2501586.02047  -1926532.69146  19974169.8984                   19974166.0474
   1572824.55546   1225221.13743  23054883.8134                   23054881.1374
  -3510508.27047  -2707411.71545  21099333.9454                   21099329.1684
   -345215.62548   -257388.96946  20282445.7114                   20282440.7854
 11  8 16 16 22  0.0000000  0  9G03G06G07G08G10G13G16G19G23
   -846003.44947   -650695.04345  20942885.3674                   20942883.4304
    159456.92647    132503.76244  22632202.6254                   22632201.4414
  -3991406.43047  -3065776.66045  22137001.3674                   22136998.4844
  -4236594.42546  -3268138.02643  24095045.0704                   24095045.0004
  -1686259.55146  -1295247.30143  23777796.9924                   23777796.8714
  -2600971.26647  -2003975.74246  19955256.9534                   19955253.4454
   1573160.59046   1225482.90243  23054947.2584                   23054945.4184
  -3637331.60947  -2806235.07045  21075200.1414                   21075195.5124
   -386800.25848   -289792.59845  20274532.1954                   20274527.3954
 11  8 16 16 22 30.0000000  0  9G03G06G07G08G10G13G16G19G23
   -898019.77747   -691227.26645  20932987.2584                   20932985.1804
    131129.62546    110430.53944  22626811.7664                   22626810.0514
  -4136995.26647  -3179222.47745  22109297.5634                   22109294.1174
  -4393025.23446  -3390032.10243  24065276.8054                   24065277.0784
  -1763548.49246  -1355472.48843  23763088.5314                   23763089.4924
  -2699819.27047  -2081000.17646  19936447.1484                   19936443.6844
   1573498.56346   1225746.21543  23055012.2194                   23055009.2114
  -3763629.64847  -2904649.10945  21051166.3754                   21051161.9344
   -427873.88748   -321798.05546  20266716.1954                   20266711.4104
 11  8 16 16 23  0.0000000  0  9G03G06G07G08G10G13G16G19G23
   -949470.75447   -731318.94545  20923196.5004                   20923194.5084
    103222.74647     88684.86744  22621501.7114                   22621499.2734
  -4282584.69147  -3292668.76645  22081592.3204                   22081589.1684
  -4549549.78546  -3511999.19142  24035492.4534                   24035491.4414
  -1840410.74246  -1415365.17643  23748462.6954                   23748462.8484
  -2798129.41447  -2157605.48846  19917739.1024                   19917735.9184
   1573836.12546   1226009.18043  23055076.4614                   23055073.5784
  -3889401.32847  -3002652.99645  21027233.4454                   21027228.3984
   -468438.23047   -353406.66845  20258997.0634                   20258991.8714
 11  8 16 16 23 30.0000000  0  9G03G06G07G08G10G13G16G19G23
  -1000356.43447   -770970.16045  20913513.2504                   20913511.0314
     75735.60947     67266.28544  22616271.0784                   22616269.2344
  -4428173.03147  -3406114.22745  22053887.2424                   22053884.8874
  -4706167.27046  -3634038.75843  24005689.0234                   24005688.3164
  -1916846.68746  -1474925.69543  23733918.0394                   23733917.5234
  -2895899.69947  -2233790.14546  19899134.3914                   19899130.6054
   1574172.31346   1226271.08643  23055140.2194                   23055137.7814
  -4014643.88747  -3100244.58245  21003399.6804                   21003395.9184
   -508493.44548   -384618.56246  20251374.7814                   20251369.7734
 11  8 16 16 24  0.0000000  0  9G03G06G07G08G10G13G16G19G23
    524744.16047    417419.90245  21203729.6804                   21203728.2584
   1624087.85547   1273774.49244  22910912.5634                   22910911.0944
  -2998334.30547  -2291954.14844  22325976.0084                   22325974.3284
  -3287451.70346  -2528546.05943  24275661.2734                   24275660.2114
   -417434.60246   -306552.71143  24019246.2194                   24019245.5354
  -1417705.12147  -1081950.22346  20180425.3284                   20180421.7274
   3149926.28546   2454131.26643  23354996.2974                   23354994.0824
  -2563930.31247  -1969818.39545  21279461.1174                   21279457.4614
   1027381.76648    812167.28545  20543642.1024                   20543637.2344
 11  8 16 16 24 30.0000000  0  9G03G06G07G08G10G13G16G19G23
    474985.77747    378647.12145  21194261.6254                   21194258.9304
   1597435.38347   1253006.28144  22905840.7114                   22905839.2664
  -3143917.60247  -2405395.67644  22298273.2274                   22298270.3364
  -3444253.92246  -2650729.52743  24245823.7424                   24245822.1374
   -493021.29346   -365451.48043  24004863.5474                   24004861.6414
  -1514391.43447  -1157290.22346  20162026.6644                   20162022.9414
   3150255.77046   2454387.96943  23355058.9064                   23355057.4774
  -2688107.90647  -2066580.15245  21255830.8204                   21255827.4304
    988343.03147    781747.46145  20536213.1414                   20536208.5824
 11  8 16 16 25  0.0000000  0  9G03G06G07G08G10G13G16G19G23
    425788.00847    340311.16445  21184899.4694                   21184897.6024
   1571196.35947   1232560.25444  22900848.2974                   22900846.5004
  -3289498.40647  -2518835.27044  22270569.4384                   22270567.3984
  -3601149.68446  -2772985.89543  24215967.2344                   24215966.2894
   -568186.43746   -424021.74643  23990560.1884                   23990557.8984
  -1610534.90247  -1232207.22745  20143731.2814                   20143727.6764
   3150578.33646   2454639.25443  23355120.3984                   23355117.9884
  -2811751.23047  -2162925.58246  21232302.6094                   21232298.8364
    949809.82047    751721.55145  20528880.6334                   20528875.6134
 11  8 16 16 25 30.0000000  0  9G03G06G07G08G10G13G16G19G23
    377148.35947    302410.11745  21175644.1094                   21175641.3524
   1545367.72747   1212434.00444  22895932.8524                   22895931.0044
  -3435076.99247  -2632273.12944  22242866.6724                   22242864.7584
  -3758139.55546  -2895315.65643  24186093.3134                   24186091.7854
   -642932.78946   -482265.69943  23976335.6884                   23976334.2504
  -1706135.48847  -1306701.20346  20125539.1804                   20125535.4064
   3150890.85246   2454882.71143  23355179.8834                   23355176.7344
  -2934859.50847  -2258854.10545  21208876.4534                   21208872.1644
    911779.73447    722087.69545  20521644.0704                   20521639.0354
 11  8 16 16 26  0.0000000  0  9G03G06G07G08G10G13G16G19G23
    329061.29747    264939.65645  21166493.3594                   21166490.6294
   1519943.42247   1192622.83644  22891094.5474                   22891092.8984
  -3580656.76247  -2745711.89545  22215163.9144                   22215161.4224
  -3915228.00446  -3017722.23443  24156199.6414                   24156198.2774
   -717265.74646   -540187.54343  23962190.6254                   23962189.6764
  -1801196.49247  -1380774.73046  20107449.5314                   20107446.0904
   3151187.55546   2455113.83243  23355236.5634                   23355234.0354
  -3057435.07847  -2354367.53146  21185550.5234                   21185546.3094
    874247.64147    692841.88745  20514501.5784                   20514496.8244
 11  8 16 16 26 30.0000000  0  9G03G06G07G08G10G13G16G19G23
    281528.75447    227901.29344  21157447.3914                   21157445.0354
   1494924.85247   1173127.79744  22886333.9064                   22886332.0704
  -3726233.60947  -2859148.40245  22187461.8984                   22187459.0044
  -4072411.35946  -3140202.76642  24126288.1804                   24126287.4104
   -791183.17246   -597785.59443  23948125.5944                   23948124.0704
  -1895713.27747  -1454424.19146  20089463.8444                   20089460.1454
   3151470.34046   2455334.11743  23355290.9224                   23355288.1214
  -3179472.99647  -2449462.01245  21162327.8284                   21162323.4614
    837216.34447    663986.30145  20507455.0474                   20507450.6484
 11  8 16 16 27  0.0000000  0 10G03G06G07G08G10G13G16G19G28G23
    234547.55147    191292.53944  21148507.5704                   21148504.7544
   1470308.51247   1153946.17644  22881649.8444                   22881647.7154
  -3871808.31647  -2972583.21545  22159760.0234                   22159757.6094
  -4229691.14146  -3262758.43742  24096359.0084                   24096357.4184
   -864688.69146   -655062.68443  23934137.2274                   23934136.5744
  -1989686.37147  -1527650.00446  20071581.4454                   20071577.6804
   3151735.97746   2455541.03543  23355340.8754                   23355338.6644
  -3300972.92247  -2544137.27045  21139207.0634                   21139202.6524
   2957983.85956   2349329.48852  24702845.8364                   24702845.3484
    800682.54747    635518.38745  20500502.8834                   20500498.0314
 11  8 16 16 27 30.0000000  0 10G03G06G07G08G10G13G16G19G28G23
    188116.12147    155112.16844  21139672.4304                   21139669.7734
   1446091.95747   1135076.10544  22877041.6254                   22877039.8134
  -4017380.68447  -3086016.21145  22132058.4064                   22132056.0124
  -4387068.14546  -3385389.84043  24066410.6804                   24066410.0514
   -937783.85546   -712019.99243  23920227.2114                   23920227.2624
  -2083115.07447  -1600451.60946  20053802.1484                   20053798.8094
   3151982.07846   2455732.73843  23355388.1564                   23355385.5634
  -3421933.61747  -2638392.34845  21116188.8674                   21116184.8554
   2793843.97346   2221428.31642  24671610.7814                   24671611.0394
    764644.64847    607436.87945  20493644.9454                   20493640.1994
 11  8 16 16 28  0.0000000  0 10G03G06G07G08G10G13G16G19G28G23
    142228.87947    119355.85244  21130939.6334                   21130937.8244
   1422269.39847   1116513.03144  22872508.1484                   22872506.6294
  -4162953.58647  -3199449.61745  22104357.1644                   22104354.2624
  -4544545.77046  -3508099.67643  24036443.8524                   24036443.5704
  -1010474.44546   -768662.05143  23906395.1804                   23906394.7304
  -2176002.69147  -1672831.58646  20036126.2974                   20036122.6954
   3152203.32046   2455905.08643  23355429.4694                   23355427.9454
  -3542357.18447  -2732228.88345  21093272.9224                   21093268.6484
   2629878.00846   2093662.68442  24640409.3754                   24640409.9694
    729097.82847    579738.02745  20486880.7114                   20486875.9574
 11  8 16 16 28 30.0000000  0 10G03G06G07G08G10G13G16G19G28G23
     96885.83647     84023.58244  21122311.4384                   21122308.8674
   1398840.44547   1098256.64544  22868049.8594                   22868048.0044
  -4308524.60947  -3312881.54745  22076655.6174                   22076653.0204
  -4702122.09446  -3630886.35943  24006458.4774                   24006457.7854
  -1082760.04746   -824988.56643  23892639.1954                   23892638.8834
  -2268346.66447  -1744787.94946  20018553.4454                   20018549.8984
   3152399.44946   2456057.82043  23355467.7034                   23355465.2774
  -3662240.54347  -2825644.48445  21070459.7504                   21070455.7304
   2466088.32846   1966034.44142  24609240.5704                   24609240.8674
    694042.37147    552422.05545  20480209.8914                   20480205.0904
 11  8 16 16 29  0.0000000  0 11G03G06G07G08G10G13G16G19G28G23G11
     52085.86347     49114.48444  21113786.3674                   21113783.6334
   1375803.25847   1080305.55944  22863665.8914                   22863664.0594
  -4454092.88747  -3426311.38745  22048955.3834                   22048952.4734
  -4859796.54746  -3753749.52343  23976453.6024                   23976453.0864
  -1154641.85546   -881000.39543  23878960.9924                   23878960.0514
  -2360145.71947  -1816319.69946  20001084.9224                   20001081.3404
   3152569.32446   2456190.14143  23355499.9144                   23355496.8914
  -3781581.79347  -2918637.65645  21047750.3674                   21047745.1054
   2302475.62546   1838544.00642  24578106.0164                   24578105.7074
    659477.31347    525488.20745  20473632.7344                   20473627.6334
   2958412.07856   2344422.28553  24738274.5084                   24738275.7274
 11  8 16 16 29 30.0000000  0 11G03G06G07G08G10G13G16G19G28G23G11
      7827.21147     14627.19544  21105364.4304                   21105362.3524
   1353155.83247   1062658.16044  22859356.1884                   22859354.6564
  -4599657.67247  -3539738.46545  22021254.7274                   22021252.0004
  -5017569.41046  -3876689.36343  23946430.9224                   23946429.3524
  -1226121.59446   -936698.96143  23865358.8364                   23865358.2734
  -2451398.79347  -1887426.01646  19983719.9844                   19983716.7504
   3152711.27346   2456300.67243  23355525.9454                   23355524.6374
  -3900379.33247  -3011207.15645  21025143.6724                   21025138.9844
   2139040.29746   1711191.84842  24547003.7194                   24547005.3524
    625401.27748    498935.41445  20467148.2114                   20467143.1954
   2794202.69946   2216467.03143  24707025.7664                   24707027.2274
 11  8 16 16 30  0.0000000  0 11G03G06G07G08G10G13G16G19G28G23G11
    -35895.25047    -19442.28144  21097044.2274                   21097041.9534
   1330892.63347   1045310.15244  22855119.9924                   22855118.7814
  -4745221.55547  -3653164.84045  21993554.9144                   21993552.2854
  -5175444.13345  -3999708.58642  23916386.8204                   23916387.4344
  -1297204.64846   -992088.39343  23851832.0864                   23851832.1684
  -2542108.49247  -1958108.91446  19966458.7894                   19966455.0704
   3152820.03546   2456385.35543  23355548.2194                   23355545.9614
  -4018634.91847  -3103354.35245  21002639.8134                   21002635.6334
   1975779.49246   1583975.71542  24515938.4844                   24515937.9884
    591809.65247    472760.07845  20460755.8524                   20460751.1724
   2629803.78546   2088364.09043  24675741.6414                   24675742.6024
 11  8 16 16 30 30.0000000  0 11G03G06G07G08G10G13G16G19G28G23G11
    -79084.64547    -53096.39144  21088825.3134                   21088823.0044
   1309009.98847   1028258.69144  22850955.8444                   22850954.5234
  -4890785.32447  -3766591.13745  21965854.8754                   21965852.0084
  -5333422.21946  -4122808.35943  23886325.1334                   23886324.4884
  -1367893.98446  -1047171.05543  23838380.5554                   23838380.0634
  -2632275.74247  -2028369.12946  19949300.0474                   19949297.1994
   3152892.44146   2456441.69543  23355559.6174                   23355559.0314
  -4136348.83647  -3195079.47745  20980240.2974                   20980234.9144
   1812692.23845   1456894.86742  24484903.5784                   24484904.0314
    558699.48047    446959.90645  20454455.6094                   20454450.3834
   2465216.23846   1960114.17242  24644421.8984                   24644421.9654
 11  8 16 16 31  0.0000000  0 11G03G06G07G08G10G13G16G19G28G23G11
   -121741.88347    -86335.82844  21080707.8524                   21080706.1024
   1287506.53147   1011502.69544  22846864.1804                   22846862.1094
  -5036347.61347  -3880016.28545  21938155.2664                   21938152.4574
  -5491502.85246  -4245988.03543  23856244.1724                   23856242.2034
  -1438190.55946  -1101947.61343  23825003.4304                   23825003.0554
  -2721899.09847  -2098205.53146  19932245.2194                   19932242.2974
   3152927.48846   2456468.92243  23355566.5864                   23355565.7154
  -4253518.80147  -3286380.73845  20957943.6174                   20957938.5124
   1649779.81645   1329950.19542  24453902.6804                   24453903.6094
    526070.07447    421534.36345  20448245.7504                   20448240.9694
   2300443.26646   1831719.75043  24613067.3364                   24613067.0824
 11  8 16 16 31 30.0000000  0 11G03G06G07G08G10G13G16G19G28G23G11
   -163867.52047   -119161.03144  21072691.8594                   21072689.8054
   1266381.37147    995041.47744  22842843.7584                   22842842.2704
  -5181906.16847  -3993438.53145  21910456.6254                   21910453.4924
  -5649684.27746  -4369246.27043  23826142.6724                   23826142.2344
  -1508094.82846  -1156418.52043  23811702.0084                   23811701.4304
  -2810976.42647  -2167616.45746  19915294.5944                   19915290.9494
   3152925.04746   2456466.94543  23355566.1254                   23355564.3984
  -4370142.09447  -3377256.02045  20935750.8914                   20935746.3554
   1487043.547 5                  24422933.469
    493921.38347    396483.40245  20442128.3204                   20442123.6524
   2135488.37546   1703183.55542  24581677.0164                   24581677.7734
 11  8 16 16 32  0.0000000  0 11G03G06G07G08G10G13G16G19G28G23G11
   -205460.98047   -151571.55544  21064776.9614                   21064774.7544
   1245634.43847    978874.98044  22838896.1024                   22838894.3594
  -5327458.08647  -4106855.60245  21882758.7814                   21882756.2894
  -5807964.56646  -4492581.50043  23796024.1024                   23796023.0044
  -1577606.55546  -1210583.55143  23798473.7504                   23798474.1214
  -2899504.78147  -2236599.60546  19898448.8054                   19898445.0474
   3152885.50446   2456436.06342  23355561.4534                   23355557.3094
  -4486215.11347  -3467702.52345  20913662.9144                   20913657.8754
   1324486.703 5                  24392001.156
    462254.04747    371807.52345  20436102.1884                   20436097.2734
   1970356.14846   1574509.14842  24550253.2504                   24550253.5744
 11  8 16 16 32 30.0000000  0 11G03G06G07G08G10G13G16G19G28G23G11
   -246524.60547   -183569.22744  21056962.6484                   21056960.4884
   1225263.05947    963001.11744  22835018.5554                   22835017.9454
  -5473003.19947  -4220267.37145  21855062.4384                   21855060.1024
  -5966344.17646  -4615994.11743  23765884.3204                   23765884.2194
  -1646728.14846  -1264444.60943  23785320.6804                   23785320.8554
  -2987484.28947  -2305155.07446  19881706.4144                   19881703.3754
   3152806.68446   2456374.50843  23355543.3204                   23355542.7544
  -4601736.92647  -3557719.51245  20891679.5004                   20891675.2194
   1162108.40246   1211689.59452  24361101.2344                   24361100.0234
    431065.77347    347504.94145  20430167.8834                   20430162.6914
   1805048.17246   1445697.73442  24518795.7734                   24518796.8794
 11  8 16 16 33  0.0000000  0 11G03G06G07G08G10G13G16G19G28G23G11
   1288363.81347   1012447.68844  21349042.6804                   21349040.3914
   2780688.57847   2175020.94544  23131007.4384                   23131005.6254
  -4043113.05947  -3106067.25445  22127162.0164                   22127159.0474
  -4549395.00446  -3511877.78543  24035521.2034                   24035519.6684
   -140036.20346    -90398.97743  24072035.3834                   24072035.1884
  -1499488.54347  -1145677.88746  20164862.6094                   20164859.4574
   4728109.56346   3683883.18043  23655315.9384                   23655312.9774
  -3141279.80947  -2419700.97745  21169595.6484                   21169590.7504
   2575337.60946   2312907.23443  24630029.6094                   24630028.6254
   1975779.17647   1551177.68045  20724116.4454                   20724111.4104
   3214994.98846   2544357.63742  24787099.6174                   24787100.5004
 11  8 16 16 33 30.0000000  0 11G03G06G07G08G10G13G16G19G28G23G11
   1248359.09447    981275.15645  21341429.8364                   21341427.7814
   2761066.90647   2159731.27344  23127273.1644                   23127271.6374
  -4188636.80947  -3219462.36745  22099469.7894                   22099466.3014
  -4707967.82046  -3635440.97343  24005346.5634                   24005344.2974
   -208377.69546   -143652.12543  24059029.0864                   24059029.9694
  -1586362.94547  -1213372.24246  20148331.2424                   20148328.1214
   4727952.29346   3683760.55943  23655285.2424                   23655283.1764
  -3255690.55147  -2508852.20345  21147823.9614                   21147819.3324
   2413323.83246   2186662.77743  24599199.5004                   24599198.9264
   1945550.28147   1527622.66845  20718364.1954                   20718359.5044
   3049347.45346   2415281.73042  24755578.1884                   24755578.9144
 11  8 16 16 34  0.0000000  0 11G03G06G07G08G10G13G16G19G28G23G11
   1208881.53547    950513.37944  21333917.5474                   21333915.5044
   2741816.87547   2144731.19144  23123610.7504                   23123608.4224
  -4334148.73847  -3332848.27045  22071779.4614                   22071776.4104
  -4866636.64146  -3759079.00443  23975152.0314                   23975150.2344
   -276331.46146   -196603.19543  24046099.0634                   24046098.8954
  -1672683.69147  -1280635.18046  20131904.6334                   20131901.5944
   4727753.62146   3683605.66843  23655247.6564                   23655245.8484
  -3369543.33647  -2597568.66845  21126158.1724                   21126153.7894
   2251492.71946   2060560.72743  24568403.3754                   24568403.5124
   1915798.91847   1504439.74645  20712702.6094                   20712698.5784
   2883533.75046   2286076.30142  24724025.1024                   24724025.8484
 11  8 16 16 34 30.0000000  0 11G03G06G07G08G10G13G16G19G28G23G11
   1169929.69547    920161.25844  21326505.1414                   21326503.3484
   2722937.14147   2130019.66444  23120017.5864                   23120015.8284
  -4479647.24247  -3446223.71945  22044092.4144                   22044089.3134
  -5025400.79746  -3882791.30943  23944940.6564                   23944938.6174
   -343898.88746   -249253.20743  24033241.3284                   24033240.8794
  -1758449.47747  -1347465.67646  20115583.7664                   20115580.9104
   4727512.73846   3683417.91443  23655202.2894                   23655200.0204
  -3482836.48047  -2685849.04745  21104599.1804                   21104594.7974
   2089845.34846   1934601.83243  24537643.4694                   24537642.5704
   1886524.35547   1481628.34845  20707132.2274                   20707127.2384
   2717557.12946   2156743.92642  24692440.0004                   24692441.0824
 11  8 16 16 35  0.0000000  0 11G03G06G07G08G10G13G16G19G28G23G11
   1131499.31647    890215.48844  21319192.3364                   21319189.6844
   2704422.72347   2115592.79344  23116494.2584                   23116492.5634
  -4625133.94147  -3559589.96545  22016407.2274                   22016403.9654
  -5184262.76246  -4006579.80143  23914708.9774                   23914708.6294
   -411084.25846   -301605.47743  24020455.4844                   24020455.6604
  -1843662.63347  -1413865.55946  20099369.0634                   20099365.6134
   4727225.18446   3683193.77343  23655147.7194                   23655146.0274
  -3595571.49647  -2773694.52745  21083146.4064                   21083142.0354
   1928379.63346   1808784.48043  24506917.5864                   24506916.4694
   1857722.02347   1459184.93445  20701651.0234                   20701646.1644
   2551417.49646   2027284.50042  24660825.6024                   24660825.2344
 11  8 16 16 35 30.0000000  0 11G03G06G07G08G10G13G16G19G28G23G11
   1093590.19547    860675.87545  21311978.6564                   21311976.1804
   2686273.48447   2101450.47344  23113040.5634                   23113039.1994
  -4770605.89847  -3672944.71945  21988723.6724                   21988721.2934
  -5343220.50046  -4130442.89843  23884460.2974                   23884459.8484
   -477887.28146   -353659.84043  24007743.3134                   24007743.5164
  -1928320.41847  -1479832.67246  20083258.6484                   20083255.4884
   4726891.63746   3682933.78543  23655083.4924                   23655081.6414
  -3707744.94547  -2861102.41845  21061801.1094                   21061796.2504
   1767098.05546   1683110.60943  24476226.5704                   24476225.6134
   1829392.57447   1437109.98845  20696260.2274                   20696255.9064
   2385118.88346   1897701.23043  24629179.4774                   24629180.0704
 11  8 16 16 36  0.0000000  0 11G03G06G07G08G10G13G16G19G28G23G11
   1056201.60947    831541.88745  21304863.7584                   21304861.7584
   2668487.90647   2087591.53144  23109656.2034                   23109654.8914
  -4916061.59047  -3786286.80145  21961044.8834                   21961042.3714
  -5502272.76246  -4254379.66043  23854194.7814                   23854193.3794
   -544309.28546   -405417.31643  23995103.7274                   23995103.7234
  -2012421.47747  -1545365.98846  20067254.7194                   20067251.7114
   4726511.43446   3682637.42643  23655011.1954                   23655009.6564
  -3819354.62147  -2948071.01645  21040562.4454                   21040557.3874
   1606001.63746   1557581.01643  24445571.0864                   24445570.0554
   1801535.21147   1415402.91445  20690959.7194                   20690954.8524
   2218664.75046   1767996.80543  24597504.0164                   24597504.5824
 11  8 16 16 36 30.0000000  0 11G03G06G07G08G10G13G16G19G28G23G11
   1019330.78947    802811.33245  21297847.3284                   21297845.4774
   2651063.12147   2074013.72344  23106340.6334                   23106339.4654
  -5061501.04347  -3899616.23045  21933368.6644                   21933366.1644
  -5661420.23446  -4378390.66043  23823909.9614                   23823908.4734
   -610352.65246   -456879.74643  23982536.1254                   23982536.0354
  -2095966.16447  -1610465.76646  20051356.5164                   20051353.1644
   4726081.95346   3682302.69543  23654930.7034                   23654928.0274
  -3930400.33647  -3034600.16045  21019430.5864                   21019426.0474
   1445089.99246   1432195.41843  24414950.2664                   24414950.1524
   1774147.55947   1394061.83645  20685747.7344                   20685742.6884
   2052056.63746   1638172.37543  24565799.6254                   24565800.3754
 11  8 16 16 37  0.0000000  0 11G03G06G07G08G10G13G16G19G28G23G11
    982974.89847    774482.03145  21290928.9144                   21290926.9144
   2633995.97747   2060714.60544  23103093.1564                   23103091.4494
  -5206924.00447  -4012932.81245  21905695.7274                   21905692.9494
  -5820663.45746  -4502476.27343  23793606.5554                   23793604.3954
   -676020.32046   -508049.46143  23970040.8754                   23970040.4414
  -2178954.76647  -1675132.22346  20035564.8444                   20035561.3554
   4725601.23446   3681928.02743  23654839.2974                   23654836.5864
  -4040881.56647  -3120689.43745  20998406.8674                   20998402.8244
   1284362.98046   1306953.64843  24384364.6484                   24384365.0314
   1747227.49247   1373085.12945  20680624.4534                   20680620.3754
   1885296.23446   1508229.30543  24534066.2194                   24534066.6884
 11  8 16 16 37 30.0000000  0 11G03G06G07G08G10G13G16G19G28G23G11
    947132.15247    746552.58644  21284108.5474                   21284106.9884
   2617284.80146   2047692.85944  23099912.6414                   23099911.5434
  -5352328.99247  -4126235.39545  21878025.4384                   21878023.3954
  -5980001.76246  -4626636.00443  23763285.7114                   23763283.8874
   -741313.80146   -558927.57843  23957614.8754                   23957614.8204
  -2261386.42647  -1739364.70346  20019878.6254                   20019874.9144
   4725068.08646   3681512.47343  23654736.3984                   23654734.6884
  -4150796.78547  -3206337.66845  20977491.4694                   20977486.0744
   1123820.94946   1181856.02043  24353814.0234                   24353814.7234
   1720773.44547   1352471.53145  20675590.8444                   20675586.8484
   1718386.10246   1378169.55543  24502304.0164                   24502304.7234
 11  8 16 16 38  0.0000000  0 11G03G06G07G08G10G13G16G19G28G23G11
    911802.15247    719022.66445  21277385.3204                   21277383.6724
   2600928.26246   2034947.43844  23096800.5864                   23096799.0164
  -5497713.80947  -4239522.25045  21850359.9304                   21850357.4694
  -6139433.80146  -4750868.75443  23732946.8674                   23732944.2974
   -806233.76246   -609514.61743  23945262.5164                   23945260.7114
  -2343259.55547  -1803161.96546  20004298.8134                   20004295.2344
   4724482.14846   3681055.83243  23654626.1334                   23654624.0164
  -4260144.14147  -3291543.40245  20956683.0314                   20956678.2734
    963465.70346   1056903.90643  24323299.9454                   24323300.1414
   1694785.01647   1332220.76645  20670645.6484                   20670640.9224
   1551330.27746   1247996.23843  24470515.0784                   24470514.7704
 11  8 16 16 38 30.0000000  0 11G03G06G07G08G10G13G16G19G28G23G11
    876982.10547    691890.11345  21270759.4614                   21270757.9224
   2584923.54746   2022476.18844  23093754.7344                   23093753.3014
  -5643078.39847  -4352793.35545  21822698.6094                   21822695.6644
  -6298960.11746  -4875174.91843  23702588.8594                   23702587.8954
   -870783.03946   -659812.83243  23932978.7814                   23932978.2584
  -2424574.31647  -1866524.14546  19988825.2114                   19988821.5944
   4723841.30946   3680556.38743  23654504.8284                   23654502.0274
  -4368922.88747  -3376306.07045  20935982.8834                   20935977.9884
    803296.64546    932096.92642  24292820.3984                   24292820.5434
   1669259.77748   1312330.92645  20665788.1804                   20665783.5864
   1384130.26646   1117710.62943  24438697.7504                   24438697.0274
 11  8 16 16 39  0.0000000  0 11G03G06G07G08G10G13G16G19G28G23G11
    842670.55147    665153.81345  21264230.5394                   21264228.6954
   2569268.91846   2010277.73444  23090775.4224                   23090774.2384
  -5788421.52047  -4466047.71945  21795040.5474                   21795037.4694
  -6458580.03546  -4999554.00443  23672214.9224                   23672214.0904
   -934962.68446   -709823.02343  23920764.7274                   23920765.1884
  -2505330.02747  -1929450.69146  19973457.6254                   19973454.5744
   4723144.58246   3680013.42243  23654371.4774                   23654369.5514
  -4477131.30147  -3460624.30945  20915391.6254                   20915387.1334
    643314.69146    807435.62142  24262377.4454                   24262377.0864
   1644196.77047   1292801.27345  20661019.2734                   20661014.6214
   1216789.12946    987315.04743  24406853.6024                   24406852.7624
 11  8 16 16 39 30.0000000  0 11G03G06G07G08G10G13G16G19G28G23G11
    808867.31347    638813.58645  21257798.0234                   21257795.8594
   2553963.88346   1998351.66444  23087862.8444                   23087861.8674
  -5933740.32047  -4579283.12545  21767387.2194                   21767383.9104
  -6618291.07446  -5124004.14143  23641822.6414                   23641822.0434
   -998772.61346   -759545.10943  23908622.5164                   23908623.0744
  -2585524.23447  -1991939.70746  19958197.2894                   19958194.1134
   4722392.65646   3679427.43043  23654227.3834                   23654227.1294
  -4584766.73047  -3544496.07045  20894908.9774                   20894904.5274
    483522.17246    682922.01642  24231969.6174                   24231969.7194
   1619596.25047   1273631.98845  20656337.5164                   20656333.4694
   1049311.36346    856812.98043  24374983.7504                   24374983.7234
 11  8 16 16 40  0.0000000  0 11G03G06G07G08G10G13G16G19G28G23G11
    775568.95347    612866.78945  21251461.0474                   21251459.2584
   2539004.78546   1986695.17644  23085016.2344                   23085015.4454
  -6079035.05147  -4692499.78145  21739738.2344                   21739735.6804
  -6778094.89146  -5248526.54343  23611412.7814                   23611412.3444
  -1062216.47346   -808981.98443  23896549.7894                   23896549.6844
  -2665158.12548  -2053992.10546  19943043.3054                   19943039.9384
   4721582.36746   3678795.92643  23654074.4224                   23654073.0704
  -4691829.57047  -3627921.65645  20874535.5004                   20874531.0864
    323917.58645    558554.81642  24201597.2424                   24201598.5744
   1595454.27348   1254820.02045  20651743.5704                   20651739.3094
    881697.87546    726205.16443  24343087.8984                   24343088.3014
 11  8 16 16 40 30.0000000  0 11G03G06G07G08G10G13G16G19G28G23G11
    742773.68447    587312.00045  21245220.5004                   21245218.9534
   2524389.95346   1975306.92644  23082235.5474                   23082234.4774
  -6224304.14547  -4805696.45745  21712094.8444                   21712091.8134
  -6937990.37946  -5373120.43442  23580985.8754                   23580984.1214
  -1125295.92646   -858134.83243  23884545.1954                   23884545.9184
  -2744230.94547  -2115607.32046  19927996.6024                   19927993.0204
   4720712.90246   3678118.35543  23653908.4384                   23653907.7344
  -4798318.53147  -3710900.07045  20854271.2974                   20854266.6954
    164502.16045    434335.11742  24171261.4304                   24171263.0084
   1571770.03547   1236364.71545  20647236.6644                   20647232.6134
    713951.62146    595493.87143  24311166.6884                   24311166.8014
 11  8 16 16 41  0.0000000  0 11G03G06G07G08G10G13G16G19G28G23G11
    710476.81647    562145.57845  21239074.7344                   21239073.0434
   2510114.43046   1964183.09044  23079519.0944                   23079517.7814
  -6369549.39547  -4918874.56245  21684455.4694                   21684452.2584
  -7097979.96146  -5497787.61743  23550540.7114                   23550538.7934
  -1188015.80946   -907007.57042  23872611.0234                   23872611.0944
  -2822745.04347  -2176787.16046  19913055.6484                   19913052.4694
   4719780.12946   3677391.41843  23653730.5394                   23653729.7034
  -4904235.03147  -3793432.40245  20834116.4614                   20834111.9384
      5273.28946    310260.71142  24140961.9844                   24140962.6454
   1548539.29747   1218262.80145  20642816.3984                   20642811.5784
    546072.60246    464679.09843  24279219.9144                   24279220.3794
 11  8 16 16 41 30.0000000  0 11G03G06G07G08G10G13G16G19G28G23G11
   2254100.39147   1764969.12545  21532816.9064                   21532814.3164
   4071599.14146   3180924.34844  23376659.9844                   23376658.9104
  -4939342.04747  -3804427.24645  21956615.0554                   21956611.5314
  -5682634.86346  -4394921.27743  23819872.1094                   23819870.9064
    325047.18846    272002.52043  24160538.0314                   24160538.0234
  -1325274.82847  -1009927.28146  20198014.8674                   20198011.2194
   6294205.67646   4904216.48043  23953335.3444                   23953333.2114
  -3434151.97347  -2647913.12945  21113863.9844                   21113859.2894
   1421659.60546   1413938.37142  24410490.7344                   24410491.6294
   3101184.13748   2428115.85945  20938275.0234                   20938270.2894
   1953491.89546   1561369.53542  24547042.7974                   24547044.6604
 11  8 16 16 42  0.0000000  0 11G03G06G07G08G10G13G16G19G28G23G11
   2222799.92247   1740579.12145  21526860.1564                   21526857.8094
   4058000.69546   3170328.08644  23374072.3364                   23374071.1844
  -5084530.80147  -3917561.32845  21928986.1884                   21928983.2814
  -5842806.11346  -4519730.02743  23789392.4694                   23789391.5164
    263046.52046    223690.25442  24148738.7894                   24148738.7894
  -1402665.30547  -1070231.57046  20183287.5474                   20183284.5204
   6293147.80146   4903392.03543  23953133.4304                   23953131.1174
  -3538915.64547  -2729547.15645  21093927.8284                   21093923.2704
   1262810.59046   1290159.95342  24380263.0634                   24380263.1764
   3078860.58247   2410720.82445  20934026.7344                   20934021.7074
   1785360.27046   1430357.89142  24515048.1564                   24515049.9494
 11  8 16 16 42 30.0000000  0 11G03G06G07G08G10G13G16G19G28G23G11
   2191992.50847   1716573.30945  21520997.8134                   21520995.7074
   4044735.37946   3159991.39844  23371547.6174                   23371546.9574
  -5229691.73447  -4030673.72745  21901362.5084                   21901359.9614
  -6003069.45746  -4644610.52043  23758895.7664                   23758894.7544
    201400.58246    175654.40643  24137007.8594                   24137008.6564
  -1479495.04347  -1130098.92246  20168668.0634                   20168664.3484
   6292023.34846   4902515.74643  23952919.9924                   23952917.7734
  -3643103.12947  -2810732.21145  21074101.4844                   21074096.7624
   1104149.73846   1166528.11343  24350071.2974                   24350070.7114
   3056985.91047   2393675.57045  20929864.5084                   20929859.1724
   1617104.60546   1299249.69542  24483029.5704                   24483032.0164
 11  8 16 16 43  0.0000000  0 11G03G06G07G08G10G13G16G19G28G23G11
   2161676.35947   1692950.30545  21515228.8984                   21515226.7624
   4031801.31646   3149912.84844  23369086.9614                   23369085.7464
  -5374823.41847  -4143763.35245  21873745.3914                   21873742.4454
  -6163424.12546  -4769562.11743  23728380.9614                   23728379.9494
    140107.73846    127893.69143  24125344.6564                   24125344.6024
  -1555764.27347  -1189529.50846  20154154.2344                   20154151.0664
   6290831.37946   4901586.84443  23952693.2344                   23952691.3754
  -3746713.50847  -2891467.57045  21054385.3364                   21054380.4534
    945677.91846   1043043.56642  24319915.1484                   24319913.5274
   3035558.84847   2376979.11345  20925786.8284                   20925781.7464
   1448727.36745   1168046.64542  24450987.3524                   24450991.2814
 11  8 16 16 43 30.0000000  0 11G03G06G07G08G10G13G16G19G28G23G11
   2131849.92647   1669708.89145  21509553.2034                   21509551.1294
   4019196.89146   3140091.17244  23366688.5234                   23366687.4614
  -5519924.21147  -4256828.90645  21846133.5394                   21846130.4304
  -6323869.23846  -4894584.27043  23697849.3134                   23697848.0084
     79166.59046     80407.00043  24113748.2114                   24113747.7424
  -1631471.89547  -1248522.47346  20139747.4694                   20139744.2344
   6289571.62946   4900605.11343  23952454.0784                   23952451.3364
  -3849745.21947  -2971752.02345  21034778.8134                   21034774.1174
    787396.06646    919707.05543  24289794.9224                   24289793.9494
   3014578.16847   2360630.48045  20921793.5394                   20921789.4494
   1280232.19145   1036751.81342  24418923.8914                   24418929.6174
 11  8 16 16 44  0.0000000  0 11G03G06G07G08G10G13G16G19G28G23G11
   2102509.28147   1646846.01645  21503970.2034                   21503967.7624
   4006917.90646   3130523.06643  23364352.0084                   23364350.2974
  -5664994.78147  -4369870.91045  21818527.1334                   21818525.0594
  -6484406.62146  -5019678.33643  23667300.6414                   23667298.8484
     18572.83446     33191.01443  24102217.7034                   24102217.1374
  -1706619.53547  -1307079.09046  20125447.2114                   20125444.3954
   6288240.41546   4899567.75643  23952199.8754                   23952198.2774
  -3952199.33247  -3051586.40245  21015282.9694                   21015278.2034
    629302.48046    796517.25843  24259710.7344                   24259709.6374
   2994039.72347   2344626.44145  20917885.9064                   20917881.3404
   1111619.332 5                  24386839.430
 11  8 16 16 44 30.0000000  0 11G03G06G07G08G10G13G16G19G28G23G11
   2073651.23447   1624359.18045  21498478.0004                   21498476.4224
   3994960.89146   3121205.86743  23362076.0314                   23362075.0124
  -5810035.37147  -4482889.55945  21790927.4694                   21790924.6174
  -6645036.55546  -5144844.50843  23636733.4774                   23636731.5864
    -41676.48446    -13756.54743  24090752.2814                   24090752.3484
  -1781208.16447  -1365200.12946  20111253.7424                   20111250.6174
   6286835.48446   4898472.93843  23951932.0474                   23951931.5044
  -4054076.37947  -3130971.11745  20995895.6024                   20995891.1254
    471396.13346    673473.40243  24229662.0944                   24229660.9454
   2973940.82847   2328964.92245  20914060.7814                   20914056.8444
    942890.629 6                  24354731.789
 11  8 16 16 45  0.0000000  0 11G03G06G07G08G10G13G16G19G28G23G11
   2045274.79347   1602247.62145  21493078.6954                   21493076.6914
   3983325.05146   3112138.94143  23359861.7424                   23359860.8404
  -5955043.14547  -4595882.62545  21763333.0634                   21763330.5514
  -6805757.23846  -5270081.34043  23606148.7664                   23606147.2304
   -101581.89546    -60436.17643  24079354.2194                   24079353.5354
  -1855235.78547  -1422884.00046  20097166.6954                   20097163.2934
   6285357.35246   4897321.07043  23951651.0784                   23951650.3364
  -4155373.73447  -3209904.13345  20976619.8444                   20976615.2814
    313678.88346    550576.89843  24199650.4064                   24199648.4414
   2954281.23048   2313645.69945  20910320.1564                   20910315.7544
    774050.109 6                  24322603.070
 11  8 16 16 45 30.0000000  0 11G03G06G07G08G10G13G16G19G28G23G11
   2017377.21547   1580509.21945  21487769.1884                   21487767.7154
   3972007.46546   3103319.98443  23357708.1644                   23357707.7774
  -6100017.47347  -4708849.63745  21735745.4304                   21735743.1094
  -6966568.68746  -5395388.93743  23575547.8524                   23575546.1414
   -161145.72746   -106849.62943  24068019.7664                   24068018.7154
  -1928703.60247  -1480131.66846  20083186.2344                   20083182.9774
   6283803.89146   4896110.53943  23951356.2034                   23951354.2664
  -4256091.46147  -3288385.48445  20957453.8134                   20957449.5314
    156150.37546    427827.46943  24169672.4694                   24169671.6884
   2935058.30548   2298666.73845  20906662.1724                   20906657.9494
    605099.809 6                  24290452.516
 11  8 16 16 46  0.0000000  0 11G03G06G07G08G10G13G16G19G28G23G11
   1989958.06647   1559143.60245  21482552.1334                   21482550.3324
   3961007.27346   3094748.37943  23355614.6954                   23355614.1724
  -6244955.81647  -4821788.59045  21708164.3134                   21708162.2114
  -7127469.41446  -5520766.07843  23544929.4614                   23544927.2034
   -220369.12946   -152997.80543  24056749.2274                   24056748.8054
  -2001609.79747  -1536941.70346  20069312.7274                   20069309.3204
   6282175.48046   4894841.57043  23951046.2194                   23951044.5044
  -4356227.38747  -3366413.47745  20938398.5394                   20938394.3834
     -1187.27346    305226.72343  24139732.6884                   24139730.6334
   2916271.73448   2284027.80145  20903087.3674                   20903083.2544
    436044.027 6                  24258281.328
 11  8 16 16 46 30.0000000  0 11G03G06G07G08G10G13G16G19G28G23G11
   1963017.04747   1538150.57045  21477425.8984                   21477423.9574
   3950324.33646   3086423.94143  23353581.8754                   23353581.5554
  -6389854.94147  -4934697.00045  21680591.6094                   21680588.5664
  -7288456.37946  -5646210.46543  23514294.4774                   23514291.7934
   -279251.91046   -198880.56243  24045543.8054                   24045543.8484
  -2073952.20347  -1593312.43446  20055546.6804                   20055543.5704
   6280472.74246   4893514.68443  23950721.5234                   23950720.6254
  -4455779.14547  -3443986.27745  20919454.2424                   20919450.5704
   -158332.26246    182776.10543  24109829.4694                   24109827.3674
   2897922.02348   2269729.28145  20899595.4304                   20899591.5474
    266887.44546    952430.16852  24226092.1644                   24226092.1484
 11  8 16 16 47  0.0000000  0 11G03G06G07G08G10G13G16G19G28G23G11
   1936549.52347   1517526.48845  21472388.9064                   21472387.4104
   3939953.50546   3078342.71543  23351608.2344                   23351608.4024
  -6534716.31647  -5047575.98445  21653024.8914                   21653022.6414
  -7449531.78546  -5771723.77343  23483643.0474                   23483641.0164
   -337798.95346   -244501.70343  24034402.7194                   24034402.7034
  -2145733.52347  -1649245.94946  20041886.8754                   20041883.4184
   6278691.80546   4892126.86743  23950382.6954                   23950381.4494
  -4554748.10547  -3521104.95345  20900621.2344                   20900617.1604
   -315286.54746     60474.12943  24079960.7734                   24079960.6724
   2880003.67648   2255766.88345  20896185.9774                   20896181.7734
     97630.12946    820541.45342  24193883.3914                   24193883.6334
 11  8 16 16 47 30.0000000  0 11G03G06G07G08G10G13G16G19G28G23G11
   1910553.98847   1497270.19945  21467442.1804                   21467440.3324
   3929893.41446   3070503.62143  23349694.1174                   23349693.9574
  -6679537.98847  -5160424.05145  21625466.4304                   21625463.7814
  -7610694.58646  -5897305.16843  23452974.0944                   23452972.9774
   -396011.43746   -289862.14143  24023325.4924                   24023325.5514
  -2216952.73447  -1704741.46546  20028334.3674                   20028331.0664
   6276832.38346   4890677.88742  23950029.3914                   23950027.8984
  -4653132.78147  -3597768.33645  20881899.6024                   20881894.5394
   -472049.83646    -61679.01243  24050130.1804                   24050130.3094
   2862516.22348   2242140.25445  20892858.1414                   20892854.0234
    -71724.41446    688576.96542  24161657.1334                   24161656.6134
 11  8 16 16 48  0.0000000  0 11G03G06G07G08G10G13G16G19G28G23G11
   1885027.48047   1477379.37945  21462584.3984                   21462582.8134
   3920141.31346   3062904.52343  23347838.9614                   23347838.2424
  -6824319.34847  -5273240.68445  21597915.5474                   21597912.8524
  -7771944.74246  -6022954.59843  23422288.9694                   23422288.3054
   -453891.85546   -334963.86743  24012310.4844                   24012311.3404
  -2287610.24647  -1759799.29346  20014888.2194                   20014885.0004
   6274893.34046   4889166.83643  23949660.7194                   23949658.8674
  -4750933.30547  -3673976.54346  20863288.6804                   20863284.3364
   -628621.94546   -183683.23443  24020334.7424                   24020334.9924
   2845457.44148   2228847.65245  20889612.0084                   20889607.7384
   -241174.10246    556538.36342  24129411.1564                   24129411.3014
 11  8 16 16 48 30.0000000  0 11G03G06G07G08G10G13G16G19G28G23G11
   1859970.48847   1457854.40245  21457816.2504                   21457814.8754
   3910697.32846   3055545.50043  23346042.1024                   23346041.4024
  -6969056.79747  -5386023.11345  21570373.2034                   21570369.9344
  -7933279.42246  -6148669.91443  23391588.6484                   23391587.2234
   -511440.03546   -379806.68743  24001360.3364                   24001360.8204
  -2357703.91047  -1814417.75446  20001550.4534                   20001546.7584
   6272875.36746   4887594.32043  23949276.6954                   23949274.5474
  -4848146.75847  -3749727.28946  20844789.3754                   20844785.0514
   -784999.99246   -305536.27342  23990576.6254                   23990577.9064
   2828827.57847   2215889.26645  20886447.3204                   20886443.2544
   -410713.95746    424429.52042  24097148.4304                   24097149.3014
 11  8 16 16 49  0.0000000  0 11G03G06G07G08G10G13G16G19G28G23G11
   1835378.15647   1438691.51645  21453136.6334                   21453134.6564
   3901556.34046   3048422.61743  23344302.1254                   23344301.3874
  -7113751.09447  -5498771.90245  21542838.1804                   21542835.5944
  -8094700.31646  -6274452.42643  23360871.0084                   23360869.8484
   -568660.61746   -424394.24243  23990470.8914                   23990471.9844
  -2427236.29347  -1868598.85546  19988318.7424                   19988315.4064
   6270774.82046   4885957.41843  23948876.9774                   23948875.5124
  -4944774.68047  -3825021.78546  20826401.7424                   20826397.4774
   -941186.82846   -427240.23443  23960855.7664                   23960856.5944
   2812621.96148   2203261.45745  20883363.3674                   20883358.8594
   -580343.30946    292250.92642  24064870.2504                   24064869.8524
 11  8 16 16 49 30.0000000  0 11G03G06G07G08G10G13G16G19G28G23G11
   1811248.25047   1419888.95345  21448544.9454                   21448543.1684
   3892716.78946   3041534.57043  23342620.7584                   23342619.1094
  -7258400.77747  -5611485.93045  21515312.0704                   21515309.7544
  -8256206.50846  -6400301.40243  23330138.2584                   23330135.4574
   -625555.09046   -468727.67643  23979645.1174                   23979645.1484
  -2496207.18447  -1922342.43746  19975194.2504                   19975191.0554
   6268591.49646   4884256.06643  23948460.6804                   23948460.1024
  -5040816.42247  -3899859.51646  20808125.8754                   20808121.2814
  -1097181.43446   -548794.49242  23931171.2894                   23931170.7584
   2796839.25048   2190963.18845  20880360.2424                   20880355.6914
   -750059.00446    160005.06342  24032573.7974                   24032574.0824
 11  8 16 16 50  0.0000000  0 11G03G06G07G08G10G13G16G19G28G23G11
   3362999.91047   2629046.03145  21743833.1484                   21743831.9534
   5459596.75846   4262479.96143  23640787.6804                   23640786.4884
  -5827579.64147  -4496560.37145  21787588.4844                   21787586.2854
  -6842372.18046  -5298612.29343  23599180.6094                   23599179.6844
    893296.16446    714792.71943  24268672.7344                   24268672.5944
   -989193.94947   -748046.44546  20261969.1024                   20261965.7304
   7841744.19146   6110089.24243  24247822.2734                   24247821.3954
  -3560848.06247  -2746637.42246  21089754.8594                   21089749.8834
    322441.81646    557405.46943  24201316.0394                   24201315.8134
   4356898.18448   3406593.44945  21177230.0784                   21177225.0864
    655567.65246   1255298.66042  24300055.4224                   24300055.9694
 11  8 16 16 50 30.0000000  0 11G03G06G07G08G10G13G16G19G28G23G11
   3339789.51647   2610959.97344  21739417.3364                   21739415.1134
   5451353.26646   4256056.41843  23639219.2344                   23639217.7624
  -5972136.12547  -4609201.77745  21760080.5704                   21760078.0234
  -7004046.87546  -5424592.54743  23568415.1954                   23568413.8444
    837047.26246    670962.35243  24257969.4064                   24257968.6884
  -1057041.48047   -800914.68046  20249058.1954                   20249055.0124
   7839391.61346   6108255.98043  24247374.6024                   24247374.3284
  -3655715.30147  -2820559.95346  21071701.4774                   21071697.4414
    166832.67646    436151.64843  24171704.9844                   24171704.9184
   4341955.77348   3394949.95345  21174386.4694                   21174381.9804
    485687.73046   1122924.80942  24267727.4614                   24267728.4924
 11  8 16 16 51  0.0000000  0 11G03G06G07G08G10G13G16G19G28G23G11
   3317037.16447   2593230.82844  21735086.8834                   21735085.6954
   5443406.43446   4249864.02043  23637706.5394                   23637705.7854
  -6116642.07847  -4721803.81245  21732581.6024                   21732579.3094
  -7165802.65646  -5550636.00843  23537634.9614                   23537632.4144
    781120.01646    627382.54743  24247326.3204                   24247325.9614
  -1124325.44147   -853343.76646  20236254.2664                   20236251.1174
   7836954.93046   6106357.18043  24246910.8284                   24246910.7464
  -3749992.43747  -2894022.66446  21053761.8444                   21053756.9224
     11418.41446    315049.64843  24142130.5004                   24142130.3014
   4327432.21948   3383632.83245  21171622.6334                   21171618.3324
    315731.96545    990491.84442  24235385.4064                   24235387.2814
 11  8 16 16 51 30.0000000  0 11G03G06G07G08G10G13G16G19G28G23G11
   3294739.80947   2575856.21144  21730844.2114                   21730842.3244
   5435753.09846   4243900.31643  23636250.2194                   23636249.7424
  -6261096.89547  -4834365.99645  21705093.3204                   21705089.8324
  -7327640.17246  -5676743.14143  23506838.0234                   23506836.3054
    725511.35246    584051.04743  24236744.8524                   24236743.4774
  -1191046.57847   -905334.28945  20223557.8834                   20223554.4534
   7834432.39146   6104391.47343  24246431.4694                   24246430.4344
  -3843679.82047  -2967025.82046  21035933.0634                   21035928.6054
   -143801.58246    194099.02343  24112593.2894                   24112592.7544
   4313325.19948   3372640.28545  21168938.3524                   21168933.6094
    145702.50845    858001.52042  24203029.4694                   24203032.3094
 11  8 16 16 52  0.0000000  0 11G03G06G07G08G10G13G16G19G28G23G11
   3272893.83647   2558833.33644  21726686.7504                   21726685.1454
   5428389.66446   4238162.50043  23634849.7274                   23634848.4384
  -6405500.44147  -4946888.23045  21677614.0864                   21677610.9064
  -7489560.05946  -5802914.48043  23476025.4384                   23476023.3714
    670218.09046    540965.27742  24226221.8284                   24226221.1844
  -1257206.67247   -956887.63745  20210967.9454                   20210964.9614
   7831821.51246   6102356.94943  24245934.2814                   24245933.4264
  -3936778.46147  -3039570.22746  21018216.7034                   21018212.4384
   -298828.16046     73299.12942  24083092.5784                   24083092.1644
   4299630.87548   3361969.33245  21166332.5784                   21166327.5824
    -24399.21945    725454.78542  24170659.7734                   24170663.5594
 11  8 16 16 52 30.0000000  0 11G03G06G07G08G10G13G16G19G28G23G11
   3251497.09047   2542160.51644  21722614.9534                   21722613.5354
   5421313.81346   4232648.80543  23633502.3134                   23633501.9534
  -6549851.50447  -5059369.58245  21650144.8284                   21650141.6454
  -7651561.19546  -5929149.12543  23445197.9304                   23445196.1054
    615237.92246    498123.58642  24215761.3524                   24215759.5704
  -1322805.77347  -1008003.84045  20198484.9774                   20198481.5514
   7829121.35546   6100252.85243  24245421.1174                   24245419.8594
  -4029287.77747  -3111655.40646  21000612.8914                   21000609.0634
   -453661.35546    -47350.07843  24053627.7034                   24053627.7814
   4286347.78548   3351618.81345  21163804.8054                   21163800.2384
   -194570.418 5                  24138275.836
 11  8 16 16 53  0.0000000  0 11G03G06G07G08G10G13G16G19G28G23G11
   3230547.30947   2525835.96144  21718628.9384                   21718627.2114
   5414523.15246   4227357.28143  23632209.8284                   23632209.9614
  -6694148.53547  -5171808.82845  21622686.2344                   21622683.1484
  -7813643.30946  -6055446.85943  23414354.8834                   23414353.6334
    560568.28146    455523.78142  24205357.5474                   24205356.5274
  -1387844.49647  -1058683.40246  20186108.4774                   20186105.4144
   7826330.88346   6098078.35543  24244890.5944                   24244888.7504
  -4121207.58647  -3183281.24246  20983121.2814                   20983116.9574
   -608300.77346   -167848.34043  24024202.1334                   24024201.0274
   4273473.78547   3341587.05945  21161355.1414                   21161350.7584
   -364808.266 5                  24105882.734
 11  8 16 16 53 30.0000000  0 11G03G06G07G08G10G13G16G19G28G23G11
   3210042.63347   2509858.25044  21714727.1414                   21714725.2304
   5408016.22346   4222286.87943  23630972.4694                   23630971.2234
  -6838389.77747  -5284204.60245  21595237.7034                   21595235.0274
  -7975804.98846  -6181806.57043  23383495.7664                   23383495.0164
    506208.05546    413165.10942  24195013.2664                   24195012.4844
  -1452321.99247  -1108925.63346  20173838.4844                   20173835.7624
   7823450.00846   6095833.43043  24244341.8204                   24244340.4964
  -4212536.91847  -3254446.95345  20965742.1334                   20965737.6294
   -762745.82446   -288195.14143  23994811.6954                   23994811.8204
   4261007.26647   3331872.84045  21158982.5084                   21158978.6254
   -535109.336 5                  24073476.148
 11  8 16 16 54  0.0000000  0 11G03G06G07G08G10G13G16G19G28G23G11
   3189979.37547   2494224.50844  21710909.0084                   21710907.4774
   5401789.30146   4217434.70743  23629787.0474                   23629786.8754
  -6982575.05147  -5396556.72345  21567800.3364                   21567797.4654
  -8138046.71146  -6308228.67243  23352622.5634                   23352620.5554
    452153.75046    371044.82442  24184725.6724                   24184726.5784
  -1516240.03947  -1158731.93446  20161675.8204                   20161672.5864
   7820476.23046   6093516.11743  24243776.5234                   24243774.1294
  -4303276.45747  -3325153.10545  20948475.4144                   20948471.1484
   -916997.68746   -408391.39543  23965459.4144                   23965458.2934
   4248944.56647   3322473.28945  21156687.1484                   21156683.3204
   -705471.898 6                  24041057.625
 11  8 16 16 54 30.0000000  0 11G03G06G07G08G10G13G16G19G28G23G11
   3170351.76247   2478930.22344  21707173.8674                   21707172.2344
   5395836.02746   4212795.69543  23628654.3674                   23628654.0554
  -7126706.74647  -5508867.13745  21540372.8204                   21540369.8954
  -8300371.47346  -6434715.50043  23321733.6484                   23321730.8014
    398399.29346    329158.19142  24174496.9774                   24174498.0664
  -1579602.60547  -1208105.39546  20149618.2344                   20149615.5554
   7817404.78546   6091122.66043  24243192.3914                   24243189.4804
  -4393430.00447  -3395402.62145  20931319.5394                   20931314.8094
  -1071059.93446   -528439.86343  23936141.5234                   23936141.2274
   4237280.12947   3313384.07845  21154467.5704                   21154463.7114
   -875896.918 5                  24008627.305
 11  8 16 16 55  0.0000000  0 11G03G06G07G08G10G13G16G19G28G23G11
   3151157.96947   2463973.96944  21703521.3834                   21703519.9104
   5390155.27346   4208369.09443  23627573.7424                   23627572.5474
  -7270782.46147  -5621133.90645  21512955.8754                   21512953.5904
  -8462777.82846  -6561265.89143  23290828.7344                   23290826.4454
    344943.51646    287504.22742  24164325.3054                   24164325.8524
  -1642409.16047  -1257045.59446  20137666.7504                   20137663.6914
   7814235.57046   6088653.03143  24242588.6724                   24242587.5084
  -4482995.91047  -3465194.24245  20914275.5704                   20914271.0394
  -1224931.37946   -648339.69943  23906861.6094                   23906860.6844
   4226012.97747   3304604.41845  21152323.5314                   21152319.4884
  -1046380.40246    689205.30553  23976184.8204                   23976183.3484
 11  8 16 16 55 30.0000000  0 11G03G06G07G08G10G13G16G19G28G23G11
   3132396.07847   2449354.27344  21699951.5084                   21699949.8954
   5384745.28146   4204153.46943  23626545.0004                   23626543.5784
  -7414800.37147  -5733355.65245  21485550.4924                   21485547.6844
  -8625264.60246  -6687878.93043  23259908.0554                   23259906.1524
    291784.70746    246081.72742  24154210.1954                   24154210.1484
  -1704659.55547  -1305552.43046  20125820.6094                   20125817.3794
   7810968.43446   6086107.09843  24241966.9144                   24241965.6294
  -4571973.94947  -3534527.78545  20897343.2504                   20897338.8484
  -1378611.62546   -768090.48043  23877616.7114                   23877616.2544
   4215141.39548   3296132.98845  21150254.6884                   21150250.2854
  -1216919.06645    556318.09842  23943731.9614                   23943732.1174
 11  8 16 16 56  0.0000000  0 11G03G06G07G08G10G13G16G19G28G23G11
   3114064.09847   2435069.56344  21696463.2274                   21696461.4574
   5379603.64546   4200146.90243  23625566.8674                   23625564.9454
  -7558758.91047  -5845531.11345  21458155.8594                   21458153.4494
  -8787830.97347  -6814553.97343  23228972.9534                   23228970.9694
    238920.59446    204888.85543  24144149.5944                   24144150.4144
  -1766354.03147  -1353626.08246  20114080.4454                   20114077.0314
   7807602.23846   6083483.98843  24241327.0234                   24241325.2234
  -4660363.57447  -3603402.84045  20880523.6884                   20880519.1764
  -1532100.42246   -887692.07043  23848408.4844                   23848408.1214
   4204663.38347   3287968.24645  21148261.0314                   21148256.8054
  -1387509.95745    423390.22342  23911269.0394                   23911270.7194
 11  8 16 16 56 30.0000000  0 11G03G06G07G08G10G13G16G19G28G23G11
   3096157.94147   2421116.67244  21693055.3914                   21693053.6174
   5374726.48046   4196346.44543  23624638.8754                   23624637.3524
  -7702658.35947  -5957660.54345  21430773.0394                   21430770.3554
  -8950477.52747  -6941291.53944  23198022.3594                   23198019.8874
    186347.29346    163922.57043  24134145.6334                   24134146.0434
  -1827494.55547  -1401268.07846  20102446.0314                   20102443.0944
   7804134.51646   6080781.79743  24240666.7894                   24240665.3014
  -4748166.16447  -3671820.44145  20863815.1804                   20863810.9384
  -1685399.12146  -1007145.59043  23819237.3834                   23819236.4574
   4194574.87947   3280107.01245  21146341.6094                   21146336.8404
  -1558151.75445    290422.61342  23878796.8054                   23878799.4574
 11  8 16 16 57  0.0000000  0 11G03G06G07G08G10G13G16G19G28G23G11
   3078676.41047   2407494.67244  21689728.8754                   21689727.2424
   5370112.58646   4192751.12143  23623760.3284                   23623759.3244
  -7846495.84847  -6069741.69545  21403401.4534                   21403398.3554
  -9113202.43046  -7068090.13343  23167057.3754                   23167054.7154
    134063.34046    123181.77343  24124197.1334                   24124197.7504
  -1888080.42247  -1448477.87546  20090917.1724                   20090913.7384
   7800565.80546   6078000.86343  24239988.5554                   24239986.2504
  -4835380.23047  -3739779.46945  20847218.6174                   20847214.3834
  -1838506.41846  -1126449.97743  23790101.6804                   23790100.0314
   4184875.51647   3272549.00045  21144495.5084                   21144491.4614
  -1728840.23845    157418.70342  23846316.6024                   23846318.5164
 11  8 16 16 57 30.0000000  0 11G03G06G07G08G10G13G16G19G28G23G11
   3061616.36747   2394201.05944  21686482.4454                   21686480.9414
   5365759.15646   4189358.75043  23622932.0944                   23622930.9574
  -7990270.59447  -6181773.95745  21376042.5474                   21376038.7544
  -9276005.77746  -7194949.85543  23136076.0784                   23136074.4884
     82066.27046     82664.48843  24114301.3134                   24114303.3984
  -1948112.71147  -1495256.31246  20079493.5314                   20079490.3364
   7796894.68446   6075140.18443  24239290.2194                   24239287.5944
  -4922006.45747  -3807280.43445  20830734.5314                   20830730.2034
  -1991422.94546  -1245605.65243  23761002.8674                   23761001.1174
   4175561.93847   3265291.59045  21142723.7814                   21142719.6414
  -1899573.20345     24380.09842  23813826.5784                   23813828.3324
 11  8 16 16 58  0.0000000  0 11G03G06G07G08G10G13G16G19G28G23G11
   3044974.64147   2381233.44944  21683316.0004                   21683314.0944
   5361663.11746   4186166.94943  23622151.7734                   23622151.3134
  -8133981.82447  -6293756.72345  21348694.5554                   21348691.8404
  -9438887.24646  -7321870.43044  23105080.5164                   23105079.0474
     30352.97346     42368.29343  24104460.8984                   24104462.3634
  -2007592.67647  -1541604.37546  20068174.2034                   20068170.8284
   7793119.32046   6072198.24642  24238571.0004                   24238569.2274
  -5008045.55547  -3874323.89545  20814361.9614                   20814357.5744
  -2144149.30546  -1364613.19143  23731939.8834                   23731938.5314
   4166631.27347   3258332.57045  21141024.0944                   21141019.8794
  -2070348.16846   -108691.16842  23781329.2274                   23781330.5354
 11  8 16 16 58 30.0000000  0 11G03G06G07G08G10G13G16G19G28G23G11
   4604169.34847   3596190.30544  21980020.8134                   21980019.3524
   6933241.91446   5410773.74643  23921213.7344                   23921213.2854
  -6702203.87947  -5178085.58645  21621153.0394                   21621150.2274
  -8026420.63346  -6221247.06243  23373864.6414                   23373862.1174
   1554342.69146   1229892.67643  24394466.0474                   24394468.0514
   -491099.03547   -359921.04346  20356753.7584                   20356750.6294
   9364658.72746   7296774.32843  24537625.0164                   24537624.4224
  -3518074.82847  -2713307.75046  21097893.9844                   21097889.6764
   -721260.41846   -255868.57443  24002706.6174                   24002705.3324
   5733501.78147   4479270.55945  21439189.4454                   21439185.5234
   -665737.01245    985811.06642  24048617.3754                   24048618.6844
 11  8 16 16 59  0.0000000  0 11G03G06G07G08G10G13G16G19G28G23G11
   4588356.02047   3583868.18444  21977011.4144                   21977009.8324
   6929652.37146   5407976.63343  23920530.5084                   23920530.3674
  -6845785.25047  -5289967.16845  21593830.3524                   21593827.7234
  -8189457.09046  -6348288.44143  23342838.9924                   23342837.3984
   1503189.21946   1190032.71543  24384732.8284                   24384734.1604
   -549476.80947   -405410.25046  20345644.5004                   20345641.5274
   9360671.25446   7293667.11743  24536866.0634                   24536865.5984
  -3602940.46547  -2779436.82846  21081744.3754                   21081740.1484
   -873607.28946   -374580.37143  23973715.9924                   23973714.9414
   5725329.81647   4472902.74245  21437634.4694                   21437630.5394
   -836588.98046    852679.77342  24016105.3204                   24016107.4264
 11  8 16 16 59 30.0000000  0 11G03G06G07G08G10G13G16G19G28G23G11
   4572952.82447   3571865.63344  21974080.4844                   21974079.0044
   6926312.35546   5405373.89543  23919895.6484                   23919894.3094
  -6989299.48047  -5401796.43045  21566520.1954                   21566517.4844
  -8352570.19546  -6475389.54343  23311799.1254                   23311798.4964
   1452311.81345   1150387.87143  24375050.0634                   24375051.7234
   -607304.70347   -450470.96546  20334640.7034                   20334637.1954
   9356576.11346   7290476.00042  24536086.8134                   24536085.7934
  -3687219.45347  -2845108.78546  21065706.8834                   21065702.2974
  -1025764.48046   -493144.37543  23944761.0864                   23944760.3054
   5717533.69547   4466827.77345  21436150.7734                   21436146.3404
  -1007474.82445    719522.00042  23983586.9454                   23983588.5704
 11  8 16 17  0  0.0000000  0 11G03G06G07G08G10G13G16G19G28G23G11
   4557960.16847   3560183.00444  21971228.0554                   21971226.5314
   6923222.33646   5402966.04343  23919307.2894                   23919306.4224
  -7132742.43047  -5513570.17245  21539224.3834                   21539221.7194
  -8515756.32046  -6602547.53943  23280746.3364                   23280745.8444
   1401710.77045   1110958.39543  24365421.3364                   24365423.3094
   -664580.03547   -495101.12546  20323741.5554                   20323738.5514
   9352375.40245   7287202.57442  24535287.6254                   24535286.7814
  -3770909.08248  -2910321.48446  21049781.1024                   21049776.9064
  -1177729.34446   -611558.52743  23915843.4454                   23915842.3794
   5710113.62547   4461045.82845  21434738.8754                   21434734.9184
  -1178389.07045    586342.08242  23951061.9454                   23951065.2814
 11  8 16 17  0 30.0000000  0 11G03G06G07G08G10G13G16G19G28G23G11
   4543373.84447   3548816.98444  21968452.0004                   21968450.7194
   6920378.25446   5400749.77043  23918765.1484                   23918765.8834
  -7276114.09847  -5625288.34445  21511941.8054                   21511939.2734
  -8679016.44546  -6729763.18443  23249678.6884                   23249678.2774
   1351382.68046   1071741.66042  24355844.5554                   24355845.4144
   -721305.72747   -539302.98845  20312946.6644                   20312943.9494
   9348066.58646   7283845.00843  24534467.5944                   24534466.7384
  -3854010.92247  -2975076.17646  21033967.4304                   21033962.8984
  -1329503.45746   -729824.06643  23886962.0704                   23886961.1764
   5703065.93847   4455554.05945  21433397.8364                   21433393.8284
  -1349330.258 5                  23918533.398
 11  8 16 17  1  0.0000000  0 11G03G06G07G08G10G13G16G19G28G23G11
   4529191.79347   3537766.00044  21965753.2034                   21965751.8674
   6917778.02746   5398723.58243  23918271.0394                   23918271.3444
  -7419412.96147  -5736949.78945  21484672.7114                   21484669.7934
  -8842349.46946  -6857035.65243  23218597.8594                   23218596.6334
   1301324.60546   1032735.27343  24346319.1724                   24346319.1294
   -777482.07047   -583076.80146  20302257.0554                   20302254.0394
   9343648.99646   7280402.61743  24533627.2974                   24533626.2234
  -3936524.95748  -3039372.84046  21018266.1564                   21018261.1334
  -1481086.48446   -847940.69143  23858116.3284                   23858115.3404
   5696388.45747   4450350.74245  21432127.3444                   21432123.8054
  -1520295.441 5                  23886001.141
 11  8 16 17  1 30.0000000  0 11G03G06G07G08G10G13G16G19G28G23G11
   4515410.60547   3527027.36344  21963130.7814                   21963128.7974
   6915418.74646   5396885.10943  23917822.1024                   23917822.5204
  -7562637.83647  -5848553.57845  21457417.7034                   21457414.8324
  -9005754.36746  -6984364.12943  23187502.7894                   23187501.6914
   1251534.16846    993937.43843  24336844.1804                   24336844.9654
   -833110.02047   -626423.28946  20291671.2504                   20291668.4694
   9339121.50046   7276874.59443  24532766.3524                   24532764.1524
  -4018451.84048  -3103211.98046  21002675.4454                   21002670.9534
  -1632479.03146   -965908.91843  23829306.7814                   23829306.5234
   5690078.68447   4445433.95345  21430927.2424                   21430922.3444
  -1691282.05946    546377.38353  23853462.0234                   23853459.6484
 11  8 16 17  2  0.0000000  0 11G03G06G07G08G10G13G16G19G28G23G11
   4502031.13747   3516601.75444  21960584.7274                   21960583.0704
   6913301.17246   5395234.91442  23917419.7894                   23917419.5084
  -7705783.85247  -5960095.92645  21430177.7114                   21430175.1884
  -9169227.57046  -7111745.84443  23156394.8984                   23156393.6054
   1202012.17646    955348.75043  24327421.1484                   24327421.3134
   -888187.03547   -669340.47346  20281190.2114                   20281187.5824
   9334486.36346   7273262.69943  24531884.3834                   24531883.0044
  -4099788.23047  -3166591.00046  20987197.4224                   20987192.9924
  -1783677.71146  -1083726.03543  23800535.0944                   23800533.5354
   5684137.35947   4440804.28145  21429796.2344                   21429792.0984
  -1862283.81646    413129.31642  23820922.3444                   23820920.8524
 11  8 16 17  2 30.0000000  0 11G03G06G07G08G10G13G16G19G28G23G11
   4489048.34447   3506485.26244  21958113.9534                   21958112.5164
   6911420.42245   5393769.36742  23917061.7194                   23917061.9144
  -7848852.58247  -6071578.04345  21402952.6884                   21402950.1604
  -9332770.96146  -7239182.20744  23125273.9224                   23125272.3054
   1152753.82046    916965.51643  24318047.3204                   24318048.0984
   -942716.50047   -711830.99246  20270814.1564                   20270810.9384
   9329740.30946   7269564.39843  24530980.7894                   24530979.6564
  -4180537.51247  -3229512.52346  20971831.6644                   20971827.0634
  -1934685.48046  -1201394.44143  23771798.8284                   23771797.6374
   5678559.76647   4436458.01245  21428734.8054                   21428730.8524
  -2033300.21546    279869.84042  23788378.6414                   23788378.3054
 11  8 16 17  3  0.0000000  0 11G03G06G07G08G10G13G16G19G28G23G11
   4476461.86747   3496677.55944  21955718.9224                   21955717.7624
   6909776.30546   5392488.20742  23916748.3914                   23916748.7504
  -7991840.12547  -6182996.90645  21375743.5234                   21375740.4184
  -9496381.46146  -7366670.90644  23094140.1954                   23094138.4064
   1103758.60246    878787.34443  24308724.5234                   24308724.4264
   -996696.50047   -753893.35246  20260542.1804                   20260539.0044
   9324884.89146   7265780.87542  24530055.8754                   24530056.2664
  -4260697.42647  -3291974.80146  20956577.7424                   20956573.5204
  -2085499.92246  -1318912.16443  23743099.5634                   23743099.1954
   5673345.53547   4432394.90645  21427742.3754                   21427738.8054
  -2204326.12146    146602.94542  23755834.0864                   23755833.2034
 11  8 16 17  3 30.0000000  0 11G03G06G07G08G10G13G16G19G28G23G11
   4464270.08647   3487177.41044  21953399.4144                   21953398.3364
   6908367.50846   5391390.34443  23916480.5634                   23916481.3444
  -8134743.34047  -6294350.05545  21348550.1644                   21348547.2464
  -9660056.91847  -7494210.19543  23062992.5704                   23062991.9024
   1055025.31646    840813.24643  24299451.3524                   24299450.7974
  -1050127.53947   -795527.94946  20250374.0234                   20250371.2774
   9319920.06646   7261912.07043  24529111.8524                   24529112.1054
  -4340266.88347  -3353976.98446  20941436.2894                   20941432.1844
  -2236119.93446  -1436278.38743  23714437.5554                   23714437.3594
   5668493.34847   4428613.91845  21426819.3364                   21426815.3484
  -2375357.61745     13331.77742  23723287.8444                   23723286.7304
 11  8 16 17  4  0.0000000  0 11G03G06G07G08G10G13G16G19G28G23G11
   4452468.01247   3477980.94544  21951153.2974                   21951152.0124
   6907188.81346   5390471.81343  23916256.7974                   23916256.6374
  -8277564.01247  -6405638.89145  21321372.4614                   21321369.6414
  -9823799.37946  -7621801.73444  23031834.6094                   23031832.2034
   1006548.52746    803039.07443  24290226.7424                   24290226.7704
  -1103013.16447   -836737.55546  20240310.6414                   20240307.5124
   9314842.39146   7257955.32842  24528145.9614                   24528145.1414
  -4419249.07447  -3415521.56246  20926406.1724                   20926401.6914
  -2386548.53546  -1553495.43443  23685813.2974                   23685812.3524
   5663998.09047   4425111.04345  21425963.7424                   21425959.5664
  -2546394.73845   -119943.82042  23690739.7734                   23690739.8244
 11  8 16 17  4 30.0000000  0 11G03G06G07G08G10G13G16G19G28G23G11
   4441054.10247   3469086.92244  21948981.5474                   21948979.7664
   6906239.07046   5389731.68843  23916076.2734                   23916076.0124
  -8420299.34447  -6516861.22345  21294210.5944                   21294207.3794
  -9987606.72746  -7749443.79343  23000662.0944                   23000660.5474
    958327.20746    765463.93443  24281049.8284                   24281050.7544
  -1155352.81247   -877521.71946  20230350.5004                   20230347.4694
   9309652.27346   7253910.95342  24527159.0004                   24527157.1174
  -4497643.10247  -3476607.82846  20911488.8364                   20911483.6254
  -2536784.53946  -1670562.39143  23657223.3134                   23657223.2894
   5659858.80147   4421885.56345  21425176.5944                   21425172.8984
  -2717432.74646   -253220.21942  23658192.9774                   23658192.1174
 11  8 16 17  5  0.0000000  0 11G03G06G07G08G10G13G16G19G28G23G11
   4430025.77347   3460493.35944  21946882.6254                   21946881.1214
   6905515.95746   5389168.14143  23915939.1644                   23915939.3094
  -8562947.42247  -6628015.55945  21267065.0704                   21267062.2934
 -10151478.24646  -7877135.87543  22969478.3984                   22969477.4414
    910359.11346    728086.11343  24271920.8364                   24271922.6174
  -1207147.31247   -917881.09846  20220494.3364                   20220491.5784
   9304348.97345   7249778.40643  24526148.2194                   24526148.2584
  -4575449.37547  -3537236.09846  20896682.4304                   20896677.4884
  -2686828.05546  -1787479.43743  23628671.0554                   23628669.9384
   5656072.79347   4418935.34845  21424455.9064                   21424452.1374
  -2888468.82046   -386495.00442  23625645.4694                   23625645.4734
 11  8 16 17  5 30.0000000  0 11G03G06G07G08G10G13G16G19G28G23G11
   4419380.09447   3452197.96144  21944856.5004                   21944855.3794
   6905016.88746   5388779.19943  23915843.9144                   23915843.4694
  -8705507.07047  -6739100.98845  21239937.3524                   21239934.2234
 -10315412.99246  -8004877.22343  22938282.6174                   22938281.0704
    862641.31346    690903.35243  24262841.8054                   24262842.4384
  -1258397.70747   -957816.49646  20210741.7274                   20210739.1294
   9298931.68846   7245557.05942  24525118.3914                   24525117.6024
  -4652668.37547  -3597406.75845  20881988.0944                   20881983.4574
  -2836679.39546  -1904246.71943  23600155.0784                   23600153.8014
   5652637.69947   4416258.57845  21423802.6564                   21423798.3914
  -3059500.11746   -519766.07042  23593099.2344                   23593099.0204
 11  8 16 17  6  0.0000000  0 11G03G06G07G08G10G13G16G19G28G23G11
   4409112.09847   3444196.85244  21942903.1174                   21942901.7154
   6904737.09046   5388561.14543  23915790.1174                   23915789.6604
  -8847978.94147  -6850118.01645  21212825.5004                   21212822.8914
 -10479412.16046  -8132668.75843  22907075.1724                   22907073.3754
    815169.41446    653912.16042  24253807.3284                   24253808.6604
  -1309107.12947   -997330.36345  20201092.1954                   20201089.3524
   9293397.42246   7241244.55942  24524065.3594                   24524064.5744
  -4729302.69947  -3657121.82045  20867405.1254                   20867400.1214
  -2986340.52746  -2020865.71542  23571674.8284                   23571674.1294
   5649549.09047   4413851.80145  21423215.0474                   21423210.7114
  -3230525.92246   -653032.87142  23560554.1414                   23560553.6094
 11  8 16 17  6 30.0000000  0 11G03G06G07G08G10G13G16G19G28G23G11
   4399220.87147   3436489.35544  21941021.1334                   21941019.8794
   6904675.57846   5388513.11343  23915780.2734                   23915778.5704
  -8990360.13347  -6961064.38745  21185731.4694                   21185728.7704
 -10643473.55946  -8260508.78544  22875854.8204                   22875853.1134
    767942.25846    617111.69542  24244820.8834                   24244820.8204
  -1359274.95348  -1036422.21146  20191545.4614                   20191542.5984
   9287746.73845   7236841.39842  24522990.3834                   24522990.3914
  -4805351.30947  -3716380.48445  20852933.6884                   20852928.7234
  -3135810.50046  -2137335.78942  23543232.4144                   23543230.6454
   5646805.94947   4411714.22345  21422693.0004                   21422688.9384
  -3401541.74646   -786291.87142  23528009.9774                   23528010.4574
 11  8 16 17  7  0.0000000  0 11G03G06G07G08G10G13G16G19G28G23G11
   4389702.84047   3429072.62944  21939209.6334                   21939208.7934
   6904829.40246   5388632.92243  23915808.6954                   23915808.0044
  -9132649.84447  -7071939.48045  21158654.3134                   21158651.8444
 -10807596.70347  -8388396.93043  22844623.7344                   22844621.2154
    720956.47346    580499.34443  24235879.4614                   24235879.1174
  -1408903.24647  -1075093.66046  20182101.6884                   20182098.6604
   9281978.37145   7232346.48042  24521892.0704                   24521893.3634
  -4880815.48847  -3775183.75445  20838573.2664                   20838568.6764
  -3285090.32446  -2253657.68743  23514825.9534                   23514824.1374
   5644404.78547   4409843.10545  21422235.9224                   21422231.6174
  -3572545.39546   -919541.42242  23495468.9844                   23495468.6684
 11  8 16 17  7 30.0000000  0 11G03G06G07G08G10G13G16G19G28G23G11
   5955975.33247   4649544.65644  22237261.7974                   22237260.3164
   8480615.31646   6616517.99642  24215670.0004                   24215669.5204
  -7699422.15247  -5955138.67245  21431388.4384                   21431386.1644
  -9396355.94146  -7288728.82443  23113173.7274                   23113171.7304
   2249630.80546   1771674.04743  24526776.3524                   24526775.9734
    117427.88748    114255.24246  20472553.1174                   20472549.9614
  10851511.23045   8455358.91442  24820564.4144                   24820565.7894
  -3380273.50847  -2605930.26245  21124116.4384                   21124111.8324
  -1858755.59446  -1142228.02043  23786247.6024                   23786246.6094
   7217762.82447   5635836.30545  21721636.1884                   21721632.1914
  -2168108.63745    174824.95742  23762724.4224                   23762724.4024
 11  8 16 17  8  0.0000000  0 11G03G06G07G08G10G13G16G19G28G23G11
   5947192.74647   4642701.02044  22235590.4384                   22235589.1724
   8481188.87546   6616964.80943  24215779.9844                   24215779.1524
  -7841527.21547  -6065869.88745  21404347.1804                   21404344.1294
  -9560603.47346  -7416713.87544  23081917.9304                   23081916.8134
   2203117.36746   1735429.73843  24517925.9144                   24517925.3634
     68872.24248     76419.62945  20463313.5554                   20463310.0594
  10845501.81646   8450676.15642  24819420.8834                   24819421.9454
  -3454573.66847  -2663826.50445  21109977.6414                   21109973.2464
  -2007658.52046  -1258256.21943  23757912.4694                   23757911.1294
   7216035.16847   5634490.00845  21721307.6484                   21721303.4024
  -2339081.89845     41599.06642  23730189.3204                   23730189.7034
 11  8 16 17  8 30.0000000  0 11G03G06G07G08G10G13G16G19G28G23G11
   5938772.04347   4636139.39144  22233988.4924                   22233986.4804
   8481966.91046   6617571.00043  24215927.9384                   24215927.3594
  -7983539.49247  -6176528.80145  21377322.8284                   21377319.7814
  -9724913.70746  -7544747.80143  23050650.8754                   23050649.8404
   2156834.28946   1699364.88743  24509117.9454                   24509118.1454
     20849.91847     38999.59846  20454174.6024                   20454171.8634
  10839369.17646   8445897.39542  24818255.3984                   24818254.7194
  -3528294.29747  -2721271.15645  21095949.1484                   21095944.2704
  -2156374.92646  -1374139.09043  23729612.6724                   23729611.2544
   7214638.61347   5633401.69145  21721041.5164                   21721037.3754
  -2510037.258 5                  23697657.852
 11  8 16 17  9  0.0000000  0 11G03G06G07G08G10G13G16G19G28G23G11
   5930711.61347   4629858.47744  22232454.3984                   22232452.9104
   8482948.55146   6618335.80943  24216114.8204                   24216114.3054
  -8125456.10247  -6287113.16845  21350317.0084                   21350314.2034
  -9889284.42646  -7672828.85943  23019372.3524                   23019370.5744
   2110780.54746   1663478.70343  24500354.2194                   24500354.8524
    -26639.06648      1995.15646  20445137.8444                   20445135.0164
  10833113.59046   8441022.81642  24817064.3674                   24817064.8204
  -3601434.69947  -2778263.69145  21082031.0864                   21082026.5164
  -2304903.76646  -1489875.80543  23701348.7584                   23701348.0864
   7213572.20347   5632570.63345  21720838.5474                   21720834.6214
  -2680970.461 6                  23665130.891
 11  8 16 17  9 30.0000000  0 11G03G06G07G08G10G13G16G19G28G23G11
   5923009.35947   4623856.65644  22230988.9384                   22230987.6174
   8484131.15646   6619257.25042  24216339.8594                   24216339.4804
  -8267275.10547  -6397621.47345  21323329.7194                   21323326.6954
 -10053714.60546  -7800956.25044  22988081.9614                   22988080.5004
   2064953.83646   1627769.49243  24491633.8914                   24491635.1094
    -73595.71147    -34594.48046  20436202.7664                   20436199.7274
  10826734.62546   8436052.11342  24815850.0704                   24815851.6764
  -3673995.49247  -2834804.58245  21068223.8674                   21068218.7234
  -2453245.28146  -1605466.54743  23673120.1804                   23673119.4024
   7212833.33647   5631994.81645  21720698.0554                   21720694.3984
  -2851878.37146    -92479.44952  23632608.9384                   23632606.5824
 11  8 16 17 10  0.0000000  0 11G03G06G07G08G10G13G16G19G28G23G11
   5915659.41047   4618129.36344  22229589.8914                   22229589.1024
   8485509.48846   6620331.17243  24216602.1724                   24216601.9264
  -8408997.86747  -6508054.78945  21296360.8204                   21296358.1804
 -10218206.05947  -7929131.36344  22956780.5784                   22956779.2424
   2019348.46146   1592232.71143  24482955.9924                   24482956.8634
   -120024.21547    -70772.56246  20427367.3204                   20427364.7894
  10820228.85246   8430982.62542  24814611.9694                   24814613.4064
  -3745980.21547  -2890896.58645  21054525.0314                   21054520.0744
  -2601402.40646  -1720913.62943  23644926.3834                   23644925.8164
   7212416.75047   5631670.12945  21720619.2344                   21720614.9614
  -3022760.78146   -225634.53542  23600090.5084                   23600088.9184
 11  8 16 17 10 30.0000000  0 11G03G06G07G08G10G13G16G19G28G23G11
   5908658.06347   4612673.71944  22228258.0944                   22228256.3134
   8487080.34446   6621555.19142  24216901.0944                   24216900.8014
  -8550623.57047  -6618412.48045  21269410.2034                   21269407.7114
 -10382758.61347  -8057354.12144  22925467.6804                   22925465.6684
   1973961.02746   1556865.76243  24474318.8914                   24474320.3554
   -165926.47347   -106540.60246  20418632.2894                   20418629.2584
  10813594.72345   8425813.00042  24813349.6484                   24813350.8914
  -3817390.35247  -2946540.86345  21040936.4384                   21040931.7504
  -2749376.39847  -1836218.03543  23616768.8134                   23616766.9534
   7212319.21147   5631594.04345  21720598.7814                   21720596.1524
  -3193615.44946   -358767.96942  23567577.6254                   23567576.5044
 11  8 16 17 11  0.0000000  0 11G03G06G07G08G10G13G16G19G28G23G11
   5902003.03147   4607487.93844  22226991.6564                   22226990.1134
   8488841.37546   6622927.32442  24217236.4064                   24217235.0864
  -8692150.37947  -6728693.11345  21242478.6804                   21242476.0044
 -10547370.52347  -8185623.12144  22894143.0864                   22894141.1134
   1928789.38746   1521667.00043  24465723.1094                   24465725.2854
   -211303.69948   -141899.51645  20409997.2114                   20409994.5354
  10806831.76245   8420543.11742  24812062.2114                   24812063.7384
  -3888226.14547  -3001737.59845  21027456.5314                   21027452.1764
  -2897167.15247  -1951379.68043  23588644.7814                   23588643.2234
   7212538.15247   5631764.55145  21720641.8754                   21720638.2234
  -3364439.29346   -491877.39843  23535070.9694                   23535069.6804
 11  8 16 17 11 30.0000000  0 11G03G06G07G08G10G13G16G19G28G23G11
   5895691.25846   4602569.61344  22225789.8984                   22225788.5164
   8490790.04746   6624445.65242  24217607.4534                   24217607.0554
  -8833577.16847  -6838895.80145  21215566.1094                   21215563.1294
 -10712041.59847  -8313938.22744  22862806.8754                   22862805.7384
   1883830.28946   1486633.82842  24457166.8674                   24457169.2734
   -256157.45348   -176850.53546  20401462.4844                   20401459.4024
  10799938.88745   8415171.98442  24810750.8134                   24810752.3794
  -3958489.04747  -3056487.93045  21014085.7664                   21014081.2464
  -3044774.96146  -2066398.72344  23560555.4454                   23560554.6644
   7213070.69147   5632179.44545  21720743.2734                   21720740.0704
  -3535229.44546   -624960.52043  23502571.8284                   23502569.8404
 11  8 16 17 12  0.0000000  0 11G03G06G07G08G10G13G16G19G28G23G11
   5889722.24247   4597918.38744  22224654.0164                   22224653.2234
   8492925.95346   6626109.96942  24218012.7894                   24218013.1294
  -8974899.88347  -6949017.39845  21188673.1414                   21188670.3444
 -10876768.91047  -8442297.15244  22831460.8984                   22831459.1024
   1839083.34046   1451765.99643  24448652.9224                   24448653.6214
   -300486.32048   -211392.54745  20393026.7664                   20393023.7854
  10792917.59045   8409700.66842  24809414.7974                   24809416.6414
  -4028177.37547  -3110790.53545  21000824.9844                   21000820.0664
  -3192198.22346  -2181273.97344  23532502.1564                   23532501.3054
   7213916.54347   5632838.46945  21720904.5784                   21720900.8714
  -3705980.67246   -758013.41843  23470077.2274                   23470076.5274
 11  8 16 17 12 30.0000000  0 11G03G06G07G08G10G13G16G19G28G23G11
   5884091.80547   4593530.97344  22223583.1484                   22223581.9964
   8495245.18446   6627917.01642  24218453.8444                   24218455.5864
  -9116118.57447  -7059057.93445  21161800.6564                   21161797.4454
 -11041552.60247  -8570700.02344  22800102.9144                   22800101.7974
   1794544.96146   1417060.67642  24440177.4224                   24440178.1134
   -344293.15648   -245527.79346  20384690.5554                   20384687.3754
  10785766.02345   8404127.96142  24808054.8364                   24808056.1484
  -4097293.41447  -3164647.21546  20987672.2034                   20987667.8444
  -3339438.37546  -2296006.53543  23504483.2034                   23504482.0634
   7215071.78147   5633738.56645  21721124.6564                   21721121.1804
  -3876691.54346   -891034.82443  23437591.8284                   23437591.6994
 11  8 16 17 13  0.0000000  0 11G03G06G07G08G10G13G16G19G28G23G11
   5878795.90646   4589404.25444  22222575.6884                   22222573.8874
   8497743.91446   6629864.05142  24218930.2344                   24218930.8914
  -9257233.05147  -7169017.27345  21134946.8754                   21134943.8244
 -11206392.78147  -8699146.89544  22768734.7424                   22768733.1134
   1750211.11746   1382514.70742  24431741.6724                   24431741.2034
   -387580.94548   -279258.58246  20376453.4694                   20376449.9534
  10778482.05545   8398451.98042  24806669.0394                   24806669.8634
  -4165839.59047  -3218059.84446  20974628.6954                   20974624.3634
  -3486497.17646  -2410597.80143  23476498.2424                   23476497.5004
   7216532.21947   5634876.47745  21721402.4614                   21721398.7544
  -4047360.16446  -1024023.30542  23405114.9144                   23405113.8284
 11  8 16 17 13 30.0000000  0 10G03G06G07G08G10G13G19G28G23G11
   5873832.59847   4585536.69944  22221630.9304                   22221629.5124
   8500420.68046   6631949.75442  24219439.9924                   24219439.5744
  -9398240.47347  -7278893.18045  21108114.3914                   21108111.6764
 -11371287.48847  -8827636.25444  22737356.3674                   22737355.0004
   1706080.23846   1348126.90643  24423343.8914                   24423343.6724
   -430350.10247   -312585.25446  20368314.3754                   20368311.8094
  -4233815.41847  -3271028.04746  20961693.3284                   20961688.7814
  -3633374.11347  -2525047.33643  23448549.3204                   23448547.8284
   7218296.44947   5636251.10245  21721738.5394                   21721734.9694
  -4217982.57046  -1156975.75442  23372645.6174                   23372646.2934
 11  8 16 17 14  0.0000000  0 10G03G06G07G08G10G13G19G28G23G11
   5869202.01247   4581928.38344  22220749.9774                   22220748.5824
   8503276.20346   6634174.72342  24219983.8834                   24219983.0664
  -9539136.20347  -7388682.06245  21081302.3754                   21081299.7624
 -11536233.17647  -8956165.34844  22705968.7974                   22705966.7194
   1662152.44946   1313897.35242  24414984.2974                   24414985.1724
   -472598.82447   -345506.38346  20360275.0004                   20360272.1914
  -4301219.08247  -3323550.39846  20948866.8204                   20948862.5474
  -3780066.37146  -2639352.95343  23420634.2814                   23420633.3594
   7220364.74647   5637862.66445  21722132.2424                   21722128.3094
  -4388552.73845  -1289887.54742  23340187.5784                   23340188.0554
 11  8 16 17 14 30.0000000  0 10G03G06G07G08G10G13G19G28G23G11
   5864901.56647   4578577.32844  22219931.0314                   22219930.1374
   8506307.95746   6636537.05142  24220560.1954                   24220560.3364
  -9679918.62547  -7498382.65646  21054512.7194                   21054510.1684
 -11701228.23447  -9084732.91444  22674570.9774                   22674568.7504
   1618425.07846   1279823.96142  24406665.4534                   24406664.7584
   -514328.12547   -378022.76646  20352334.5554                   20352331.3284
  -4368051.31647  -3375627.48446  20936149.0164                   20936144.5554
  -3926574.05546  -2753514.77743  23392754.0864                   23392754.1024
   7222734.68847   5639709.27745  21722583.1174                   21722579.2734
  -4559067.78545  -1422756.33242  23307739.1804                   23307739.4384
 11  8 16 17 15  0.0000000  0 10G03G06G07G08G10G13G19G28G23G11
   5860935.46946   4575486.81643  22219176.7664                   22219175.1294
   8509520.44946   6639040.17242  24221171.0084                   24221172.6764
  -9820579.23847  -7607988.33246  21027745.8444                   21027743.2074
 -11866264.68047  -9213332.73044  22643166.1094                   22643163.5164
   1574902.49246   1245910.12142  24398382.2584                   24398383.8164
   -555532.90247   -410130.42245  20344493.1484                   20344490.5864
  -4434306.03947  -3427254.55946  20923541.1254                   20923536.8324
  -4072890.93746  -2867527.93043  23364911.6954                   23364910.8954
   7225410.18447   5641793.98445  21723091.9064                   21723088.7974
  -4729517.62145  -1555574.32042  23275303.4844                   23275304.4384
 11  8 16 17 15 30.0000000  0 10G03G06G07G08G10G13G19G28G23G11
   7432721.35246   5800254.99643  22518277.7274                   22518276.4344
  10088331.23446   7869282.28942  24521609.2034                   24521610.4344
  -8385691.24247  -6489893.76646  21300795.8594                   21300793.2584
 -10455915.96547  -8114359.68744  22911546.0474                   22911544.2274
   3107003.86746   2439755.24642  24689931.3444                   24689933.2234
    979207.00047    785770.76245  20636544.0634                   20636542.0474
  -2924562.00847  -2250830.65645  21210835.8594                   21210831.4844
  -2643592.03146  -1753788.47343  23636897.4774                   23636897.1484
   8803808.82847   6871714.90245  22023451.4534                   22023447.9694
  -3324473.16846   -460734.40642  23542674.9774                   23542675.3634
 11  8 16 17 16  0.0000000  0 10G03G06G07G08G10G13G19G28G23G11
   7429419.15646   5797681.78543  22517649.2974                   22517648.2424
  10091901.227 5                  24522288.563
  -8526099.41847  -6599302.74246  21274077.3914                   21274074.2274
 -10621028.84847  -8243019.04744  22880126.0234                   22880123.9734
   3063886.77346   2406157.39142  24681725.1414                   24681728.6134
    939050.59047    754480.01646  20628902.7974                   20628900.4414
  -2989661.36747  -2301557.46146  21198448.0944                   21198443.7424
  -2789524.26646  -1867501.85943  23609127.3754                   23609127.5944
   8807091.44947   6874272.69945  22024076.1484                   22024073.0394
  -3494779.68046   -593440.72343  23510266.5634                   23510266.2074
 11  8 16 17 16 30.0000000  0 10G03G06G07G08G10G13G19G28G23G11
   7426445.30546   5795364.43843  22517083.3754                   22517082.1414
  10095646.797 5                  24523001.391
  -8666378.34048  -6708611.00446  21247383.0084                   21247379.9924
 -10786177.70347  -8371706.44944  22848699.1644                   22848696.9774
   3020968.93045   2372714.82842  24673558.0944                   24673561.9574
    899416.73047    723596.45346  20621360.9304                   20621358.5784
  -3054184.11347  -2351834.94146  21186169.3594                   21186165.4344
  -2935264.23846  -1981065.39843  23581394.9064                   23581393.7034
   8810674.25447   6877064.39545  22024757.8134                   22024754.2854
  -3665009.34046   -726087.09443  23477873.5944                   23477872.7854
 11  8 16 17 17  0.0000000  0 10G03G06G07G08G10G13G19G28G23G11
   7423795.21147   5793299.39143  22516578.9694                   22516578.0354
  10099563.625 6                  24523746.328
  -8806528.48047  -6817818.90246  21220713.3444                   21220709.9384
 -10951363.54347  -8500422.66444  22817265.0944                   22817263.5204
   2978245.78915                  24665428.227
    860301.87947    693117.30146  20613917.4224                   20613914.9844
  -3118133.18747  -2401665.41046  21174000.8444                   21173996.0474
  -3080814.21146  -2094480.92243  23553697.5784                   23553696.5594
   8814552.66047   6880086.43445  22025496.0394                   22025492.7854
  -3835161.18746   -858672.90243  23445495.1884                   23445493.4024
 11  8 16 17 17 30.0000000  0 10G03G06G07G08G10G13G19G28G23G11
   7421462.22747   5791481.44143  22516135.4384                   22516133.9924
  10103646.207 6                  24524524.406
  -8946551.06648  -6926927.41446  21194067.5554                   21194064.8404
 -11116588.25047  -8629169.16444  22785824.2584                   22785822.7734
   2935711.641 5                  24657335.547
    821701.35948    663038.93846  20606572.2344                   20606569.6724
  -3181512.67247  -2451052.04746  21161939.8284                   21161935.9804
  -3226177.51246  -2207750.96943  23526035.4844                   23526034.3094
   8818720.93847   6883334.34845  22026289.4224                   22026286.2624
  -4005235.33246   -991198.13743  23413130.9144                   23413128.9454
 11  8 16 17 18  0.0000000  0 10G03G06G07G08G10G13G19G28G23G11
   7419448.27747   5789912.08243  22515752.3984                   22515750.8984
  10107895.938 6                  24525332.633
  -9086440.47748  -7035932.14146  21167448.0164                   21167444.6604
 -11281846.66047  -8757941.93744  22754375.9454                   22754375.2544
   2893367.320 5                  24649276.750
    783617.66048    633363.27346  20599325.5704                   20599322.8094
  -3244319.86747  -2499992.74646  21149988.1724                   21149983.5274
  -3371350.73046  -2320872.90643  23498409.2504                   23498408.7384
   8823180.17247   6886808.97745  22027138.1804                   22027134.5634
  -4175224.51246  -1123657.19543  23380783.2424                   23380781.3404
 11  8 16 17 18 30.0000000  0 10G03G06G07G08G10G13G19G28G23G11
   7417747.99647   5788587.14143  22515428.4614                   22515427.9304
  10112308.023 6                  24526173.078
  -9226197.03948  -7144833.35546  21140852.6414                   21140849.8754
 -11447140.16047  -8886742.05544  22722922.7504                   22722920.7424
   2851208.176 5                  24641254.477
    746046.73448    604087.18046  20592176.0004                   20592173.3014
  -3306558.30147  -2548490.23445  21138144.4614                   21138139.7584
  -3516336.73046  -2433848.96943  23470819.9384                   23470819.0274
   8827925.05147   6890506.17245  22028041.0864                   22028038.0354
  -4345128.07846  -1256049.57443  23348451.3594                   23348449.6214
 11  8 16 17 19  0.0000000  0 10G03G06G07G08G10G13G19G28G23G11
   7416357.27347   5787503.41043  22515163.5164                   22515162.6094
  10116879.340 5                  24527041.695
  -9365820.44548  -7253630.82446  21114283.7734                   21114280.5084
 -11612468.44147  -9015569.25444  22691462.0944                   22691459.6724
   2809230.69146   2322177.38353  24633267.3364                   24633266.9614
    708986.49247    575209.02046  20585123.4924                   20585120.8164
  -3368229.89847  -2596546.04745  21126409.0394                   21126404.5234
  -3661136.69546  -2546680.03943  23443264.7734                   23443264.2734
   8832952.33247   6894423.44145  22028997.8524                   22028994.8594
  -4514944.00046  -1388373.60243  23316135.9614                   23316134.5234
 11  8 16 17 19 30.0000000  0 10G03G06G07G08G10G13G19G28G23G11
   7415274.88746   5786659.93043  22514957.1564                   22514956.3244
  10121608.258 5                  24527942.266
  -9505307.82848  -7362322.28146  21087740.0474                   21087737.1174
 -11777829.35247  -9144421.91844  22659994.3984                   22659991.6604
   2767432.96546   2289607.64543  24625313.2194                   24625313.7344
    672435.74248    546727.86746  20578168.4614                   20578165.5474
  -3429334.72747  -2644160.21945  21114780.9534                   21114776.7624
  -3805750.14846  -2659365.78543  23415746.3834                   23415745.3554
   8838260.18047   6898559.30145  22030007.8674                   22030004.9264
  -4684668.23046  -1520626.21543  23283838.9384                   23283837.5164
 11  8 16 17 20  0.0000000  0 10G03G06G07G08G10G13G19G28G23G11
   7414497.37546   5786053.99643  22514810.3674                   22514807.8014
  10126491.723 5                  24528871.281
  -9644658.19148  -7470906.98046  21061222.8834                   21061219.5434
 -11943222.28147  -9273299.50044  22628520.9924                   22628519.0004
   2725812.09046   2257175.68843  24617393.1644                   24617393.7274
    636392.54348    518642.20745  20571309.3054                   20571306.7974
  -3489874.63347  -2691334.18745  21103260.5234                   21103256.9384
  -3950177.78547  -2771906.75043  23388263.6564                   23388261.6024
   8843845.35547   6902911.27745  22031070.7424                   22031067.2584
  -4854298.10546  -1652805.28542  23251558.9144                   23251558.0004
 11  8 16 17 20 30.0000000  0 10G03G06G07G08G10G13G19G28G23G11
   7414020.81647   5785682.58643  22514719.9614                   22514717.7854
  10131526.543 5                  24529830.625
  -9783870.33248  -7579383.97746  21034731.5314                   21034728.3444
 -12108646.73847  -9402201.66044  22597042.0474                   22597040.1954
   2684364.08246   2224878.37943  24609505.7664                   24609507.5204
    600854.34047    490950.05945  20564546.3284                   20564544.2734
  -3549851.39547  -2738069.34445  21091847.4924                   21091843.0044
  -4094421.06647  -2884304.05944  23360814.4774                   23360812.7854
   8849704.34447   6907476.57444  22032185.9614                   22032182.2384
  -5023831.51246  -1784909.22343  23219297.4534                   23219296.4184
 11  8 16 17 21  0.0000000  0 10G03G06G07G08G10G13G19G28G23G11
   7413843.23846   5785544.14543  22514685.1954                   22514683.3244
  10136711.039 6                  24530816.727
  -9922941.87548  -7687751.42246  21008266.8444                   21008263.7304
 -12274100.82046  -9531126.87944  22565556.6484                   22565555.0204
   2643086.99646   2192714.25843  24601651.3364                   24601652.7034
    565820.51648    463650.93045  20557879.7274                   20557877.2624
  -3609265.97747  -2784366.44545  21080541.0474                   21080536.8094
  -4238479.48847  -2996557.31644  23333400.9384                   23333399.1644
   8855835.35547   6912253.86344  22033352.9454                   22033349.2384
  -5193264.32046  -1916934.71943  23187056.1884                   23187054.7704
 11  8 16 17 21 30.0000000  0 10G03G06G07G08G10G13G19G28G23G11
   7413963.00046   5785637.39543  22514708.8364                   22514706.4144
  10142043.938 5                  24531831.672
 -10061869.96148  -7796007.07446  20981829.6884                   20981826.4774
 -12439582.24646  -9660073.43744  22534066.9384                   22534064.9804
   2601979.80546   2160682.59842  24593828.9224                   24593829.7424
    531290.05147    436744.03945  20551309.1094                   20551306.2664
  -3668118.62547  -2830225.66445  21069342.1334                   21069337.7464
  -4382352.50046  -3108666.08643  23306022.1644                   23306021.2894
   8862236.68047   6917241.78544  22034570.9224                   22034567.5554
  -5362592.52046  -2048878.76643  23154834.3444                   23154832.4064
 11  8 16 17 22  0.0000000  0 10G03G06G07G08G10G13G19G28G23G11
   7414375.83646   5785959.03143  22514786.5944                   22514785.4614
  10147521.105 5                  24532873.266
 -10200654.39848  -7904150.79346  20955419.7114                   20955416.6884
 -12605091.53946  -9789041.70344  22502571.2034                   22502569.5824
   2561037.73846   2128779.56642  24586037.0084                   24586038.9574
    497259.52347    410226.69945  20544833.4844                   20544830.8594
  -3726412.09847  -2875649.16045  21058249.1334                   21058244.3324
  -4526042.36746  -3220632.14543  23278679.0784                   23278678.5594
   8868903.50847   6922436.60544  22035839.2664                   22035836.0274
  -5531814.75446  -2180740.17642  23122632.3204                   23122630.3284
 11  8 16 17 22 30.0000000  0 10G03G06G07G08G10G13G19G28G23G11
   7415078.09846   5786506.20343  22514921.0004                   22514919.6094
  10153139.469 5                  24533943.031
 -10339294.39148  -8012181.96546  20929037.3204                   20929034.6334
 -12770628.16846  -9918031.27044  22471070.3204                   22471069.2304
   2520257.73446   2097002.78543  24578277.2894                   24578279.4614
    463726.51647    384097.03545  20538452.0944                   20538449.5354
  -3784148.22747  -2920638.38745  21047262.2584                   21047257.6564
  -4669549.98446  -3332456.18443  23251370.1024                   23251369.7934
   8875832.90247   6927836.01244  22037158.8204                   22037154.9344
  -5700928.59346  -2312517.14343  23090450.9454                   23090449.2814
 11  8 16 17 23  0.0000000  0 10G03G06G07G08G10G13G19G28G23G11
   7416065.72746   5787275.69143  22515109.1644                   22515107.4654
  10158895.582 5                  24535037.281
 -10477789.03548  -8120099.87546  20902682.7664                   20902680.1024
 -12936191.89846 -10047041.97744  22439564.4924                   22439562.9144
   2479635.70746   2065349.14143  24570547.9304                   24570549.3754
    430688.41447    358353.02345  20532165.4224                   20532163.2814
  -3841329.78147  -2965195.46945  21036381.1024                   21036376.6684
  -4812877.00446  -3444139.58243  23224096.4614                   23224094.8244
   8883020.84847   6933436.87144  22038526.4304                   22038523.1914
  -5869931.86746  -2444207.94943  23058289.3914                   23058289.2464
 11  8 16 17 23 30.0000000  0 10G03G06G07G08G10G13G19G28G23G11
   7417334.71546   5788264.44143  22515350.1644                   22515348.9454
  10164785.625 5                  24536158.109
 -10616137.86748  -8227904.16846  20876356.2424                   20876353.0164
 -13101782.57446 -10176073.65644  22408053.8674                   22408052.2664
   2439167.74246   2033815.52743  24562846.8054                   24562849.1914
    398142.25847    332992.33245  20525972.0944                   20525969.6684
  -3897959.25047  -3009322.34445  21025604.4224                   21025600.5314
  -4956025.02747  -3555683.43444  23196855.1094                   23196854.7584
   8890463.29747   6939236.03944  22039942.5784                   22039939.3444
  -6038822.66446  -2575811.18443  23026151.1414                   23026150.5784
 11  8 16 17 24  0.0000000  0 10G03G06G07G08G10G13G19G28G23G11
   8994303.38746   7017071.12543  22815437.6954                   22815436.3324
  11746228.305 5                  24837097.609
  -9178913.48848  -7107989.06646  21149850.8364                   21149847.7464
 -11691972.63346  -9077520.44144  22676331.8134                   22676329.5394
   3974273.92646   3230002.04343  24854968.1884                   24854970.3594
   1941508.13347   1535615.05145  20819664.7894                   20819662.1334
  -2378614.82047  -1825417.61345  21314726.5784                   21314722.3204
  -3523568.50447  -2439483.49644  23469444.0394                   23469442.6254
  10473578.35247   8172832.04744  22341200.0474                   22341195.9804
  -4632171.17646  -1479719.12542  23293827.4694                   23293826.8634
 11  8 16 17 24 30.0000000  0 10G03G06G07G08G10G13G19G28G23G11
   8996128.80546   7018493.50443  22815785.2344                   22815782.9384
  11752381.238 5                  24838269.141
  -9316963.53148  -7215560.53946  21123580.5864                   21123577.8014
 -11857611.89846  -9206589.99244  22644811.8444                   22644809.7464
   3934108.14146   3198703.89143  24847325.8524                   24847327.3834
   1909941.69147   1511017.76645  20813658.1564                   20813655.6564
  -2434142.21947  -1868685.74245  21304159.9454                   21304155.9924
  -3666357.98846  -2550747.97344  23442272.2194                   23442269.8874
  10481523.57447   8179022.99244  22342711.2734                   22342707.7074
  -4800826.22746  -1611138.61742  23261734.3754                   23261732.9264
 11  8 16 17 25  0.0000000  0 10G03G06G07G08G10G13G19G28G23G11
   8998225.82046   7020127.44943  22816184.2974                   22816182.6174
  11758659.773 5                  24839463.672
  -9454863.60548  -7323015.18446  21097339.2974                   21097336.6884
 -12023275.67647  -9335678.63344  22613286.9534                   22613284.9494
   3894087.08646   3167518.50843  24839709.5394                   24839711.2894
   1878860.20747   1486798.37145  20807743.3594                   20807740.8554
  -2489123.08647  -1911527.99645  21293697.5004                   21293693.4614
  -3808971.18746  -2661875.07443  23415132.4844                   23415131.5634
  10489713.87547   8185404.93044  22344270.1024                   22344266.6134
  -4969360.59446  -1742464.08243  23229663.2664                   23229662.0164
 11  8 16 17 25 30.0000000  0 10G03G06G07G08G10G13G19G28G23G11
   9000593.78546   7021972.59043  22816635.1094                   22816633.5944
  11765063.359 5                  24840681.461
  -9592610.13348  -7430350.12146  21071126.8594                   21071124.1954
 -12188960.50047  -9464783.68044  22581758.8914                   22581756.0044
   3854209.79746   3136445.13743  24832121.7274                   24832122.9024
   1848263.93048   1462957.07045  20801921.0164                   20801918.5234
  -2543556.82047  -1953943.91845  21283338.8204                   21283335.0164
  -3951406.73846  -2772863.73043  23388028.1174                   23388026.5634
  10498148.47347   8191977.19944  22345875.0784                   22345872.5984
  -5137769.55946  -1873691.78943  23197616.5314                   23197614.5904
 11  8 16 17 26  0.0000000  0 10G03G06G07G08G10G13G19G28G23G11
   9003230.03546   7024026.71943  22817136.6334                   22817135.0904
  11771590.12515                  24841923.875
  -9730200.77348  -7537563.60946  21044944.4144                   21044941.4804
 -12354664.94147  -9593904.01644  22550225.5234                   22550224.1294
   3814474.29346   3105482.26243  24824560.7274                   24824561.7074
   1818151.08247   1439492.45745  20796190.9844                   20796188.2194
  -2597444.27747  -1995934.16445  21273084.7734                   21273080.6334
  -4093664.53146  -2883713.91043  23360957.9924                   23360956.2464
  10506824.83247   8198737.86744  22347526.1804                   22347523.6094
  -5306049.47746  -2004818.96543  23165593.9224                   23165591.8444
 11  8 16 17 26 30.0000000  0 10G03G06G07G08G10G13G19G28G23G11
   9006130.07446   7026286.38343  22817688.3444                   22817687.8404
  11778235.723 5                  24843188.813
  -9867635.37548  -7644655.51646  21018791.2584                   21018788.7704
 -12520389.69547  -9723040.18044  22518689.5864                   22518688.2274
   3774876.00046   3074626.30543  24817025.2424                   24817026.6604
   1788518.28947   1416401.92645  20790551.8674                   20790549.5434
  -2650789.40647  -2037501.83245  21262933.6724                   21262928.9884
  -4235747.15247  -2994427.59443  23333920.6484                   23333918.6374
  10515738.18447   8205683.22744  22349222.5234                   22349220.0474
  -5474199.37146  -2135844.81243  23133595.7734                   23133593.9884
 11  8 16 17 27  0.0000000  0 10G03G06G07G08G10G13G19G28G23G11
   9009294.79746   7028752.29343  22818291.1954                   22818289.4104
  11785001.445 5                  24844476.500
 -10004908.99248  -7751621.97346  20992668.7194                   20992666.0474
 -12686129.61347  -9852188.16044  22487150.3134                   22487148.7114
   3735415.87946   3043878.05142  24809515.1254                   24809517.7704
   1759366.96947   1393686.54745  20785004.7664                   20785002.2074
  -2703589.74647  -2078644.98045  21252885.6724                   21252881.3524
  -4377651.36347  -3105002.23443  23306916.7504                   23306914.4654
  10524889.53947   8212814.01244  22350964.7424                   22350961.8324
  -5642212.24646  -2266763.91443  23101623.4144                   23101622.5944
 11  8 16 17 27 30.0000000  0 10G03G06G07G08G10G13G19G28G23G11
   9012718.93846   7031420.41043  22818942.6414                   22818941.1334
  11791882.457 5                  24845785.938
 -10142022.66448  -7858463.79346  20966576.8524                   20966574.1094
 -12851885.68747  -9981348.73844  22455607.2114                   22455605.8014
   3696088.58645   3013233.24642  24802032.1414                   24802033.8014
   1730692.57447   1371342.80545  20779548.0944                   20779545.9144
  -2755849.20347  -2119366.66845  21242941.4534                   21242937.1254
  -4519379.91047  -3215440.04343  23279946.8444                   23279944.6334
  10534273.73847   8220126.23845  22352750.2504                   22352747.6954
  -5810087.46146  -2397575.75043  23069677.1954                   23069676.6994
 11  8 16 17 28  0.0000000  0 10G03G06G07G08G10G13G19G28G23G11
   9016401.56346   7034289.90643  22819642.7664                   22819641.7624
  11798878.379 5                  24847117.602
 -10278971.39148  -7965177.09446  20940516.5784                   20940513.9844
 -13017654.15247 -10110518.95744  22424063.1334                   22424061.0434
   3656893.65645   2982691.58642  24794573.9774                   24794576.3244
   1702495.08647   1349370.69545  20774182.3914                   20774179.9534
  -2807567.66847  -2159666.78145  21233099.7814                   21233095.8524
  -4660931.84046  -3325740.20743  23253008.9774                   23253008.5904
  10543890.16447   8227619.41444  22354580.0474                   22354577.5234
  -5977819.91046  -2528276.35543  23037758.5004                   23037758.7114
 11  8 16 17 28 30.0000000  0 10G03G06G07G08G10G13G19G28G23G11
   9020338.42646   7037357.55143  22820392.5394                   22820390.6994
  11805985.434 5                  24848469.477
 -10415755.31648  -8071761.97346  20914487.6564                   20914485.0434
 -13183435.55147 -10239699.27744  22392515.7664                   22392514.0514
   3617826.55145   2952249.49642  24787139.2734                   24787141.5944
   1674771.39547   1327767.75845  20768906.7814                   20768904.5744
  -2858748.09447  -2199547.66845  21223360.1954                   21223356.3444
  -4802308.87146  -3435904.08643  23226106.4774                   23226105.5664
  10553734.13347   8235289.91444  22356454.0394                   22356450.8444
  -6145407.83246  -2658864.32843  23005868.2584                   23005867.7704
 11  8 16 17 29  0.0000000  0  9G03G07G08G10G13G19G28G23G11
   9024526.35246   7040620.77043  22821189.9774                   22821188.2704
 -10552373.01248  -8178217.31646  20888490.0234                   20888487.3954
 -13349229.11347 -10368889.05944  22360966.5944                   22360964.2384
   3578884.42645   2921904.84042  24779729.1884                   24779732.2974
   1647519.32847   1306532.33245  20763720.8204                   20763718.6954
  -2909392.16047  -2239010.60245  21213722.7894                   21213718.7544
  -4943511.94147  -3545932.38343  23199236.2664                   23199235.2974
  10563802.85247   8243135.52344  22358369.1094                   22358367.1134
  -6312848.44146  -2789337.50443  22974004.9774                   22974005.2584
 11  8 16 17 29 30.0000000  0  9G03G07G08G10G13G19G28G23G11
   9028962.65246   7044077.55543  22822033.2894                   22822032.7624
 -10688822.43747  -8284541.53946  20862524.6644                   20862521.5394
 -13515033.29747 -10498087.13744  22329414.8444                   22329412.8524
   3540064.40245   2891655.31642  24772342.8054                   24772345.4884
   1620736.63747   1285662.64845  20758624.3054                   20758621.9264
  -2959501.70747  -2278057.02745  21204187.5084                   21204183.2424
  -5084541.44147  -3655825.45343  23172400.0314                   23172398.5004
  10574093.44547   8251154.02744  22360327.3364                   22360325.3284
  -6480138.82446  -2919693.61343  22942171.2814                   22942170.5704
 11  8 16 17 30  0.0000000  0  9G03G07G08G10G13G19G28G23G11
   9033647.30546   7047727.85943  22822925.3594                   22822924.2154
 -10825098.71948  -8390730.84446  20836592.0554                   20836589.4264
 -13680843.40647 -10627289.81644  22297862.7974                   22297860.5204
   3501366.84855   2861501.19952  24764978.1564                   24764982.3094
   1594424.28148   1265159.45345  20753617.3364                   20753614.8834
  -3009075.66047  -2316686.10545  21194753.9774                   21194749.9184
  -5225395.03947  -3765581.44544  23145596.6644                   23145594.1094
  10584605.80147   8259345.30544  22362328.0394                   22362326.2344
  -6647272.77346  -3049927.80543  22910367.4064                   22910366.0164
 11  8 16 17 30 30.0000000  0  9G03G07G08G10G13G19G28G23G11
   9038578.18446   7051570.01643  22823862.9774                   22823862.8874
 -10961200.08648  -8496783.84846  20810692.8134                   20810689.9414
 -13846657.93047 -10756495.93444  22266308.9224                   22266306.9734
   3462789.40645   2831440.72342  24757638.0164                   24757642.0044
   1568580.23047   1245021.18045  20748699.6884                   20748696.9224
  -3058115.16047  -2354898.71945  21185422.3284                   21185417.9144
  -5366072.73046  -3875200.40243  23118826.2344                   23118824.1764
  10595337.80147   8267707.75444  22364371.1174                   22364368.2704
  -6814246.71946  -3180037.33243  22878592.1564                   22878591.8914
 11  8 16 17 31  0.0000000  0  9G03G07G08G10G13G19G28G23G11
   9043756.34446   7055604.88743  22824848.8914                   22824848.1294
 -11097120.35548  -8602695.74646  20784828.2194                   20784825.3404
 -14012471.30547 -10885701.14845  22234755.6484                   22234753.4534
   3424333.410 5                  24750320.328
   1543206.56647   1225249.43845  20743870.8524                   20743868.3404
  -3106618.01647  -2392693.18445  21176192.5474                   21176188.0864
  -5506571.26246  -3984679.71543  23092089.6414                   23092088.0084
  10606290.70347   8276242.34444  22366455.7114                   22366452.6764
  -6981053.11746  -3310016.28143  22846850.5394                   22846849.6954
 11  8 16 17 31 30.0000000  0  9G03G07G08G10G13G19G28G23G11
   9049176.08646   7059827.94543  22825880.8444                   22825879.5474
 -11232860.49647  -8708467.28946  20758997.9384                   20758994.8674
 -14178285.24647 -11014906.79344  22203202.3594                   22203200.4734
   3385993.242 6                  24743024.773
   1518298.89848   1205840.79345  20739131.5084                   20739128.8874
  -3154588.21947  -2430072.59845  21167063.5784                   21167059.7304
  -5646893.74646  -4094021.87544  23065387.6564                   23065385.7424
  10617458.76247   8284944.55944  22368580.7034                   22368578.2274
  -7147692.09046  -3439864.78143  22815140.4844                   22815138.7814
 11  8 16 17 32  0.0000000  0  9G03G07G08G10G13G19G28G23G11
   9054834.04746   7064236.65643  22826957.0164                   22826955.8634
 -11368419.60247  -8814097.76246  20733201.9144                   20733199.0084
 -14344098.41447 -11144111.85244  22171649.0944                   22171647.4654
   3347765.574 6                  24735749.906
   1493853.60247   1186792.44945  20734479.8364                   20734476.8834
  -3202028.52047  -2467039.08245  21158036.6564                   21158032.3244
  -5787041.88347  -4203228.16044  23038717.6804                   23038717.3634
  10628838.04747   8293811.37944  22370745.6334                   22370743.6844
  -7314161.14846  -3569580.85943  22783461.0394                   22783460.1524
 11  8 16 17 32 30.0000000  0  9G03G07G08G10G13G19G28G23G11
  10636145.19146   8296427.09043  23127870.1884                   23127870.0044
  -9928372.86747  -7691983.43046  21007233.1884                   21007230.2034
 -12934485.94947 -10045712.50444  22439889.2814                   22439887.6914
   4885067.105 6                  25028288.117
   3045288.18447   2395702.45745  21029708.3364                   21029705.3164
  -1673520.89147  -1275994.20345  21448901.8834                   21448897.8244
  -4351593.37546  -3084696.82444  23311874.4694                   23311873.9144
  12215844.03147   9530439.26644  22672744.0554                   22672741.2274
  -5905033.75846  -2471559.43043  23051608.8594                   23051608.6254
 11  8 16 17 33  0.0000000  0  9G03G07G08G10G13G19G28G23G11
  10642264.39146   8301195.22343  23129035.2584                   23129034.5704
 -10063569.85247  -7797331.73046  20981506.3674                   20981503.3284
 -13100300.08247 -10174918.30944  22408336.3444                   22408334.4924
   4847050.168 6                  25021054.570
   3021755.80548   2377365.47745  21025229.7814                   21025227.4414
  -1719913.02747  -1312143.94945  21440073.7034                   21440069.5664
  -4491400.33646  -3193637.27344  23285270.4774                   23285269.8444
  12227631.89847   9539624.46144  22674987.0394                   22674984.3164
  -6071160.05146  -2601008.41043  23019997.1804                   23019994.8874
 11  8 16 17 33 30.0000000  0  9G03G07G08G10G13G19G28G23G11
  10648608.75446   8306138.79743  23130242.0944                   23130242.4534
 -10198584.26647  -7902537.77046  20955814.0864                   20955811.1604
 -13266113.73847 -10304123.75044  22376782.9924                   22376781.0234
   4809132.840 6                  25013839.438
   2998675.51247   2359380.77345  21020837.7734                   21020835.3984
  -1765785.41047  -1347888.68746  21431344.2664                   21431340.3364
  -4631038.96546  -3302446.55944  23258697.4694                   23258696.8594
  12239618.50446   9548964.52744  22677268.1174                   22677265.1134
  -6237111.67646  -2730321.28943  22988417.4844                   22988415.1024
 11  8 16 17 34  0.0000000  0  9G03G07G08G10G13G19G28G23G11
  10655177.81346   8311257.48843  23131492.4064                   23131492.2774
 -10333411.97747  -8007598.32845  20930157.2814                   20930154.2854
 -13431923.10547 -10433325.85544  22345230.3524                   22345228.2584
   4771314.90246   4027743.09852  25006642.5634                   25006644.2344
   2976047.09447   2341748.19545  21016531.6954                   21016529.6764
  -1811137.43047  -1383227.94145  21422713.6094                   21422710.0594
  -4770507.66046  -3411123.44944  23232157.7504                   23232156.2114
  12251803.42247   9558459.08244  22679586.8364                   22679583.6174
  -6402883.37146  -2859494.00043  22956872.6414                   22956870.4884
 11  8 16 17 34 30.0000000  0  8G03G07G08G13G19G28G23G11
  10661967.07846   8316547.73443  23132784.9844                   23132785.0164
 -10468053.60947  -8112513.89145  20904535.7424                   20904532.9494
 -13597728.99647 -10562525.24644  22313678.4694                   22313676.8594
   2953866.27347   2324464.37145  21012311.1644                   21012309.0634
  -1855972.97347  -1418164.76245  21414182.1414                   21414178.0434
  -4909809.07046  -3519669.96544  23205650.1254                   23205648.5314
  12264181.46547   9568104.14544  22681942.3674                   22681938.8524
  -6568473.54346  -2988525.23843  22925360.9384                   22925359.7544
 11  8 16 17 35  0.0000000  0  8G03G07G08G13G19G28G23G11
  10668974.98446   8322008.38343  23134118.0474                   23134117.8874
 -10602505.44147  -8217281.55545  20878950.4224                   20878947.7154
 -13763527.81247 -10691719.12944  22282128.1174                   22282126.3984
   2932132.58647   2307528.98845  21008175.0944                   21008173.2734
  -1900292.04347  -1452699.12946  21405748.7194                   21405744.4694
  -5048941.94147  -3628085.16444  23179174.0314                   23179172.5234
  12276751.43446   9577898.77043  22684334.5394                   22684331.4574
  -6733877.64546  -3117411.49243  22893886.2114                   22893883.6804
 11  8 16 17 35 30.0000000  0  8G03G07G08G13G19G28G23G11
  10676201.45746   8327639.35243  23135493.3834                   23135493.0984
 -10736762.37147  -8321897.34845  20853402.2114                   20853399.2544
 -13929315.30547 -10820904.18044  22250579.4064                   22250577.5864
   2910846.52047   2290942.39545  21004125.0234                   21004122.6374
  -1944093.96947  -1486830.53145  21397413.3134                   21397409.2464
  -5187904.30947  -3736367.50444  23152730.3984                   23152728.8134
  12289513.45347   9587843.01643  22686763.6254                   22686760.6174
  -6899089.68746  -3246148.09043  22862447.1484                   22862445.0124
 11  8 16 17 36  0.0000000  0  8G03G07G08G13G19G28G23G11
  10683649.78546   8333443.16843  23136911.0164                   23136910.5864
 -10870816.83647  -8426355.38745  20827892.3834                   20827889.2664
 -14095084.38747 -10950074.88344  22219035.2734                   22219032.9344
   2890011.74247   2274707.45745  21000160.0004                   21000157.9344
  -1987374.65247  -1520555.77746  21389177.5164                   21389173.2384
  -5326691.27347  -3844513.13744  23126319.6884                   23126318.1724
  12302470.52346   9597939.25043  22689228.2584                   22689225.9654
  -7064101.04346  -3374728.34843  22831046.7504                   22831044.7664
 11  8 16 17 36 30.0000000  0  8G03G07G08G13G19G28G23G11
  10691315.48446   8339416.38343  23138369.2584                   23138369.0084
 -11004668.80547  -8530655.62545  20802421.3524                   20802418.3794
 -14260835.18047 -11079231.32844  22187493.7584                   22187491.3164
   2869624.12947   2258820.94145  20996280.6254                   20996278.3094
  -2030137.86347  -1553877.77745  21381039.8674                   21381036.1214
  -5465304.85247  -3952523.68044  23099942.7974                   23099941.5634
  12315617.90647   9608183.76643  22691730.8284                   22691727.7664
  -7228910.25046  -3503151.07443  22799683.7584                   22799683.2074
 11  8 16 17 37  0.0000000  0  8G03G07G08G13G19G28G23G11
  10699192.76646   8345554.41443  23139869.2344                   23139868.2304
 -11138319.15647  -8634798.76245  20776988.0554                   20776985.5084
 -14426568.68747 -11208374.28944  22155955.3364                   22155953.1024
   2849678.51247   2243278.85545  20992485.1414                   20992482.7234
  -2072388.29747  -1586800.23446  21373000.3914                   21372995.8794
  -5603748.62546  -4060401.89144  23073597.4774                   23073596.5744
  12328950.12147   9618572.31644  22694268.3364                   22694265.6334
  -7393516.78946  -3631415.86343  22768360.0634                   22768359.1254
 11  8 16 17 37 30.0000000  0  8G03G07G08G13G19G28G23G11
  10707281.84846   8351857.53543  23141407.7424                   23141407.3284
 -11271763.27747  -8738781.20745  20751595.0164                   20751592.3404
 -14592280.52347 -11337500.39144  22124421.6024                   22124419.5234
   2830175.37947   2228081.55145  20988773.4304                   20988771.6214
  -2114125.32047  -1619322.61746  21365057.9454                   21365053.4104
  -5742020.15646  -4168145.89144  23047284.9774                   23047283.7114
  12342466.73047   9629104.55544  22696840.6644                   22696837.3484
  -7557914.87146  -3759518.23443  22737075.6724                   22737075.2424
 11  8 16 17 38  0.0000000  0  9G03G24G07G08G13G19G28G23G11
  10715579.25446   8358322.98043  23142987.0864                   23142986.4104
  15279952.53915                  24200810.555
 -11404999.63747  -8842601.76245  20726240.6724                   20726238.1214
 -14757970.10547 -11466609.12944  22092891.8834                   22092889.7814
   2811111.84847   2213226.78945  20985146.1954                   20985143.5824
  -2155351.62147  -1651447.03946  21357212.4844                   21357208.6054
  -5880120.95347  -4275756.88344  23021005.1564                   23021003.6844
  12356164.41447   9639777.89144  22699447.6024                   22699444.7584
  -7722101.71146  -3887456.00043  22705832.9224                   22705831.2934
 11  8 16 17 38 30.0000000  0  9G03G24G07G08G13G19G28G23G11
  10724079.84446   8364946.70743  23144604.4224                   23144603.8754
  15112443.055 5                  24168935.539
 -11538028.77047  -8946260.84045  20700925.8914                   20700923.3554
 -14923638.14847 -11595701.09444  22061366.5394                   22061364.3874
   2792483.72747   2198711.31345  20981601.4224                   20981599.4654
  -2196071.21547  -1683176.63346  21349464.2114                   21349460.1134
  -6018053.64847  -4383236.87544  22994757.6254                   22994755.9654
  12370038.52347   9650588.69144  22702087.9924                   22702085.0234
  -7886076.77046  -4015228.73843  22674629.2034                   22674628.1564
 11  8 16 17 39  0.0000000  0  9G03G24G07G08G13G19G28G23G11
  10732776.31646   8371723.11343  23146259.7034                   23146258.8164
  14944865.707 6                  24137045.422
 -11670853.63347  -9049760.74645  20675650.7114                   20675647.2074
 -15089287.49247 -11724778.48044  22029843.8984                   22029842.2464
   2774283.47747   2184529.21545  20978137.9534                   20978135.7464
  -2236290.67247  -1714516.49246  21341810.6564                   21341806.3284
  -6155823.87946  -4490590.27043  22968540.7344                   22968539.5234
  12384081.39846   9661530.98843  22704759.4774                   22704757.1294
  -8049841.63746  -4142837.68444  22643466.1644                   22643464.9694
 11  8 16 17 39 30.0000000  0  9G03G24G07G08G13G19G28G23G11
  10741663.37146   8378647.97743  23147951.3204                   23147950.2034
  14777220.785 6                  24105144.000
 -11803474.37147  -9153101.57045  20650413.5554                   20650410.6644
 -15254918.73847 -11853841.78944  21998325.7584                   21998323.8094
   2756506.39847   2170676.87945  20974755.3364                   20974752.9614
  -2276014.38747  -1745470.06645  21334251.4064                   21334247.3164
  -6293434.68046  -4597819.43444  22942354.1174                   22942352.8244
  12398287.57046   9672600.55144  22707463.0314                   22707460.8484
  -8213395.70746  -4270282.37544  22612342.4224                   22612341.1524
 11  8 16 17 40  0.0000000  0  9G03G24G07G08G13G19G28G23G11
  10750738.69946   8385719.55943  23149678.6414                   23149677.5084
  14609511.258 5                  24073228.672
 -11935889.25847  -9256282.01645  20625215.9924                   20625213.0314
 -15420530.49647 -11982889.89844  21966810.7664                   21966808.9144
   2739150.01647   2157152.35945  20971452.0944                   20971450.1724
  -2315244.89847  -1776039.33645  21326785.7344                   21326781.9534
  -6430886.87546  -4704924.97343  22916197.2034                   22916197.0664
  12412654.20346   9683795.12143  22710197.1334                   22710194.8714
  -8376735.88346  -4397560.40644  22581260.0314                   22581258.7464
 11  8 16 17 40 30.0000000  0  9G03G24G07G08G13G19G28G23G11
  10759998.89546   8392935.23043  23151439.9304                   23151439.6094
  14441739.863 5                  24041303.195
 -12068096.37547  -9359300.58245  20600058.0784                   20600054.7734
 -15586121.37547 -12111921.74644  21935300.0164                   21935297.8364
   2722212.01647   2143953.83645  20968229.0704                   20968227.3674
  -2353984.33247  -1806225.94945  21319414.4844                   21319410.1524
  -6568181.08246  -4811907.41844  22890071.5004                   22890070.7544
  12427178.09847   9695112.27343  22712961.2894                   22712958.9414
  -8539858.97746  -4524669.30143  22550218.2194                   22550217.6844
 11  8 16 17 41  0.0000000  0  9G03G24G07G08G13G19G28G23G11
  12344858.27746   9627890.50042  23453029.0864                   23453028.5434
  15849332.91415                  24309157.570
 -10624671.38747  -8234553.80545  20874732.5554                   20874729.3984
 -14176266.20747 -11013333.30944  22203586.4694                   22203584.3954
   4281108.21147   3358678.07845  21264877.1564                   21264875.2894
   -816815.37147   -608431.98845  21611927.9144                   21611923.3284
  -5129895.58647  -3691165.43444  23163768.2504                   23163767.0474
  14017273.68846  10934147.56644  23015545.9224                   23015544.5004
  -7127338.60946  -3424004.06244  22819011.6094                   22819011.3634
 11  8 16 17 41 30.0000000  0  9G03G24G07G08G13G19G28G23G11
  12354477.60946   9635386.00843  23454859.9384   23454859.2584   24277208.984
 -10756459.46147  -8337245.82445  20849653.9454                   20849651.1644
 -14341812.34047 -11142330.28144  22172084.0234                   22172081.8134
   4264997.30147   3346124.05145  21261811.5164                   21261809.5634
   -854581.09847   -637859.86745  21604740.7814                   21604737.0164
  -5266878.28547
  -3797905.15644                  23137701.3914                   23137699.6564
  14032101.40646  10945701.45743  23018368.2814                   23018366.4064
  -7290020.65646  -3550769.28544  22788055.1334                   22788053.9804
 11  8 16 17 42  0.0000000  0  9G03G24G07G08G13G19G28G23G11
  12364270.43446   9643016.72743  23456723.7194   23456722.5124
  15513498.26214                  24245250.625
 -10888037.64847  -8439774.29345  20824615.2194                   20824612.2274
 -14507336.23447 -11271309.92644  22140585.7344                   22140583.8794
   4249293.81647   3333887.50845  21258823.1804                   21258821.4184
   -891865.38347   -666912.59045  21597645.9064                   21597642.3794
  -5403708.65646  -3904526.23043  23111664.2974                   23111661.8954
  14047074.78146  10957368.78543  23021217.7974                   23021215.8634
  -7452479.92247  -3677360.87144  22757139.3754                   22757138.8014
 11  8 16 17 42 30.0000000  0  9G03G24G07G08G13G19G28G23G11
  12374235.74246   9650781.83242  23458619.9614   23458618.5634
  15345501.043 5                  24213282.328
 -11019401.84447  -8542135.99645  20799617.4774                   20799614.6134
 -14672833.74647 -11400269.02744  22109092.8204                   22109090.5434
   4233997.33647   3321968.09445  21255912.7974                   21255910.1994
   -928668.28947   -695590.23045  21590643.1954                   21590638.9694
  -5540385.36746  -4011027.52743  23085654.8364                   23085652.9184
  14062192.67646  10969148.75843  23024094.7274                   23024092.7504
  -7614711.24246  -3803774.85944  22726268.8204                   22726266.5824
 11  8 16 17 43  0.0000000  0  9G03G24G07G08G13G19G28G23G11
  12384365.89846   9658675.33643  23460547.3134   23460546.9384
  15177449.926 5                  24181304.156
 -11150555.18047  -8644333.41445  20774659.9454                   20774657.0824
 -14838308.17247 -11529210.11744  22077604.2584                   22077601.9064
   4219100.46547   3310360.05545  21253077.8834                   21253076.0084
   -964997.05147   -723898.38745  21583729.6954                   21583725.7114
  -5676914.02346  -4117413.45743  23059673.4304                   23059672.2814
  14077447.05546  10981035.09043  23026997.4454                   23026995.7664
  -7776716.63347  -3930012.76244  22695439.7584                   22695438.0474
 11  8 16 17 43 30.0000000  0  9G03G24G07G08G13G19G28G23G11
  12394659.44946   9666696.18843  23462506.7664   23462506.0664
  15009349.426 5                  24149314.492
 -11281493.96547  -8746363.63745  20749743.0164                   20749740.0704
 -15003756.47747 -11658130.87145  22046119.6334                   22046118.4224
   4204602.20347   3299062.65645  21250318.7194                   21250317.0044
  -1000852.55547   -751837.78545  21576906.8134                   21576903.0084
  -5813294.01647  -4223683.53944  23033721.7734                   23033720.0784
  14092836.88746  10993026.96543  23029926.2584                   23029924.7154
  -7938491.18447  -4056070.82044  22664655.1564                   22664653.4024
 11  8 16 17 44  0.0000000  0  9G03G24G07G08G13G19G28G23G11
  12405111.53946   9674840.57043  23464495.4694   23464494.6994
  14841199.813 5                  24117317.336
 -11412218.96547  -8848227.30545  20724867.3284                   20724864.1214
 -15169179.79347 -11787032.14544  22014640.9384                   22014639.6914
   4190497.41047   3288071.83645  21247634.9534                   21247633.2234
  -1036239.06647   -779411.73445  21570172.4224                   21570168.7034
  -5949528.43747  -4329840.20744  23007797.5474                   23007795.4454
  14108356.93846  11005120.31643  23032880.1024                   23032878.6454
  -8100034.64547  -4181948.77744  22633914.7274                   22633912.7344
 11  8 16 17 44 30.0000000  0  9G03G24G07G08G13G19G28G23G11
  12415718.78546   9683105.87142  23466513.3984   23466513.7424
  14673003.914 5                  24085309.625
 -11542728.73047  -8949923.21545  20700031.8984                   20700029.4614
 -15334576.24647 -11915912.49245  21983167.3754                   21983165.7584
   4176783.47347   3277385.59445  21245025.5084                   21245023.3324
  -1071159.27047   -806622.32845  21563527.9064                   21563523.8984
  -6085618.39547  -4435884.29344  22981900.6334                   22981898.2664
  14124003.66846  11017312.34844  23035857.9384                   23035856.7074
  -8261344.31647  -4307644.57444  22603217.9924                   22603217.0204
 11  8 16 17 45  0.0000000  0  9G03G24G07G08G13G19G28G23G11
  12426477.55546   9691489.23842  23468561.5704   23468560.9494
  14504763.297 5                  24053295.938
 -11673022.19947  -9051450.60545  20675237.9534                   20675235.3244
 -15499945.31247 -12044771.50045  21951698.5084                   21951697.1684
   4163456.62147   3267000.97745  21242489.5084                   21242487.4184
  -1105616.83647   -833472.42245  21556971.1564                   21556966.6954
  -6221565.59447  -4541817.14544  22956030.3914                   22956028.8094
  14139772.94946  11029599.90244  23038858.6564                   23038857.2934
  -8422418.09046  -4433156.57443  22572566.8754                   22572565.9264
 11  8 16 17 45 30.0000000  0  9G03G24G07G08G13G19G28G23G11
  12437387.29746   9699990.28942  23470637.6094   23470637.0664
  14336482.949 5                  24021272.492
 -11803095.32047  -9152806.29345  20650486.0784                   20650482.9384
 -15665283.25447 -12173606.25044  21920235.5554                   21920233.6564
   4150516.48847   3256917.67245  21240027.1484                   21240024.8794
  -1139611.78947   -859962.04345  21550502.0004                   21550498.4734
  -6357368.83247  -4647637.82444  22930187.5234                   22930185.4184
  14155664.17646  11041982.45343  23041882.1174                   23041882.0084
  -8583250.82846  -4558480.78144  22541960.6804                   22541960.3014
 11  8 16 17 46  0.0000000  0  9G03G24G07G08G13G19G28G23G11
  12448444.70346   9708606.34042  23472741.8914   23472741.6684
  14168165.887 5                  23989243.063
 -11932946.37147  -9253988.94545  20625776.2274                   20625773.4144
 -15830588.07847 -12302415.20745  21888779.5944                   21888777.6484
   4137960.17247   3247133.46145  21237637.9064                   21237635.8244
  -1173146.37547   -886092.93445  21544120.2814                   21544116.7504
  -6493028.85947  -4753346.91844  22904372.5164                   22904370.6564
  14171674.33646  11054457.68843  23044929.5234                   23044928.9454
  -8743839.65646  -4683614.89844  22511401.2974                   22511401.1954
 11  8 16 17 46 30.0000000  0  9G03G24G07G08G13G19G28G23G11
  12459647.22346   9717335.49642  23474873.2034   23474873.8634
  13999814.742 5                  23957205.992
 -12062573.77747  -9354997.34045  20601108.1414                   20601106.0084
 -15995859.00047 -12431197.73045  21857329.8204                   21857327.7194
   4125784.73447   3237646.04345  21235320.9224                   21235318.9844
  -1206223.32447   -911867.21545  21537826.3674                   21537822.5084
  -6628547.09047  -4858945.51244  22878584.3834                   22878582.7544
  14187800.41046  11067023.21543  23047998.3834                   23047996.8754
  -8904181.86746  -4808556.87543  22480889.8364                   22480889.1994
 11  8 16 17 47  0.0000000  0  9G03G24G07G08G13G19G28G23G11
  12470992.18846   9726175.64842  23477031.0784   23477032.9104
  13831432.80145  13481749.75053  23925165.1884                   23925166.8164
 -12191975.32847  -9455829.72345  20576484.8674                   20576481.6994
 -16161093.82447 -12559952.13345  21825885.8914                   21825883.9224
   4113987.95347   3228453.67245  21233076.3444                   21233074.0594
  -1238844.70747   -937286.52045  21531618.6884                   21531615.3484
  -6763923.57447  -4964433.65644  22852822.5704                   22852821.2034
  14204039.72347  11079676.99244  23051089.1724                   23051087.1174
  -9064274.27746  -4933304.16844  22450425.1884                   22450424.2384
 11  8 16 17 47 30.0000000  0  9G03G24G07G08G13G19G28G23G11
  12482474.50046   9735122.77742  23479217.7274   23479218.6254
  13663020.74245  13350519.65642  23893117.3134                   23893121.2774
 -12321151.28547  -9556486.33645  20551903.1484                   20551899.9184
 -16326292.91047 -12688678.68745  21794449.7424                   21794447.7504
   4102565.23447   3219552.78145  21230902.6094                   21230900.2854
  -1271014.80147   -962354.16445  21525496.8834                   21525493.2894
  -6899161.58647  -5069813.89844  22827087.4384                   22827086.3954
  14220387.14547  11092414.99644  23054200.5084                   23054199.2934
  -9224115.90646  -5057856.06243  22420009.0784                   22420007.2894
 11  8 16 17 48  0.0000000  0  9G03G24G07G08G13G19G28G23G11
  12494090.02046   9744173.71142  23481427.7974   23481428.6024
  13494579.77345  13219267.01642  23861062.9144                   23861068.4774
 -12450101.25447  -9656966.84445  20527364.7504                   20527362.1134
 -16491456.00047 -12817377.19545  21763020.1254                   21763018.2464
   4091512.14847   3210939.91445  21228798.8834                   21228797.0124
  -1302737.77747   -987073.40645  21519460.3054                   21519455.9384
  -7034263.35546  -5175087.95744  22801378.8054                   22801377.5084
  14236838.30947  11105233.82043  23057330.7504                   23057330.1684
  -9383705.21547  -5182211.31243  22389640.4384                   22389637.7424
 11  8 16 17 48 30.0000000  0  9G03G24G07G08G13G19G28G23G11
  12505838.98046   9753328.67242  23483664.3674   23483664.8984
  13326115.617 5                  23829003.875
 -12578820.60947  -9757267.65245  20502870.4534                   20502867.6254
 -16656578.66447 -12946044.18745  21731598.5084                   21731596.3714
   4080828.87947   3202615.21545  21226766.6484                   21226764.8094
  -1334013.12947  -1011443.84845  21513508.3834                   21513504.7974
  -7169226.99247  -5280254.36344  22775695.4694                   22775694.4844
  14253393.23846  11118133.52743  23060481.2424                   23060480.2344
  -9543036.64847  -5306365.59044  22359319.7814                   22359317.9344
 11  8 16 17 49  0.0000000  0  9G03G24G07G08G13G19G28G23G11
  14093137.28946  10990184.41042  23785716.4774
                                  23785717.4844   14733055.984 5  24096737.203
 -11131884.09447  -8629784.68045  20778213.4224                   20778209.8484
 -15246234.23047 -11847074.49245  21999978.1804                   21999976.1724
   5645932.11347   4422176.09845  21524595.6254                   21524593.9304
    210576.94547    192132.80545  21807434.2274                   21807430.6254
  -5728629.72747  -4157711.00844  23049832.9224                   23049831.0044
  15845467.09046  12358710.33243  23363442.9064                   23363442.1414
  -8126682.93447  -4202713.32444  22628843.6564                   22628840.9534
 11  8 16 17 49 30.0000000  0  9G03G24G07G08G13G19G28G23G11
  14105142.81346  10999539.23842  23788001.3524
                                  23788002.0314   14564552.426 5  24064670.867
 -11260138.51247  -8729723.19945  20753807.1334                   20753804.0594
 -15411272.48047 -11975675.70745  21968572.5234                   21968570.6644
   5635978.32047   4414419.80145  21522701.4454                   21522699.2584
    180187.51247    168452.69145  21801651.6724                   21801647.5784
  -5863321.30547  -4262665.44944  23024202.3754                   23024199.9454
  15862217.98046  12371762.74643  23366630.7734                   23366630.1374
  -8285491.67247  -4326460.32844  22598622.9774                   22598620.8164
 11  8 16 17 50  0.0000000  0  9G03G24G07G08G13G19G28G23G11
  14117272.46946  11008990.78542  23790309.2814
                                  23790310.7034   14396033.660 5  24032602.938
 -11388157.67647  -8829478.41445  20729445.3594                   20729443.1994
 -15576265.79747 -12104241.91445  21937175.0864                   21937173.3834
   5626385.02747   4406944.41445  21520876.6724                   21520873.9454
    150237.40247    145114.91045  21795952.0864                   21795948.6844
  -5997878.47747  -4367515.16844  22998596.6804                   22998594.6724
  15879062.59847  12384888.19143  23369836.0864                   23369834.9844
  -8444034.67647  -4450000.30544  22568453.1564                   22568451.4104
 11  8 16 17 50 30.0000000  0  9G03G24G07G08G13G19G28G23G11
  14129523.86346  11018537.26642  23792640.5704
                                  23792642.3324   14227502.766 6  24000532.203
 -11515939.33647  -8929048.55545  20705130.2344                   20705127.3324
 -15741212.12947 -12232771.50445  21905786.9144                   21905784.7974
   5617149.94147   4399748.15645  21519118.6724                   21519116.2544
    120724.37547    122117.70745  21790335.5784                   21790332.1484
  -6132301.51247  -4472260.36344  22973016.2974                   22973015.1954
  15895998.44146  12398084.69943  23373059.6644                   23373058.3554
  -8602308.58647  -4573330.59444  22538333.4064                   22538332.7774
 11  8 16 17 51  0.0000000  0  9G03G24G07G08G13G19G28G23G11
  14141891.09046  11028174.05142  23794993.6804
                                  23794995.6954   14058959.531 6  23968460.438
 -11643484.62947  -9028434.51645  20680858.6644                   20680855.9384
 -15906113.09047 -12361265.75845  21874407.6884                   21874405.1334
   5608267.05547   4392826.34845  21517428.2114                   21517426.4534
     91642.78147     99456.68045  21784801.9924                   21784798.1254
  -6266594.46547  -4576904.17644  22947460.9304                   22947459.9184
  15913019.27747  12411347.42243  23376298.9924                   23376297.7504
  -8760313.84847  -4696451.53544  22508266.9454                   22508265.7544
 11  8 16 17 51 30.0000000  0  9G03G24G07G08G13G19G28G23G11
  14154370.49646  11037898.19142  23797369.4224                   23797371.1884
  13890406.43046                  14307687.84052  23936385.6804   23936388.7814
 -11770792.57447  -9127635.52745  20656632.8284                   20656630.2664
 -16070967.14847 -12489723.46145  21843037.0164                   21843034.6374
   5599732.94147   4386176.30145  21515804.0084                   21515802.5824
     62989.82847     77129.67645  21779349.8284                   21779346.0274
  -6400758.87547  -4681447.83644  22921931.0004                   22921929.0354
  15930121.60547  12424673.68443  23379553.5944                   23379551.6844
  -8918047.81647  -4819361.09844  22478251.6954                   22478249.6844
 11  8 16 17 52  0.0000000  0  9G03G24G07G08G13G19G28G23G11
  14166959.65146  11047707.82142  23799765.4384                   23799765.8284
  13721846.38346                  14176342.50842  23904310.7504   23904313.2234
 -11897861.29747  -9226650.12145  20632452.8914                   20632449.5664
 -16235772.82847 -12618143.45745  21811674.6484                   21811673.1484
   5591545.07047   4379796.06645  21514246.6564                   21514245.1054
     34762.78547     55134.54745  21773978.3674                   21773974.6994
  -6534795.56647  -4785891.98844  22896424.5554                   22896422.2034
  15947302.35547  12438060.96943  23382822.9304                   23382821.9574
  -9075507.84847  -4942057.20344  22448287.3204                   22448285.9024
 11  8 16 17 52 30.0000000  0  9G03G24G07G08G13G19G28G23G11
  14179655.22746  11057600.35242  23802181.6024                   23802182.0124
  13553281.64846                  14044993.46943  23872233.5394   23872236.2814
 -12024689.69147  -9325477.44145  20608318.2734                   20608315.3204
 -16400529.13347 -12746524.99245  21780322.7194                   21780321.2034
   5583699.71147   4373682.69945  21512753.5634                   21512752.1884
      6958.20747     33468.60545  21768687.2814                   21768683.4614
  -6668705.95747  -4890237.75044  22870942.0634                   22870939.8164
  15964557.80946  12451506.53143  23386106.5554                   23386105.7194
  -9232691.85947  -5064538.22344  22418376.3204                   22418375.2974
 11  8 16 17 53  0.0000000  0  9G03G24G07G08G13G19G28G23G11
  14192452.76246  11067572.34442  23804616.0864                   23804617.1334
  13384713.46546                  13913641.76643  23840155.7814   23840158.7504
 -12151277.10247  -9424117.01245  20584229.2814                   20584226.3674
 -16565235.49647 -12874867.59445  21748980.5704                   21748978.7034
   5576192.48047   4367832.82045  21511325.1954                   21511323.9024
    -20427.63747     12128.95345  21763475.7274                   21763471.4144
  -6802492.59447  -4994487.05144  22845482.7504                   22845481.5824
  15981883.73446  12465006.99243  23389403.9144                   23389402.2664
  -9389598.28547  -5186802.94144  22388518.2114                   22388516.8484
 11  8 16 17 53 30.0000000  0  9G03G24G07G08G13G19G28G23G11
  14205351.24645  11077623.02342  23807070.1254                   23807072.2704
  13216146.55546                  13782291.03542  23808079.0944   23808081.4654
 -12277620.30547  -9522566.30145  20560186.8054                   20560184.0044
 -16729888.28547 -13003168.46945  21717648.1884                   21717646.4454
   5569022.55947   4362245.77745  21509960.6174                   21509959.1804
    -47395.73047     -8885.17645  21758344.2734                   21758340.2584
  -6936154.60247  -5098639.23044  22820046.9694                   22820046.1764
  15999279.09847  12478561.56643  23392714.9384                   23392713.7464
  -9546222.37147  -5308847.66044  22358713.6484                   22358712.2734
 11  8 16 17 54  0.0000000  0  9G03G24G07G08G13G19G28G23G11
  14218347.551 5                  23809542.977
  13047583.16045                  13650943.05542  23776001.6484   23776005.7114
 -12403717.73047  -9620824.03145  20536191.6254                   20536188.3834
 -16894485.87947 -13131426.32845  21686326.5554                   21686324.0944
   5562186.48047   4356918.87145  21508659.8834                   21508659.0314
    -73949.14847    -29576.19145  21753291.5394                   21753287.4774
  -7069693.57446  -5202695.55144  22794635.6094                   22794634.7974
  16016740.21546  12492167.35543  23396036.6884                   23396037.1484
  -9702561.95347  -5430670.68044  22328963.1644                   22328961.6334
 11  8 16 17 54 30.0000000  0  9G03G24G07G08G13G19G28G23G11
  14231439.203 5                  23812035.156
  12879026.89145                  13519600.63342  23743925.3594   23743930.8444
 -12529567.10247  -9718888.49645  20512243.0944                   20512240.0704
 -17059026.57847 -13259639.85545  21655015.0314                   21655012.9454
   5555681.53947   4351849.99645  21507422.2344                   21507421.2154
   -100089.92647    -49945.66045  21748316.9844                   21748312.8524
  -7203109.86347  -5306656.25844  22769247.8444                   22769246.4144
  16034264.46546  12505822.33643  23399371.6024                   23399371.8094
  -9858613.99647  -5552269.63744  22299267.2194                   22299265.9574
 11  8 16 17 55  0.0000000  0  9G03G24G07G08G13G19G28G23G11
  14244623.492 6                  23814544.156
  12710480.25845                  13388265.59442  23711852.5554   23711857.5124
 -12655167.02347  -9816758.56645  20488342.2584                   20488339.2384
 -17223509.13747 -13387808.08245  21623715.2344                   21623713.4574
   5549504.71547   4347036.80545  21506246.5634                   21506245.6414
   -125821.27047    -69996.09045  21743420.5864                   21743416.7034
  -7336404.75447  -5410522.38344  22743883.3834                   22743881.1454
  16051848.81346  12519524.14143  23402718.3284                   23402718.0084
 -10014375.73047  -5673642.38744  22269627.0394                   22269624.6764
 11  8 16 17 55 30.0000000  0  9G03G24G07G08G13G19G28G23G11
  14257897.305 5                  23817070.766
  12541946.08645                  13256940.35542  23679781.3364   23679787.6254
 -12780515.53547  -9914432.74245  20464488.8444                   20464485.5744
 -17387931.72347 -13515929.56645  21592426.4144                   21592424.6994
   5543653.27347   4342477.14845  21505133.5234                   21505132.4804
   -151145.68047    -89729.43045  21738601.3914                   21738597.5744
  -7469579.39547  -5514294.81244  22718540.5634                   22718538.8244
  16069489.89846  12533270.16843  23406075.4224                   23406075.0514
 -10169844.35547  -5794786.74244  22240042.6724                   22240040.4924
 11  8 16 17 56  0.0000000  0  9G03G24G07G08G13G19G28G23G11
  14271258.766 6                  23819613.086
  12373427.98446                  13125627.71542  23647713.9844   23647719.2194
 -12905610.30947 -10011909.19945  20440684.4384                   20440681.3014
 -17552291.55147 -13644002.14545  21561149.8754                   21561148.1414
   5538124.74247   4338169.11745  21504081.3204                   21504079.7584
   -176065.24647   -109147.29745  21733859.5004                   21733855.5164
  -7602633.96947  -5617973.68044  22693221.0314                   22693219.0984
  16087185.52746  12547058.66043  23409442.5004                   23409442.5704
 -10325016.34047  -5915699.94544  22210513.9924                   22210512.7194
 11  8 16 17 56 30.0000000  0  9G03G24G07G08G13G19G28G23G11
  14284705.477 6                  23822172.547
  12204929.14846                  12994330.03942  23615649.7974   23615654.6804
 -13030449.28947 -10109186.32845  20416928.1564                   20416925.0164
 -17716586.60947 -13772024.25845  21529885.1414                   21529884.0594
   5532916.52347   4334110.67644  21503090.1024                   21503088.5274
   -200582.25047   -128251.48445  21729193.8984                   21729189.9654
  -7735569.09047  -5721559.46544  22667924.4614                   22667922.2464
  16104933.12547  12560887.66043  23412820.8204                   23412820.5004
 -10479888.80947  -6036379.76644  22181042.3914                   22181041.3404
 11  8 16 17 57  0.0000000  0  9G03G24G07G08G13G19G28G23G11
  14298234.898 6                  23824746.469
  12036452.80146                  12863049.98442  23583590.0554   23583593.8954
 -13155030.46547 -10206262.57445  20393220.8204                   20393218.0554
 -17880814.69947 -13899994.18745  21498633.8444                   21498632.3834
   5528026.08247   4330299.83244  21502159.8914                   21502158.3754
   -224699.18447   -147043.93445  21724604.7274                   21724600.7274
  -7868385.35547  -5825052.65244  22642650.9064                   22642648.3164
  16122729.99247  12574755.06343  23416207.6804                   23416206.9924
 -10634458.72347  -6156823.82044  22151628.9454                   22151627.5594
 11  8 16 17 57 30.0000000  0  9G03G24G07G08G13G19G28G23G11
  15887260.660 5                  24127128.258    13443424.145 6  23851327.570
 -11703931.04747  -9075535.77745  20669355.8674                   20669353.3324
 -16469551.89847 -12800308.87945  21767188.7344                   21767186.9844
   7098866.90247
   5554331.53944                  21801080.6724                   21801078.9384
   1326998.50847   1062071.10945  22019883.0784                   22019879.4344
  -6425662.73047  -4700853.18444  22917191.3834                   22917189.5514
  17715989.28946  13816255.54343  23719394.8834                   23719394.1414
  -9213301.56647  -5049428.62144  22422066.1954                   22422064.3284
 11  8 16 17 58  0.0000000  0  9G03G24G07G08G13G19G28G23G11
  15900941.063 5                  24129731.070    13274995.133 6  23819274.633
 -11827997.51247  -9172210.95745  20645747.4384                   20645744.5204
 -16633647.09047 -12928175.24645  21735961.7504                   21735960.1094
   7094595.75047
   5551003.25444                  21800267.9224                   21800266.6214
   1303666.96947   1043890.65645  22015443.4924                   22015439.4964
  -6558250.97347  -4804168.68044  22891961.0554                   22891959.1524
  17733869.14546  13830187.60542  23722797.4144                   23722796.3984
  -9367264.85247  -5169400.01244  22392767.9384                   22392765.9024
 11  8 16 17 58 30.0000000  0  9G03G24G07G08G13G19G28G23G11
  15914694.508 5                  24132348.117    13106596.137 5  23787229.516
 -11951802.12147  -9268682.09445  20622187.7194                   20622185.3404
 -16797671.14547 -13055986.19145  21704749.5394                   21704747.1454
   7090632.18047
   5547914.65644                  21799513.4454                   21799511.9224
   1280726.24247   1026014.74245  22011078.1884                   22011073.9224
  -6690724.83647  -4907395.04344  22866751.7034                   22866749.9384
  17751787.81346  13844149.91843  23726207.5944                   23726206.2664
  -9520918.39547  -5289130.04344  22363528.3594                   22363527.0784
 11  8 16 17 59  0.0000000  0  9G03G24G07G08G13G19G28G23G11
  15928513.129 5                  24134978.203    12938224.477 5  23755188.883
 -12075348.28147  -9364951.83245  20598678.1254                   20598675.4454
 -16961627.77347 -13183744.59445  21673549.4384                   21673546.7934
   7086967.59847
   5545059.02044                  21798816.5634                   21798815.1174
   1258167.81347   1008436.71145  22006784.9454                   22006781.1414
  -6823090.57847  -5010537.16044  22841563.3054                   22841561.1994
  17769737.07446  13858136.01243  23729622.9304                   23729622.5274
  -9674264.96947  -5408620.86744  22334347.7034                   22334345.9144
 11  8 16 17 59 30.0000000  0  9G03G24G07G08G13G19G28G23G11
  15942396.469 5                  24137621.961    12769885.191 5  23723155.875
 -12198632.45347  -9461017.45745  20575217.3834                   20575214.7894
 -17125512.84047 -13311447.24245  21642362.7034                   21642360.3634
   7083600.94547
   5542435.54344                  21798176.2114                   21798174.7234
   1235991.10547    991156.10945  22002564.6804                   22002560.8834
  -6955347.22347  -5113594.28544  22816396.1724                   22816393.4384
  17787715.84446  13872145.12143  23733044.5084                   23733044.9574
  -9827300.19147  -5527869.07844  22305226.0314                   22305223.8524
 11  8 16 18  0  0.0000000  0  9G03G24G07G08G13G19G28G23G11
  15956341.984 5                  24140274.805    12601581.441 5  23691128.875
 -12321652.49247  -9556877.22745  20551807.7114                   20551804.6884
 -17289324.25847 -13439092.48845  21611190.4064                   21611188.9264
   7080529.34847
   5540041.98844                  21797592.0944                   21797590.4454
   1214193.70347    974171.08645  21998416.8984                   21998413.5904
  -7087495.42647  -5216566.87944  22791249.2034                   22791247.0434
  17805721.66846  13886175.30542  23736471.3204                   23736471.9924
  -9980020.85247  -5646872.19144  22276164.2974                   22276162.1954
 11  8 16 18  0 30.0000000  0  9G03G24G07G08G13G19G28G23G11
  15970346.625 5                  24142939.414    12433316.109 6  23659109.578
 -12444406.88347  -9652530.02745  20528448.6334                   20528445.6374
 -17453060.41847 -13566679.09445  21580032.7664                   21580031.1374
   7077749.90647
   5537876.07845                  21797062.7814                   21797061.9104
   1192772.58647    957479.26244  21994340.5314                   21994336.4344
  -7219536.77347  -5319456.21144  22766121.7974                   22766120.2384
  17823751.33646  13900224.11343  23739902.0944                   23739902.8634
 -10132424.68447  -5765628.39544  22247162.2814                   22247160.6724
 11  8 16 18  1  0.0000000  0  9G03G24G07G08G13G19G28G23G11
  15984407.293 5                  24145613.961    12265091.520 6  23627097.969
 -12566894.14847  -9747974.65645  20505139.7424                   20505137.0744
 -17616719.69147 -13694205.80145  21548889.7344                   21548887.7074
   7075258.68847
   5535934.76244                  21796589.3754                   21796588.1094
   1171724.73047    941078.30944  21990335.3914                   21990331.7234
  -7351472.32847  -5422263.09844  22741015.2274                   22741013.2304
  17841801.02046  13914288.42243  23743337.8674                   23743338.0664
 -10284509.58647  -5884136.11344  22218221.4694                   22218220.5554
 11  8 16 18  1 30.0000000  0  9G03G24G07G08G13G19G28G23G11
  15998521.789 5                  24148300.914    12096910.99646
  13886940.14152                  23595093.4694                   23595095.5904
 -12689112.18747  -9843209.52345  20481883.0474                   20481880.1844
 -17780300.19547 -13821671.12145  21517760.9614                   21517759.0704
   7073053.21147   5534216.09444  21796170.3054                   21796168.3204
   1151047.08647    924965.81345  21986400.5554                   21986396.6524
  -7483302.67247  -5524988.03544  22715929.1954                   22715926.9454
  17859868.54746  13928366.70743  23746775.7344                   23746776.0824
 -10436272.24247  -6002392.70744  22189342.4534                   22189341.4064
 11  8 16 18  2  0.0000000  0  9G03G24G07G08G13G19G28G23G11
  16012684.234 5                  24150996.336    11928774.01646
  13755924.37942                  23563098.1724                   23563100.5394
 -12811062.67647  -9938235.89545  20458676.1724                   20458673.3164
 -17943803.14147 -13949076.01245  21486648.2814                   21486645.4384
   7071127.37547   5532715.32845  21795803.1484                   21795801.8714
   1130734.25447    909137.59045  21982535.7274                   21982531.8324
  -7615032.42647  -5627634.56644  22690861.3914                   22690859.6414
  17877947.39546  13942453.80543  23750216.7584                   23750217.1914
 -10587713.19147  -6120398.62944  22160524.5084                   22160523.1644
 11  8 16 18  2 30.0000000  0  8G24G07G08G13G19G28G23G11
  11760685.94946  13624946.69942  23531111.2584                   23531114.8244
 -12932741.47747 -10033050.56645  20435521.2344                   20435518.7384
 -18107224.32447 -14076417.19145  21455549.4924                   21455547.4184
   7069480.29347   5531431.78145  21795490.0864                   21795488.8204
   1110785.43847    893593.01645  21978739.4304                   21978735.3364
  -7746660.38347  -5730201.79744  22665813.2344                   22665811.3324
  17896036.92646  13956549.23443  23753658.7034                   23753659.6914
 -10738827.45347  -6238149.99244  22131768.7034                   22131766.6524
 11  8 16 18  3  0.0000000  0  8G24G07G08G13G19G28G23G11
  11592649.09045  13494008.90242  23499135.8834                   23499138.4024
 -13054148.07447 -10127653.11745  20412418.5944                   20412415.6334
 -18270562.61747 -14203693.75845  21424467.3524                   21424465.4614
   7068108.05147   5530362.37545  21795229.1414                   21795227.4494
   1091196.83647    878329.12544  21975011.9844                   21975007.7424
  -7878188.20347  -5832690.98844  22640784.3754                   22640782.8014
  17914133.47746  13970650.09043  23757102.0084                   23757103.7734
 -10889613.39147  -6355645.52744  22103074.4614                   22103072.8094
 11  8 16 18  3 30.0000000  0  8G24G07G08G13G19G28G23G11
  11424672.90645  13363118.40642  23467169.5234                   23467173.6524
 -13175273.60947 -10222036.68445  20389369.0234                   20389366.5704
 -18433809.52047 -14330899.13745  21393402.3984                   21393400.2384
   7067013.93447   5529509.68844  21795021.1414                   21795019.8204
   1071972.21947    863348.87144  21971353.6884                   21971349.4924
  -8009610.28547  -5935097.79744  22615775.8834                   22615774.5474
  17932240.44146  13984759.03543  23760548.3754                   23760549.9654
 -11040062.00447  -6472878.22744  22074445.1724                   22074443.1134
 11  8 16 18  4  0.0000000  0  8G24G07G08G13G19G28G23G11
  11256762.35946  13232279.05542  23435218.8284                   23435221.8244
 -13296114.31647 -10316198.29345  20366374.0554                   20366371.6804
 -18596960.99247 -14458030.13345  21362355.6954                   21362353.5514
   7066197.13747   5528873.10545  21794865.1724                   21794863.7304
   1053111.10247    848651.86744  21967764.1254                   21967760.5704
  -8140925.48847  -6037421.30144  22590787.0554                   22590785.1884
  17950357.32046  13998875.71143  23763995.9844                   23763997.6374
 -11190168.47347  -6589844.31244  22045881.0554                   22045878.7734
 11  8 16 18  4 30.0000000  0  8G24G07G08G13G19G28G23G11
  11088920.28546  13101493.06642  23403279.3914                   23403282.3714
 -13416668.76247 -10410136.84445  20343433.1414                   20343430.6844
 -18760015.28947 -14585085.41445  21331327.7274                   21331325.9454
   7065654.40647   5528450.08644  21794762.3204                   21794761.2154
   1034610.23847    834235.55944  21964243.5314                   21964239.9964
  -8272135.24247  -6139662.64144  22565818.7034                   22565817.5824
  17968480.91846  14012997.67643  23767445.3594                   23767446.7734
 -11339930.45747  -6706541.94944  22017381.3204                   22017380.3874
 11  8 16 18  5  0.0000000  0  8G24G07G08G13G19G28G23G11
  10921148.68246  12970762.03943  23371353.3524                   23371356.4264
 -13536935.71947 -10503851.37545  20320547.4064                   20320544.2344
 -18922971.18447 -14712064.02345  21300317.9384                   21300316.2974
   7065382.11347   5528237.78944  21794710.2274                   21794709.3674
   1016465.86347    820097.04744  21960791.5164                   21960787.2074
  -8403241.10247  -6241823.05144  22540870.3364                   22540868.7034
  17986607.23046  14027121.73043  23770895.5554                   23770896.7154
 -11489345.80147  -6822969.48444  21988948.6484                   21988947.6764
 11  8 16 18  5 30.0000000  0  8G24G07G08G13G19G28G23G11
  12328870.56146  14067688.27843  23639234.4534                   23639237.6054
 -12081495.34847  -9369742.01645  20597507.7664                   20597505.6564
 -17510406.71947 -13611364.42245  21569120.5164                   21569117.9694
   8640791.14847   6755829.12544  22094500.6174                   22094499.5904
   2574090.63747   2033830.60244  22257197.0784                   22257193.8014
  -6958825.62147  -5116304.48044  22815733.2734                   22815731.3244
  19580147.19546  15268840.82443  24074136.6564                   24074137.7974
 -10062992.75447  -5711525.53544  22260374.6644                   22260373.5004
 11  8 16 18  6  0.0000000  0  8G24G07G08G13G19G28G23G11
  12161239.48846  13937066.78543  23607334.4844                   23607337.8094
 -12201192.30547  -9463012.38745  20574730.9844                   20574728.3134
 -17673169.30547 -13738192.39845  21538147.2194                   21538145.3524
   8641040.23847   6756023.10544  22094547.1724                   22094547.0594
   2556641.91447   2020234.14545  22253876.9064                   22253873.0044
  -7089736.77747  -5218313.16444  22790822.2584                   22790820.0434
  19598260.62546  15282954.86742  24077583.7274                   24077585.0514
 -10211716.98447  -5827414.53544  22232073.4694                   22232071.8594
 11  8 16 18  6 30.0000000  0  8G24G07G08G13G19G28G23G11
  11993683.44146  13806503.73043  23575449.0164                   23575452.0084
 -12320601.26247  -9556058.34445  20552007.4844                   20552005.1024
 -17835832.04347 -13864942.57045  21507194.0554                   21507191.8674
   8641545.84847   6756416.96544  22094644.7424                   22094642.7544
   2539537.13747   2006905.69944  22250621.6254                   22250618.3484
  -7220551.87947  -5320246.99244  22765928.5004                   22765926.8324
  19616363.68446  15297060.83642  24081028.6024                   24081029.7504
 -10360091.57047  -5943031.06644  22203838.8834                   22203837.0354
 11  8 16 18  7  0.0000000  0  8G24G07G08G13G19G28G23G11
  11826202.90646  13675999.57443  23543578.5634                   23543581.8714
 -12439722.80947  -9648880.34045  20529339.8834                   20529337.3554
 -17998395.01247 -13991615.00845  21476259.0234                   21476256.8874
   8642302.33647   6757006.30544  22094788.4924                   22094787.7234
   2522770.83247   1993840.98844  22247431.1484                   22247427.2894
  -7351273.91847  -5422108.30944  22741053.7424                   22741050.8674
  19634451.37946  15311154.81642  24084470.9064                   24084472.1684
 -10508116.09047  -6058374.82044  22175671.1094                   22175669.1954
 11  8 16 18  7 30.0000000  0  8G24G07G08G13G19G28G23G11
  11658800.26646  13545556.08242  23511722.9144                   23511725.5824
 -12558556.05147  -9741477.69145  20506726.9614                   20506723.9574
 -18160857.37947 -14118209.05545  21445343.2424                   21445341.5004
   8643305.73847   6757788.05144  22094979.9454                   22094978.5234
   2506338.97347   1981036.88344  22244303.9384                   22244300.7154
  -7481904.98047  -5523898.73044  22716195.0084                   22716192.7814
  19652519.56346  15325233.53942  24087909.3364                   24087911.1764
 -10655789.14147  -6173444.72744  22147569.7034                   22147567.5824
 11  8 16 18  8  0.0000000  0  9G17G24G07G08G13G19G28G23G11
  21678837.06656  16940711.91853  24667033.1094                   24667037.1134
  11491475.97746  13415173.63343  23479882.2034                   23479884.6174
 -12677101.34847  -9833850.67245  20484168.2894                   20484165.7734
 -18323219.26247 -14244724.80545  21414447.1334                   21414445.1914
   8644550.92647   6758758.19144  22095216.3754                   22095215.8754
   2490236.92647   1968489.79344  22241239.8594                   22241236.4384
  -7612448.38747  -5625620.85244  22691353.3204                   22691351.2774
  19670563.27746  15339293.21942  24091342.7274                   24091344.7934
 -10803110.51247  -6288240.58244  22119535.1884                   22119533.5704
 11  8 16 18  8 30.0000000  0  9G17G24G07G08G13G19G28G23G11
  21477592.07846  16783897.93043  24628737.7194                   24628741.0274
  11324230.58246  13284852.62542  23448055.7734                   23448057.7814
 -12795359.98047  -9926000.28945  20461664.6254                   20461661.6604
 -18485480.99647 -14371162.50445  21383569.4144                   21383567.8674
   8646032.20347   6759912.30144  22095498.5394                   22095497.7344
   2474458.96947   1956195.23444  22238237.6484                   22238234.4924
  -7742907.51247  -5727277.29344  22666527.6804                   22666525.1884
  19688576.96946  15353329.50042  24094771.3284                   24094772.0514
 -10950079.75047  -6402762.06244  22091567.1804                   22091565.9804
 11  8 16 18  9  0.0000000  0  9G17G24G07G08G13G19G28G23G11
  21276390.75846  16627117.95743  24590449.2814                   24590453.2274
  11157059.81646  13154589.85543  23416244.8834                   23416247.8594
 -12913337.11747 -10017930.53945  20439214.4064                   20439211.7584
 -18647648.02047 -14497526.42245  21352710.4454                   21352708.4654
   8647738.93447   6761242.07844  22095823.7034                   22095822.0204
   2458995.12547   1944145.43844  22235295.1884                   22235291.6884
  -7873290.73047  -5828874.59044  22641716.6644                   22641714.6294
  19706550.48846  15367334.51642  24098192.1644                   24098192.3324
 -11096702.01647  -6517013.17644  22063666.4694                   22063664.9774
 11  8 16 18  9 30.0000000  0  9G17G24G07G08G13G19G28G23G11
  21075233.57846  16470372.36743  24552169.9694                   24552174.6134
  10989965.42646  13024386.51642  23384447.8914                   23384450.8054
 -13031032.61347 -10109641.33245  20416817.4064                   20416814.7274
 -18809719.51647 -14623815.89145  21321869.3284                   21321867.4734
   8649666.80547   6762744.18844  22096190.5314                   22096189.1214
   2443841.43047   1932337.31644  22232411.8984                   22232408.0984
  -8003600.50447  -5930414.66044  22616918.9224                   22616917.6214
  19724479.54346  15381304.82043  24101604.0004                   24101604.8484
 -11242975.94947  -6630992.85544  22035831.8524                   22035829.9534
 11  8 16 18 10  0.0000000  0  9G17G24G07G08G13G19G28G23G11
  20874127.51646  16313666.60543  24513901.5554                   24513905.4414
  10822955.11346  12894248.68042  23352667.1254                   23352669.5394
 -13148439.55147 -10201127.27345  20394475.7664                   20394473.0164
 -18971688.62947 -14750025.58245  21291047.4454                   21291045.4964
   8651817.83647   6764420.17644  22096600.0704                   22096599.3914
   2428999.68847   1920772.28544  22229587.2584                   22229583.9844
  -8133832.77047  -6031894.33244  22592136.6254                   22592134.7814
  19742366.27746  15395242.16843  24105008.2194                   24105009.4964
 -11388894.32047  -6744695.47744  22008064.4844                   22008062.5744
 11  8 16 18 10 30.0000000  0  9G17G24G07G08G13G19G28G23G11
  20673073.26246  16157001.22742  24475641.4694                   24475647.1334
  10656030.88746  12764177.92642  23320901.6884                   23320904.7774
 -13265557.40247 -10292387.94945  20372189.2734                   20372186.2624
 -19133554.10947 -14876154.52045  21260245.3054                   21260243.5864
   8654187.37547   6766266.43044  22097050.8984                   22097050.3284
   2414465.89147   1909447.19544  22226822.0864                   22226818.1524
  -8263989.78547  -6133315.36744  22567369.1024                   22567366.5434
  19760206.65246  15409143.35943  24108403.9534                   24108405.3204
 -11534455.82847  -6858120.01644  21980364.8914                   21980363.0434
 11  8 16 18 11  0.0000000  0  9G17G24G07G08G13G19G28G23G11
  20472076.92245  16000380.96942  24437392.5554                   24437400.0124
  10489199.94546  12634179.91442  23289155.3834                   23289157.5784
 -13382380.53547 -10383418.99645  20349957.7344                   20349955.6764
 -19295309.71547 -15002197.84845  21229464.4534                   21229462.3094
   8656776.64547   6768283.88344  22097543.3134                   22097543.6094
   2400241.25847   1898363.03944  22224114.5784                   22224111.0984
  -8394068.81247  -6234675.64544  22542615.3984                   22542613.7034
  19778001.78946  15423009.34443  24111788.5784                   24111791.9454
 -11679653.79347  -6971261.27344  21952734.9694                   21952733.1254
 11  8 16 18 11 30.0000000  0  9G17G24G07G08G13G19G28G23G11
  20271145.12146  15843810.96942  24399156.6804                   24399164.1334
  10322469.92246  12504260.49642  23257427.9304                   23257428.9804
 -13498902.56247 -10474215.40245  20327784.8984                   20327782.5044
 -19456948.78147 -15128150.35545  21198705.6174                   21198703.9414
   8659587.12547   6770473.73844  22098079.3674                   22098078.2814
   2386327.40247   1887521.02044  22221467.4694                   22221463.6054
  -8524065.71547  -6335971.92644  22517878.3984                   22517876.1024
  19795753.75046  15436841.68043  24115166.6884                   24115170.3404
 -11824480.75447  -7084113.44144  21925174.9924                   21925173.7034
 11  8 16 18 12  0.0000000  0  9G17G24G07G08G13G19G28G23G11
  20070281.64146  15687294.28542  24360933.3834                   24360941.3594
  10155845.09046  12374423.05542  23225718.7894                   23225721.3554
 -13615120.06647 -10564774.51245  20305669.8524                   20305666.6024
 -19618468.06247 -15254009.53945  21167969.0234                   21167967.7624
   8662617.40647   6772834.86344  22098655.0944                   22098654.5664
   2372723.20347   1876920.28544  22218878.5784                   22218875.2624
  -8653979.89547  -6437203.73444  22493156.7664                   22493154.3094
  19813461.19146  15450639.37143  24118536.8054                   24118539.8054
 -11968933.13347  -7196673.71944  21897686.7194                   21897684.8014
 11  8 16 18 12 30.0000000  0  9G17G24G07G08G13G19G28G23G11
  19869492.94146  15530835.89142  24322724.0944                   24322732.8364
   9989332.91046  12244673.42642  23194032.4454                   23194035.5554
 -13731027.14147 -10655091.73445  20283612.9534                   20283610.6804
 -19779860.82847 -15379770.12945  21137257.2814                   21137255.5164
   8665868.52747   6775368.07044  22099274.4144                   22099273.9614
   2359429.93447   1866561.82844  22216348.8834                   22216345.9574
  -8783808.07047  -6538368.57044  22468451.2974                   22468448.9804
  19831125.34846  15464403.26642  24121898.9534                   24121901.9534
 -12113004.10547  -7308936.81644  21870270.3134                   21870268.7704
 11  8 16 18 13  0.0000000  0  9G17G24G07G08G13G19G28G23G11
  19668784.20746  15374439.88742  24284530.2734                   24284537.9224
   9822939.863 6                  23162369.180
 -13846618.86347 -10745163.22345  20261616.6334                   20261613.8634
 -19941121.41047 -15505427.72345  21106570.2734                   21106568.7934
   8669340.53147   6778073.39144  22099934.8754                   22099934.4804
   2346448.13347   1856446.09044  22213878.7974                   22213874.9614
  -8913548.34047  -6639464.87544  22443762.1174                   22443760.6524
  19848746.97746  15478134.04742  24125253.2974                   24125255.3054
 -12256687.95347  -7420898.27344  21842928.7974                   21842926.9694
 11  8 16 18 13 30.0000000  0  9G17G24G07G08G13G19G28G23G11
  19468160.25446  15218109.93843  24246352.1094                   24246357.7194
   9656671.754 5                  23130728.547
 -13961890.46147 -10834985.27345  20239681.4454                   20239678.4804
 -20102245.19947 -15630978.73445  21075909.8134                   21075907.6094
   8673033.42247   6780950.81644  22100637.5164                   22100637.4574
   2333777.68447   1846572.95344  22211467.1094                   22211463.3714
  -9043198.29747  -6740490.81244  22419090.8364                   22419088.5434
  19866326.07046  15491831.63742  24128597.5864                   24128601.7074
 -12399979.28547  -7532553.85544  21815660.7894                   21815659.3954
 11  8 16 18 14  0.0000000  0  9G17G24G07G08G13G19G28G23G11
  20843053.55946  16289455.75043  24507985.4304                   24507989.7544
  11065960.992 5                  23398908.969
 -12501412.42247  -9696950.45345  20517601.2734                   20517598.5474
 -18687800.53147 -14528814.06245  21345069.6254                   21345067.6954
  10252367.92247   8011600.93044  22401175.3444                   22401174.7424
   3896839.91047   3064543.48044  22508908.6724                   22508904.4494
  -7597331.06647  -5613841.00844  22694229.9064                   22694227.9924
  21459283.32046  16733096.70742  24431728.0864                   24431731.4804
 -10967447.42647  -6416295.25844  22088262.4384                   22088261.4774
 11  8 16 18 14 30.0000000  0  9G17G24G07G08G13G19G28G23G11
  20642616.89846  16133271.64143  24469843.2734                   24469847.7934
  10899963.750 6                  23367320.602
 -12616026.80547  -9786260.40245  20495790.5314                   20495788.1524
 -18848632.00847 -14654137.31645  21314464.4614                   21314462.5314
  10256505.12947   8014824.58243  22401962.1254                   22401962.4184
   3884795.65247   3055158.28144  22506616.6564                   22506612.7424
  -7726792.05547  -5714719.69944  22669594.5394                   22669591.9534
  21476780.90646  16746730.86342  24435058.1884                   24435062.2344
 -11109934.67647  -6527324.27344  22061148.6334                   22061147.3324
 11  8 16 18 15  0.0000000  0  9G17G24G07G08G13G19G28G23G11
  20442280.10946  15977165.32443  24431719.9534                   24431725.2464
  10734109.406 6                  23335758.594
 -12730307.13347  -9875310.02345  20474043.8134                   20474040.6484
 -19009311.14547 -14779341.85245  21283888.0394                   21283886.0434
  10260862.48847   8018219.78144  22402792.0634                   22402791.1764
   3873063.27047   3046016.12144  22504384.0164                   22504380.6914
  -7856156.98047  -5815523.53144  22644976.7344                   22644974.6454
  21494236.37545  16760332.19142  24438379.4774                   24438384.2194
 -11252013.36747  -6638034.93044  22034111.9844                   22034110.1294
 11  8 16 18 15 30.0000000  0  9G17G24G07G08G13G19G28G23G11
  20242048.55546  15821141.01643  24393616.9224                   24393622.7584
  10568404.65646  13322395.59852  23304226.5004                   23304227.8834
 -12844247.94947  -9964095.09445  20452361.9614                   20452358.7114
 -19169831.77047 -14904422.87545  21253342.0944                   21253340.2304
  10265440.66447   8021787.07444  22403662.5314                   22403662.8094
   3861643.21547   3037117.32444  22502211.0394                   22502207.8094
  -7985422.93747  -5916250.24244  22620378.5474                   22620376.2814
  21511650.883 6                  24441694.797
 -11393677.53947  -6748422.58244  22007154.0944                   22007152.5594
 11  8 16 18 16  0.0000000  0  9G17G24G07G08G13G19G28G23G11
  20041925.91046  15665201.54743  24355535.2894                   24355540.7194
  10402854.34846  13193395.45343  23272722.8524                   23272725.3984
 -12957845.66847 -10052612.82045  20430745.0084                   20430742.1884
 -19330190.27047 -15029377.56245  21222826.5164                   21222824.9574
  10270238.41447   8025525.42244  22404576.3594                   22404576.2734
   3850534.42247   3028461.08244  22500096.8524                   22500093.8554
  -8114589.61347  -6016899.59044  22595798.6564                   22595796.8364
  21529023.184 6                  24445000.859
 -11534923.09847  -6858484.03544  21980275.3594                   21980274.2384
 11  8 16 18 16 30.0000000  0  9G17G24G07G08G13G19G28G23G11
  19841915.62146  15509349.65643  24317474.4924                   24317479.9104
  10237462.93446  13064519.09443  23241250.4774                   23241252.8134
 -13071097.99247 -10140861.40645  20409193.8524                   20409190.7664
 -19490383.37547 -15154203.37545  21192343.0004                   21192341.4694
  10275253.48847   8029433.09444  22405531.2814                   22405530.8874
   3839735.17247   3020046.04744  22498041.6724                   22498038.0634
  -8243656.73847  -6117471.34044  22571237.8754                   22571236.3794
  21546351.48446  16771233.35952  24448297.8054                   24448299.8284
 -11675746.25847  -6968216.36344  21953478.1094                   21953475.7234
 11  8 16 18 17  0.0000000  0  9G17G24G07G08G13G19G28G23G11
  19642020.07046  15353587.19943  24279435.6414                   24279440.1954
  10072233.48946  12935768.96743  23209807.8594                   23209810.3524
 -13184002.51247 -10228838.98045  20387708.5084                   20387706.1094
 -19650408.09847 -15278897.97745  21161891.1174                   21161889.3444
  10280483.73847   8033508.48044  22406525.9844                   22406526.2974
   3829243.14547   3011870.38344  22496045.4224                   22496042.1844
  -8372624.57047  -6217965.73844  22546696.9534                   22546694.4064
  21563633.77346  16784699.69543  24451587.8134                   24451590.1294
 -11816144.46547  -7077617.55544  21926761.1174                   21926759.0394
 11  8 16 18 17 30.0000000  0  9G17G24G07G08G13G19G28G23G11
  19442237.75846  15197912.93843  24241417.5944                   24241422.0784
   9907165.82446  12807144.87143  23178396.1884                   23178398.7304
 -13296560.82047 -10316546.77345  20366289.2814                   20366286.7894
 -19810265.71547 -15403462.36745  21131471.6954                   21131469.7814
  10285922.24647   8037746.13344  22407561.2584                   22407561.1804
   3819051.95747   3003929.16444  22494106.1254                   22494102.4574
  -8501497.51247  -6318386.19544  22522172.6724                   22522170.1454
  21580863.95746  16798125.52343  24454866.3284                   24454869.2304
 -11956118.77047  -7186688.41444  21900124.6564                   21900122.5744
 11  8 16 18 18  0.0000000  0  8G17G24G07G08G13G19G28G11
  19242569.27046  15042327.35242  24203420.3674                   24203425.7034
   9742261.52346  12678648.07843  23147016.3054                   23147017.7584
 -13408772.52047 -10403984.48845  20344936.5634                   20344933.4694
 -19969955.33647 -15527895.85545  21101083.6334                   21101081.8204
  10291564.65647   8042142.65244  22408635.4224                   22408635.3794
   3809157.50047   2996219.15644  22492223.4774                   22492219.9804
  -8630277.90247  -6418734.53144  22497666.3914                   22497664.0554
 -12095668.13747  -7295428.15644  21873569.3914                   21873567.2344
 11  8 16 18 18 30.0000000  0  8G17G24G07G08G13G19G28G11
  19043017.24246  14886832.47342  24165447.6414                   24165452.5594
   9577524.29746  12550281.47343  23115668.0554                   23115669.4924
 -13520635.66047 -10491150.59445  20323649.7504                   20323647.2074
 -20129473.98447 -15652196.10945  21070728.4454                   21070726.2234
  10297408.23047   8046695.91844  22409747.2814                   22409747.6334
   3799557.26647   2988738.41044  22490396.5234                   22490393.0234
  -8758966.03547  -6519010.98444  22473177.6254                   22473175.9694
 -12234789.85947  -7403834.68444  21847096.0234                   21847093.4694
 11  8 16 18 19  0.0000000  0  8G17G24G07G08G13G19G28G11
  18843586.84046  14731432.40243  24127497.3984                   24127501.6684
   9412960.23846  12422049.79743  23084351.8834                   23084354.0004
 -13632145.79747 -10578041.63746  20302429.8674                   20302427.3404
 -20288816.38747 -15776359.03545  21040406.3444                   21040404.4264
  10303453.09447   8051406.02744  22410898.1414                   22410897.9774
   3790251.79747   2981487.32044  22488626.0474                   22488621.9694
  -8887560.35547  -6619214.32844  22448707.2114                   22448705.5234
 -12373478.52047  -7511903.74644  21820704.4144                   21820702.2894
 11  8 16 18 19 30.0000000  0  8G17G24G07G08G13G19G28G11
  18644279.30946  14576128.06343  24089571.0704                   24089574.9224
   9248571.60246  12293954.86343  23053070.5474                   23053072.0434
 -13743301.47347 -10664656.47346  20281277.7344                   20281274.8324
 -20447981.12147 -15900383.52045  21010118.4694                   21010116.4344
  10309695.54747   8056270.11744  22412086.0164                   22412085.5204
   3781237.00047   2974462.76244  22486910.2114                   22486906.7894
  -9016062.11347  -6719345.55144  22424254.2974                   22424252.0204
 -12511732.67247  -7619634.24244  21794395.1484                   21794393.1524
 11  8 16 18 20  0.0000000  0  8G17G24G07G08G13G19G28G11
  18445100.34046  14420923.87543  24051668.5084                   24051672.5004
   9084365.07846  12166001.78543  23021823.3134                   23021824.2424
 -13854097.37147 -10750990.96546  20260193.7034                   20260191.2344
 -20606962.49647 -16024265.11345  20979865.1334                   20979863.5314
  10316136.02047   8061288.49244  22413311.4774                   22413311.1564
   3772513.98847   2967665.53544  22485250.5004                   22485246.6764
  -9144468.62547  -6819402.57444  22399819.2584                   22399816.9454
 -12649546.28947  -7727021.46944  21768169.7894                   21768168.0004
 11  8 16 18 20 30.0000000  0  8G17G24G07G08G13G19G28G11
  18246049.85546  14265819.85243  24013791.1094                   24013794.5434
   8920342.01247  12038191.64543  22990610.2424                   22990611.7894
 -13964533.84047 -10837045.37146  20239178.6334                   20239176.2624
 -20765759.76647 -16148003.25045  20949646.9774                   20949645.1334
  10322769.50847   8066457.24644  22414574.6644                   22414573.2894
   3764078.16046   2961092.11344  22483645.0394                   22483641.6524
  -9272782.69147  -6919387.56644  22375402.3444                   22375399.5044
 -12786919.04747  -7834065.17244  21742028.9534                   21742027.1294
 11  8 16 18 21  0.0000000  0  9G17G24G07G08G26G13G19G28G11
  18047127.23846  14110815.43043  23975936.6024                   23975940.6294
   8756502.68046  11910524.70343  22959432.0394                   22959434.2304
 -14074612.00047 -10922820.59046  20218231.1024                   20218228.7814
 -20924373.00047 -16271597.98445  20919463.7974                   20919461.6954
  23283811.52055  18249642.35552  24099047.3594                   24099046.4224
  10329590.10247   8071771.80544  22415872.8364                   22415871.8984
   3755923.54746   2954737.81344  22482093.5314                   22482089.7584
  -9401007.89547  -7019303.30144  22351001.5004                   22350999.5514
 -12923851.20347  -7940765.55144  21715971.5944                   21715969.8794
 11  8 16 18 21 30.0000000  0  9G17G24G07G08G26G13G19G28G11
  17848327.05946  13955906.43044  23938105.3204                   23938109.8914
   8592842.65246  11782997.46143  22928289.3204                   22928290.2734
 -14184337.53547 -11008321.03946  20197351.2504                   20197348.6604
 -21082807.94147 -16395053.78946  20889314.7274                   20889312.6994
  23098293.00045  18105082.46942  24063744.3054                   24063744.2274
  10336587.06647   8077223.80144  22417204.1254                   22417203.3754
   3748039.73047   2948594.55544  22480592.7344                   22480589.9064
  -9529152.84047  -7119156.50044  22326616.4694                   22326613.8674
 -13060348.10547  -8047126.76244  21689997.1484                   21689994.6254
 11  8 16 18 22  0.0000000  0  9G17G24G07G08G26G13G19G28G11
  19225071.23046  15028694.34443  24200090.1334                   24200094.9414
  10004783.65246  12883211.28943  23196971.8284                   23196973.7234
 -12718292.06648  -9865947.95346  20476330.7274                   20476327.6764
 -19665643.52047 -15290769.81245  21158991.5394                   21158990.3524
  24488542.89145  19188394.29742  24328298.1804                   24328300.1484
  11919170.66847   9310405.66044  22718359.5944                   22718358.8984
   5315837.71147   4170255.28144  22778935.4534                   22778931.8914
  -8081800.82047  -5991349.72744  22602038.9844                   22602036.0824
 -11620990.09047  -6925549.07444  21963897.6954                   21963896.1374
 11  8 16 18 22 30.0000000  0  9G17G24G07G08G26G13G19G28G11
  19026506.52746  14873968.87943  24162304.7974                   24162308.7034
   9841476.10946  12755958.70743  23165895.5164                   23165898.4924
 -12827323.02748  -9950907.16846  20455582.3284                   20455579.8834
 -19823729.85947 -15413953.98046  21128909.3984                   21128907.3634
  24303710.19146  19044368.75842  24293126.2584                   24293127.8794
  11926496.22747   9316113.69944  22719753.4844                   22719753.6764
   5308472.45347   4164516.06344  22777534.0784                   22777530.7464
  -8209802.87947  -6091091.58644  22577680.6174                   22577678.1374
 -11756625.71547  -7031239.16444  21938087.1884                   21938085.5634
 11  8 16 18 23  0.0000000  0  9G17G24G07G08G26G13G19G28G11
  18828064.32446  14719338.84443  24124542.6724                   24124546.0824
   9678351.26646  12628848.49643  23134853.9844                   23134855.5234
 -12936002.55948 -10035592.57046  20434901.8674                   20434899.1134
 -19981636.45348 -15536998.08246  21098860.5004                   21098859.0274
  24119225.99646  18900614.81642  24258021.4924                   24258022.1294
  11933983.07847   9321947.40644  22721178.5474                   22721178.1024
   5301363.58647   4158976.64144  22776181.3284                   22776177.8054
  -8337733.51647  -6190777.78544  22553336.0084                   22553333.8914
 -11891825.41047  -7136589.57444  21912359.8054                   21912357.9804
 11  8 16 18 23 30.0000000  0  9G17G24G07G08G26G13G19G28G11
  18629747.37146  14564806.36344  24086803.7814                   24086807.6764
   9515412.52046  12501883.25843  23103847.1094                   23103850.0204
 -13044328.62148 -10120002.51246  20414287.8754                   20414285.4304
 -20139360.73848 -15659900.12546  21068846.6254                   21068844.8754
  23935093.645 5                  24222981.070
  11941628.63347   9327904.81644  22722633.5554                   22722633.3554
   5294508.86347   4153635.26644  22774876.8984                   22774873.4024
  -8465592.82447  -6290408.39544  22529005.7034                   22529002.8284
 -12026586.75447  -7241598.39844  21886715.1644                   21886713.6764
 11  8 16 18 24  0.0000000  0  9G17G24G07G08G26G13G19G28G11
  18431558.93446  14410374.06643  24049089.8364                   24049094.3094
   9352665.06346  12375067.08243  23072877.6724                   23072879.7854
 -13152297.36748 -10204134.02746  20393742.1174                   20393739.8754
 -20296898.05947 -15782656.48046  21038868.3674                   21038866.4224
  23751318.117 5                  24188009.664
  11949431.88747   9333985.10243  22724118.8524                   22724118.7774
   5287907.43847   4148491.25444  22773620.7664                   22773617.1254
  -8593379.75447  -6389982.61344  22504688.4224                   22504685.7384
 -12160905.45747  -7346262.30144  21861155.4614                   21861153.5784
 11  8 16 18 24 30.0000000  0  9G17G24G07G08G26G13G19G28G11
  18233501.48846  14256043.85543  24011400.6724                   24011404.7624
   9190112.02346  12248402.41043  23041946.1334                   23041946.6414
 -13259907.20348 -10287985.87946  20373264.8054                   20373262.2074
 -20454246.34448 -15905265.53546  21008925.7664                   21008924.1174
  23567901.88345  18821387.58252  24153106.8054                   24153107.4804
  11957389.82047   9340185.91844  22725633.4224                   22725633.1644
   5281556.64847   4143542.53544  22772412.5554                   22772408.6604
  -8721094.97747  -6489500.94544  22480384.7274                   22480382.6994
 -12294779.44147  -7450579.68744  21835680.1094                   21835678.2934
 11  8 16 18 25  0.0000000  0  9G17G24G07G08G26G13G19G28G11
  18035577.64846  14101817.77743  23973736.2664                   23973740.6684
   9027757.03546  12121892.07443  23011050.7424                   23011051.9654
 -13367155.80148 -10371556.24246  20352855.9774                   20352853.7154
 -20611402.34448 -16027724.75046  20979020.2814                   20979018.5824
  23384848.82446  18678748.75042  24118272.6414                   24118274.3594
  11965500.08247   9346505.39843  22727176.9614                   22727177.2114
   5275454.24247   4138787.38744  22771251.1644                   22771246.9924
  -8848739.02047  -6588963.82444  22456094.6884                   22456092.5514
 -12428205.87547  -7554548.33244  21810288.7664                   21810288.2504
 11  8 16 18 25 30.0000000  0  9G17G24G07G08G26G13G19G28G11
  17837790.10246  13947697.84843  23936098.8594                   23936101.8324
   8865603.60546  11995538.78943  22980193.9844                   22980194.8674
 -13474041.11748 -10454843.53146  20332516.1954                   20332513.9024
 -20768362.87547 -16150031.66046  20949151.4534                   20949149.7664
  23202161.82446  18536395.31343  24083508.3524                   24083509.7544
  11973760.12147   9352941.58643  22728748.6724                   22728749.1374
   5269597.98846   4134224.01244  22770136.7274                   22770133.1724
  -8976312.18447  -6688371.46944  22431817.8754                   22431816.4804
 -12561182.09847  -7658166.15644  21784985.1024                   21784982.9574
 11  8 16 18 26  0.0000000  0  9G17G24G07G08G26G13G19G28G11
  17640141.78546  13793686.42243  23898486.3284                   23898489.1914
   8703656.16446  11869345.92643  22949374.9694                   22949377.1764
 -13580560.34448 -10537845.55946  20312246.7974                   20312243.7234
 -20925124.61748 -16272183.66446  20919320.8364                   20919319.2624
  23019844.92646  18394330.19143  24048816.0314                   24048814.8054
  11982167.91047   9359492.93043  22730348.4304                   22730348.9344
   5263986.12946   4129851.05544  22769069.0944                   22769064.8984
  -9103814.07847  -6787723.59444  22407555.6334                   22407553.6994
 -12693704.96147  -7761430.72744  21759766.7114                   21759764.7464
 11  8 16 18 26 30.0000000  0  9G17G24G07G08G26G13G19G28G11
  17442638.05146  13639787.64843  23860902.9144                   23860905.8984
   8541921.16846  11743318.71542  22918598.3284                   22918599.7584
 -13686708.45748 -10620558.39846  20292047.2814                   20292044.4304
 -21081682.23448 -16394176.61346  20889528.9774                   20889527.1024
  22837904.40646  18252558.35942  24014193.6884                   24014192.2664
  11990723.82447   9366159.68443  22731976.5704                   22731976.6724
   5258619.28146   4125669.04344  22768047.3594                   22768043.7074
  -9231242.07847  -6887018.13344  22383307.1954                   22383304.8874
 -12825768.84847  -7864337.64844  21734635.6414                   21734634.2504
 11  8 16 18 27  0.0000000  0  9G17G24G07G08G26G13G19G28G11
  17245284.74646  13486006.12943  23823346.9844                   23823350.9534
   8380405.43446  11617462.33243  22887862.6884                   22887864.1334
 -13792480.40248 -10702978.11346  20271919.2974                   20271917.1024
 -21238029.12948 -16516005.36746  20859777.0314                   20859775.4224
  22656346.51646  18111084.73042  23979643.3284                   23979643.3054
  11999428.50046   9372942.33643  22733632.7894                   22733634.7894
   5253498.06647   4121678.42644  22767072.6254                   22767069.5004
  -9358593.53947  -6986253.02344  22359072.5234                   22359070.1294
 -12957368.27747  -7966882.64844  21709592.7974                   21709591.5044
 11  8 16 18 27 30.0000000  0  9G17G24G07G08G26G13G19G28G11
  17048084.30546  13332343.70743  23785821.6254                   23785824.9024
   8219112.45746  11491779.56643  22857170.3834                   22857171.1214
 -13897873.90648 -10785102.95346  20251863.5784                   20251861.1804
 -21394162.55548 -16637667.78546  20830066.0394                   20830064.0314
  22475174.37546  17969911.56642  23945166.4694                   23945167.3164
  12008279.15646   9379838.71943  22735318.0084                   22735318.5234
   5248620.52347   4117877.68444  22766144.8834                   22766141.3714
  -9485868.55947  -7085428.34444  22334852.7034                   22334851.0904
 -13088500.35947  -8069063.48844  21684639.4534                   21684637.4454
 11  8 16 18 28  0.0000000  0  9G17G24G07G08G26G13G19G28G11
  16851040.59046  13178803.33643  23748325.0164                   23748328.6454
   8058047.30146  11366274.27343  22826519.7734                   22826521.6024
 -14002885.49648 -10866930.19946  20231880.5704                   20231878.4414
 -21550077.83648 -16759160.21146  20800396.3834                   20800394.3404
  22294392.73846  17829042.82042  23910765.5474                   23910766.5314
  12017275.07047   9386848.32843  22737029.4694                   22737030.9494
   5243985.79347   4114266.13344  22765262.8914                   22765259.4064
  -9613066.62147  -7184543.72344  22310647.8754                   22310646.0594
 -13219160.89547  -8170876.87944  21659775.7274                   21659773.5984
 11  8 16 18 28 30.0000000  0  9G17G24G07G08G26G13G19G28G11
  16654158.79746  13025389.18443  23710859.2274                   23710862.9924
   7897216.21546  11240951.37543  22795915.2504                   22795916.1884
 -14107510.32048 -10948456.05146  20211971.0784                   20211968.7154
 -21705769.59848 -16880478.48046  20770769.3914                   20770767.5164
  22114007.35246  17688482.78143  23876439.4384                   23876440.6374
  12026416.05947   9393970.96943  22738769.4384                   22738770.5704
   5239594.27347   4110844.12944  22764427.4844                   22764424.0044
  -9740184.94147  -7283596.94544  22286457.8134                   22286455.9414
 -13349345.09847  -8272319.10544  21635002.2894                   21635000.9264
 11  8 16 18 29  0.0000000  0  9G17G24G07G08G26G13G19G28G11
  16457447.97346  12872108.22743  23673427.0634                   23673430.5864
   7736629.32446  11115818.78143  22765356.4384                   22765358.0744
 -14211740.00448 -11029674.01646  20192137.1094                   20192134.9694
 -21861228.18448 -17001615.05146  20741186.3054                   20741184.3364
  21934028.18446  17548239.32443  23842190.8594                   23842191.8954
  12035706.42247   9401210.01644  22740538.0944                   22740538.8914
   5235450.01647   4107614.75444  22763638.8754                   22763635.9574
  -9867217.15247  -7382583.09044  22262284.5784                   22262281.8594
 -13479044.07447  -8373383.23844  21610321.0784                   21610319.8094
 11  8 16 18 29 30.0000000  0  9G17G24G07G08G26G13G19G28G11
  16260910.56346  12718962.39844  23636027.2504                   23636030.2814
   7576290.08246  10990879.17643  22734844.5314                   22734846.3954
 -14315572.37948 -11110582.37946  20172378.0864                   20172375.8914
 -22016451.08248 -17122567.95346  20711648.5234                   20711646.1684
  21754458.48446  17408314.88343  23808020.8284                   23808020.6214
  12045143.29347   9408563.20744  22742333.1804                   22742334.7734
   5231550.76646   4104576.30944  22762896.2274                   22762893.5084
  -9994164.05546  -7481502.75444  22238127.1334                   22238125.2304
 -13608255.14847  -8474067.18044  21585733.5704                   21585731.8634
 11  8 16 18 30  0.0000000  0  9G17G24G07G08G26G13G19G28G11
  17639975.21546  13793558.45744  23898453.7974                   23898457.6684
   8991627.26246  12093739.40243  23004174.5004                   23004176.0234
 -12843582.29348  -9963577.12546  20452488.9534                   20452486.2774
 -20596009.91848 -16015730.69146  20981949.2194                   20981947.1644
  23150726.96945  18496316.30943  24073721.7424                   24073721.7974
  13630143.87947  10643628.37543  23043949.3914                   23043950.4774
   6803314.30147   5329327.06344  23061993.2894                   23061990.2974
  -8545601.64147  -6352752.84044  22513779.6564                   22513777.5394
 -12161551.72347  -7346765.80545  21861032.2504                   21861030.3164
 11  8 16 18 30 30.0000000  0  9G17G24G07G08G26G13G19G28G11
  17443794.15646  13640690.34843  23861121.0314                   23861124.7624
   8831796.45746  11969195.95343  22973760.1334                   22973761.1684
 -12946611.49648 -10043859.64846  20432883.4304                   20432880.8554
 -20750749.50047 -16136306.98846  20952503.5084                   20952501.5164
  22971987.62945  18357039.05543  24039707.8984                   24039708.9534
  13639868.62947  10651205.88744  23045800.1724                   23045800.7344
   6799900.54347   5326666.93044  23061343.9144                   23061340.9414
  -8672376.00846  -6451538.06244  22489655.3984                   22489653.8324
 -12289777.44147  -7446681.93044  21836631.9454                   21836630.0204
 11  8 16 18 31  0.0000000  0  9G17G24G07G08G26G13G19G28G11
  17247796.62146  13487965.20743  23823824.4064                   23823827.1564
   8672226.73846  11844855.98043  22943394.7114                   22943395.9344
 -13049234.73448 -10123825.83646  20413354.6484                   20413352.2974
 -20905241.33648 -16256690.23446  20923104.3594                   20923102.6334
  22793669.88746  18218090.16842  24005775.4534                   24005775.8674
  13649735.36747  10658894.04743  23047677.8524                   23047678.8134
   6796727.66046   5324194.50844  23060739.9304                   23060737.1214
  -8799062.94147  -6550255.16444  22465546.9694                   22465545.5864
 -12417505.14847  -7546210.00444  21812325.6254                   21812323.8324
 11  8 16 18 31 30.0000000  0  9G17G24G07G08G26G13G19G28G11
  17051985.55146  13335385.37543  23786562.6174                   23786566.3054
   8512922.23446  11720722.69143  22913080.4614                   22913081.0824
 -13151449.47748 -10203473.71546  20393903.5634                   20393901.9804
 -21059481.99648 -16376877.76246  20893753.6564                   20893751.7424
  22615777.43046  18079472.65642  23971922.9924                   23971923.6334
  13659741.74646  10666690.98843  23049582.0394                   23049583.1564
   6793793.92246   5321908.43043  23060181.5234                   23060178.3594
  -8925662.94947  -6648904.53144  22441456.2344                   22441454.9384
 -12544731.94547  -7645347.75045  21788115.1884                   21788113.1884
 11  8 16 18 32  0.0000000  0  9G17G24G07G08G26G13G19G28G11
  16856363.26246  13182952.62143  23749336.6174                   23749339.9144
   8353886.42246  11596798.78543  22882816.1024                   22882817.3554
 -13253253.33247 -10282801.42246  20374531.0864                   20374528.6994
 -21213468.65248 -16496867.36346  20864450.8204                   20864448.5784
  22438313.24646  17941188.86343  23938153.0394                   23938153.5474
  13669885.37946  10674594.89143  23051512.0784                   23051513.4264
   6791096.82846   5319806.74243  23059668.5944                   23059665.1914
  -9052175.55547  -6747485.77344  22417381.2584                   22417379.8364
 -12671455.52747  -7744093.38345  21764001.0314                   21763998.7344
 11  8 16 18 32 30.0000000  0  9G17G24G07G08G26G13G19G28G11
  16660931.07046  13030668.04744  23712147.0314                   23712150.6454
   8195121.58646  11473086.02044  22852604.9614                   22852606.1884
 -13354645.93048 -10361808.66446  20355236.8834                   20355234.6994
 -21367199.31648 -16616657.49646  20835196.9844                   20835195.0744
  22261279.30946  17803240.28542  23904465.3594                   23904464.5594
  13680162.48046  10682602.80143  23053468.0004                   23053469.2934
   6788633.33246   5317887.09443  23059200.2504                   23059196.3834
  -9178602.92647  -6846000.61744  22393323.8834                   22393321.4414
 -12797674.60247  -7842445.90245  21739982.2424                   21739980.1914
 11  8 16 18 33  0.0000000  0  9G17G24G07G08G26G13G19G28G11
  16465691.71946  12878533.74644  23674994.6804                   23674997.4144
   8036631.59046  11349587.41043  22822444.9384                   22822445.8554
 -13455624.59047 -10440493.34846  20336021.0634                   20336018.7814
 -21520670.74248 -16736245.61346  20805992.3754                   20805990.1454
  22084678.82046  17665629.55942  23870858.1954                   23870858.7034
  13690570.84446  10690713.01243  23055449.2584                   23055450.0354
   6786401.25847   5316147.77043  23058775.1884                   23058771.9104
  -9304944.76647  -6944448.81644  22369281.5474                   22369279.6334
 -12923386.89147  -7940403.53145  21716059.5634                   21716058.1214
 11  8 16 18 33 30.0000000  0  9G17G24G07G08G26G13G19G28G11
  16270646.01646  12726550.28944  23637878.5164                   23637881.0944
   7878418.40246  11226304.48043  22792336.9614                   22792338.7114
 -13556189.71147 -10518855.79346  20316884.2424                   20316881.8014
 -21673881.71948 -16855630.78946  20776837.1804                   20776835.3674
  21908513.57046  17528358.01243  23837335.0164                   23837335.4844
  13701106.29747  10698922.23843  23057453.8364                   23057454.6454
   6784396.15246   5314585.29743  23058393.9144                   23058390.0234
  -9431202.77747  -7042831.66444  22345255.1414                   22345252.9454
 -13048591.77747  -8037965.75845  21692233.5704                   21692232.2974
 11  8 16 18 34  0.0000000  0  9G17G24G07G08G26G13G19G28G11
  16075794.53946  12574718.21943  23600798.8674                   23600801.9024
   7720483.59046  11103238.46543  22762283.5864                   22762284.6214
 -13656340.68447 -10596895.53546  20297825.7034                   20297823.9614
 -21826831.03548 -16974812.07446  20747731.6174                   20747730.1214
  21732784.58246  17391426.34443  23803895.4064                   23803896.1254
  13711764.26246  10707226.92243  23059482.2194                   23059483.4454
   6782614.64546   5313197.07044  23058054.7504                   23058051.3244
  -9557379.46147  -7141151.14544  22321244.5704                   22321242.4534
 -13173288.30547  -8135131.86345  21668504.7584                   21668503.5234
 11  8 16 18 34 30.0000000  0  9G17G24G07G08G26G13G19G28G11
  15881138.48046  12423038.40644  23563756.3204                   23563759.2114
   7562829.46946  10980391.15243  22732283.1484                   22732283.9144
 -13756077.07447 -10674612.21546  20278846.6414                   20278844.8164
 -21979517.36748 -17093788.43746  20718676.4144                   20718674.9064
  21557493.59846  17254836.00443  23770537.1564                   23770538.6294
  13722540.93046  10715624.09843  23061533.5234                   23061534.8524
   6781052.95346   5311980.07843  23057756.8984                   23057754.7344
  -9683476.34447  -7239408.43744  22297249.0784                   22297246.7934
 -13297475.84847  -8231901.37545  21644872.9534                   21644871.1884
 11  8 16 18 35  0.0000000  0  9G17G24G07G08G26G13G19G28G11
  15686679.03147  12271511.79344  23526752.2664                   23526754.6684
   7405458.57446  10857764.57843  22702335.6564                   22702337.2274
 -13855397.55547 -10752004.83246  20259947.1954                   20259944.8284
 -22131938.04748 -17212557.80146  20689672.0784                   20689670.5594
  21382642.78146  17118588.62143  23737265.1094                   23737264.7544
  13733433.18046  10724111.33243  23063606.5634                   23063607.7464
   6779707.91046   5310931.95343  23057501.5944                   23057498.5864
  -9809494.69547  -7337604.52744  22273269.3134                   22273266.7304
 -13421152.73847  -8328272.96145  21621338.0164                   21621336.6484
 11  8 16 18 35 30.0000000  0  9G17G24G07G08G26G13G19G28G11
  15492418.63746  12120140.29743  23489785.5784                   23489788.0944
   7248374.34446  10735361.34843  22672443.4304                   22672445.6054
 -13954300.49247 -10829072.07046  20241126.7194                   20241123.8714
 -22284090.21948 -17331117.93446  20660718.1724                   20660716.2734
  21208235.15246  16982686.55543  23704076.6724                   23704076.1054
  13744438.35246  10732686.55143  23065700.8914                   23065702.4184
   6778577.03546   5310050.71144  23057286.0004                   23057282.8594
  -9935435.07847  -7435739.86344  22249303.0314                   22249300.7624
 -13544317.04347  -8424245.13345  21597900.3524                   21597898.6374
 11  8 16 18 36  0.0000000  0  9G17G24G07G08G26G13G19G28G11
  15298359.09846  11968925.29343  23452856.8984                   23452859.3794
   7091579.41046  10613183.53943  22642607.3054                   22642608.0004
 -14052784.78147 -10905813.09446  20222385.5164                   20222383.2234
 -22435971.78148 -17449467.21146  20631816.4614                   20631814.3484
  21034273.22746  16847131.77343  23670973.1724                   23670972.8054
  13755552.96946  10741347.12943  23067815.1884                   23067817.2304
   6777657.46946   5309334.10544  23057111.6644                   23057108.2234
 -10061298.20747  -7533815.00044  22225352.5784                   22225350.0044
 -13666967.39147  -8519816.80945  21574560.7584                   21574558.9774
 11  8 16 18 36 30.0000000  0  9G17G24G07G08G26G13G19G28G11
  15104500.77747  11817867.07044  23415968.1414                   23415969.7934
   6935075.55946  10491232.55943  22612824.6334                   22612826.3324
 -14150850.50047 -10982227.96146  20203724.4304                   20203722.1134
 -22587581.28148 -17567604.48846  20602965.8594                   20602964.0704
  20860757.69146  16711924.89543  23637955.0634                   23637953.7894
  13766772.76646  10750089.60943  23069950.3524                   23069952.3754
   6776944.91446   5308778.79344  23056975.7504                   23056973.2974
 -10187086.18047  -7631831.57444  22201415.6724                   22201413.0474
 -13789103.48047  -8614987.77045  21551319.3364                   21551317.4064
 11  8 16 18 37  0.0000000  0  9G17G24G07G08G26G13G19G28G11
  14910847.55947  11666968.65244  23379116.2894                   23379118.6684
   6778867.68446  10369512.21543  22583099.1094                   22583100.7274
 -14248493.93047 -11058313.77046  20185142.7814                   20185140.9344
 -22738915.05948 -17685526.91046  20574168.1564                   20574166.2584
  20687693.52045  16577069.73842  23605019.6644                   23605021.2624
  13778096.87946  10758913.37943  23072106.0864                   23072107.6764
   6776438.83646   5308384.38344  23056879.5084                   23056877.2664
 -10312797.77747  -7729788.62944  22177493.3364                   22177490.6914
 -13910721.52347  -8709755.06645  21528176.1884                   21528174.0664
 11  8 16 18 37 30.0000000  0  9G17G24G07G08G26G13G19G28G11
  14717404.25047  11516233.80944  23342304.2734                   23342307.8754
   6622961.76246  10248027.14843  22553431.3524                   22553432.3284
 -14345710.62547 -11134067.06646  20166643.3364                   20166641.4924
 -22889967.10948 -17803229.80946  20545423.8914                   20545422.2154
  20515085.87945  16442570.33643  23572174.1804                   23572175.2114
  13789525.10547  10767818.27343  23074281.3594                   23074283.6054
   6776139.46946   5308151.05543  23056823.0704                   23056819.5594
 -10438431.09047  -7827684.69144  22153586.2274                   22153583.8094
 -14031816.62947  -8804114.85245  21505132.2504                   21505130.3714
 11  8 16 18 38  0.0000000  0  9G17G24G07G08G26G13G19G28G11
  16099597.22747  12593267.50044  23605327.1414                   23605330.3524
   8042784.00046  11354382.21143  22823614.5474                   22823615.1174
 -12867078.50047  -9981886.22346  20448017.6804                   20448015.6374
 -21465311.91448 -16693108.88346  20816526.3674                   20816524.5554
  21918360.71946  17536031.25443  23839208.9534                   23839209.7304
  15376471.80147  12004399.86743  23376267.5704                   23376269.0984
   8351462.02046   6535675.05543  23356595.8914                   23356593.4924
  -8988564.52747  -6697918.52344  22429486.4224                   22429484.2504
 -12576965.77047  -7670464.82445  21781980.9844                   21781979.8524
 11  8 16 18 38 30.0000000  0  9G17G24G07G08G26G13G19G28G11
  15906575.44947  12442861.07444  23568596.1884                   23568599.4694
   7887486.89147  11233371.52043  22794063.2584                   22794063.4264
 -12963442.54347 -10056975.11746  20429680.0944                   20429678.1094
 -21615797.00448 -16810369.98846  20787890.3594                   20787888.6524
  21746669.51245  17402245.93043  23806536.4304                   23806538.1134
  15388095.20746  12013456.84843  23378479.0634                   23378480.8014
   8351564.00046   6535754.43444  23356616.2194                   23356613.6054
  -9114047.09047  -6795697.13744  22405607.6884                   22405605.6334
 -12697015.14547  -7764009.77045  21759136.4144                   21759134.7894
 11  8 16 18 39  0.0000000  0  9G17G24G07G08G26G13G19G28G11
  15713766.98446  12292620.91044  23531905.6174                   23531908.6334
   7732498.10546  11112601.09843  22764569.0004                   22764569.7154
 -13059378.55147 -10131730.48446  20411424.3984                   20411421.9064
 -21765995.14548 -16927407.50446  20759308.8834                   20759307.2934
  21575439.66845  17268820.06642  23773952.5554                   23773954.6724
  15399811.44546  12022586.13343  23380709.2274                   23380710.3324
   8351861.78947   6535986.40243  23356673.2194                   23356669.7274
  -9239456.25047  -6893418.54744  22381743.5004                   22381741.0594
 -12816539.13347  -7857145.33645  21736391.8674                   21736390.5434
 11  8 16 18 39 30.0000000  0  9G17G24G07G08G26G13G19G28G11
  15521173.63746  12142548.39844  23495256.1024                   23495259.0004
   7577820.77346  10992073.36344  22735135.5704                   22735136.4804
 -13154885.24647 -10206151.31645  20393250.4534                   20393247.9534
 -21915903.97748 -17044219.58646  20730781.6414                   20730780.0314
  21404673.90644  17135755.87942  23741454.0944                   23741458.9454
  15411617.33646  12031785.28543  23382955.7974                   23382957.2974
   8352352.72746   6536368.86744  23356766.6804                   23356764.2424
  -9364792.61747  -6991083.22744  22357892.2814                   22357890.0944
 -12935536.51647  -7949870.57045  21713747.1334                   21713745.3754
 11  8 16 18 40  0.0000000  0  9G17G24G07G08G26G13G19G28G11
  15328796.17647  11992644.06644  23458648.3054                   23458649.9024
   7423456.97347  10871789.96144  22705760.3284                   22705762.0864
 -13249961.85247 -10280237.02346  20375157.8914                   20375155.3984
 -22065522.01648 -17160805.07046  20702310.4064                   20702308.4384
  21234373.57055  17003054.37552  23709047.8364                   23709052.7304
  15423509.12546  12041051.35943  23385218.2274                   23385220.4964
   8353033.71946   6536899.44944  23356895.1254                   23356893.5084
  -9490057.30947  -7088692.05945  22334055.9384                   22334053.3094
 -13054006.84847  -8042185.10545  21691203.2664                   21691201.5274
 11  8 16 18 40 30.0000000  0  9G17G24G07G08G26G13G19G28G11
  15136637.54347  11842910.23444  23422081.6024                   23422083.2344
   7269411.19147  10751754.35244  22676446.6094                   22676447.8554
 -13344606.15647 -10353985.85946  20357147.7814                   20357145.1564
 -22214845.14548 -17277160.75845  20673895.6954                   20673894.0084
  21064542.47745  16870718.42642  23676731.1024                   23676733.4414
  15435485.31646  12050383.21543  23387497.6094                   23387499.7344
   8353903.00446   6537576.74244  23357061.5474                   23357058.5744
  -9615250.34847  -7186245.05545  22310231.8834                   22310229.8014
 -13171947.19147  -8134086.66845  21668759.8594                   21668758.1644
 11  8 16 18 41  0.0000000  0  9G17G24G07G08G26G13G19G28G11
  14944698.27747  11693347.35244  23385556.0944                   23385558.5084
   7115684.44547  10631967.34044  22647193.2274                   22647194.9774
 -13438818.55547 -10427398.15646  20339219.7894                   20339217.2274
 -22363872.41047 -17393285.91046  20645536.8984                   20645534.3284
  20895181.76246  16738749.07843  23644503.7814                   23644504.6724
  15447541.04746  12059777.00443  23389792.2584                   23389794.1334
   8354956.39146   6538397.51644  23357262.1484                   23357259.0514
  -9740373.91047  -7283743.92644  22286421.6334                   22286419.6524
 -13289357.59847  -8225575.28945  21646417.5864                   21646416.0394
 11  8 16 18 41 30.0000000  0  9G17G24G07G08G26G13G19G28G11
  14752983.44546  11543959.35544  23349074.2584                   23349077.2974
   6962282.70747  10512433.55944  22618001.8594                   22618003.5594
 -13532594.20348 -10500470.13746  20321374.7274                   20321372.2504
 -22512597.77048 -17509175.80145  20617234.7344                   20617233.3554
  20726296.60946  16607150.28143  23612366.8444                   23612367.0944
  15459676.59846  12069233.06342  23392101.5864                   23392103.9144
   8356194.41446   6539362.16043  23357497.5164                   23357494.1374
  -9865425.42247  -7381186.66444  22262625.4454                   22262623.3164
 -13406233.35947  -8316647.29745  21624177.0234                   21624175.0514
 11  8 16 18 42  0.0000000  0  9G17G24G07G08G26G13G19G28G11
  14561491.02346  11394744.62144  23312634.3984                   23312637.4734
   6809205.10946  10393152.35944  22588872.2424                   22588873.7934
 -13625936.23047 -10573204.21546  20303612.4924                   20303610.1884
 -22661023.18448 -17624831.97345  20588990.2814                   20588988.6914
  20557885.21146  16475920.64843  23580318.5634                   23580319.1914
  15471885.08646  12078745.92643  23394424.9304                   23394426.6334
   8357609.94946   6540465.09843  23357767.6024                   23357764.4184
  -9990409.97347  -7478577.21945  22238841.3364                   22238839.9024
 -13522577.12947  -8407304.77045  21602037.5864                   21602035.4694
 11  8 16 18 42 30.0000000  0  9G17G24G07G08G26G13G19G28G11
  14370219.40247  11245701.94144  23276235.8284                   23276239.3594
   6656451.21946  10274123.41044  22559803.9844                   22559805.5234
 -13718846.63347 -10645601.95746  20285932.2194                   20285929.5664
 -22809149.33647 -17740254.94945  20560803.1644                   20560801.2934
  20389946.90246  16345059.68043  23548361.1564                   23548361.5434
  15484160.14146  12088310.64543  23396761.1094                   23396763.4694
   8359197.65646   6541702.18443  23358069.2894                   23358066.5664
 -10115331.28947  -7575918.50045  22215070.2194                   22215067.9694
 -13638390.63347  -8497549.04345  21579998.8594                   21579996.8164
 11  8 16 18 43  0.0000000  0  9G17G24G07G08G26G13G19G28G11
  14179171.27746  11096833.40644  23239880.5704                   23239882.8404
   6504025.15647  10155349.90244  22530798.7974                   22530799.8834
 -13811322.79347 -10717661.32446  20268334.3674                   20268332.3054
 -22956972.66047 -17855441.96545  20532673.4694                   20532671.4614
  20222485.49646  16214570.28942  23516494.7344                   23516495.0904
  15496500.34046  12097926.17243  23399110.0314                   23399112.2774
   8360955.76946   6543072.08943  23358403.5864                   23358400.8164
 -10240188.89147  -7673210.14544  22191309.7734                   22191308.2074
 -13753671.09847  -8587377.96545  21558061.6334                   21558059.2234
 11  8 16 18 43 30.0000000  0  9G17G24G07G08G26G13G19G28G11
  13988348.21147  10948140.24244  23203568.2274                   23203570.2974
   6351929.46146  10036833.79744  22501855.3834                   22501857.0824
 -13903363.91847 -10789381.71546  20250819.6174                   20250817.3364
 -23104490.80147 -17970391.16445  20504601.5084                   20504599.7734
  20055502.71946  16084453.78142  23484718.4534                   23484719.1484
  15508902.14146  12107589.68443  23401470.1024                   23401473.1334
   8362881.12946   6544572.28943  23358770.5634                   23358767.8284
 -10364983.78547  -7770452.91045  22167562.8914                   22167560.5704
 -13868417.48447  -8676790.73045  21536226.6484                   21536223.8594
 11  8 16 18 44  0.0000000  0  9G17G24G07G08G26G13G19G28G11
  13797755.51246  10799626.59444  23167299.8284                   23167300.0314
   6200170.42247   9918580.05544  22472976.7504                   22472977.9884
 -13994965.40248 -10860759.52746  20233388.2894                   20233386.0394
 -23251697.89847 -18085098.00445  20476589.2194                   20476586.7234
  19889003.95346  15954714.48042  23453035.2034                   23453035.4184
  15521365.84046  12117301.40643  23403842.3054                   23403844.3284
   8364974.90246   6546203.75843  23359169.1174                   23359165.9414
 -10489713.61347  -7867644.98045  22143827.0234                   22143825.1054
 -13982625.24247  -8765783.76645  21514493.1954                   21514490.6254
 11  8 16 18 44 30.0000000  0  9G17G24G07G08G26G13G19G28G11
  13607394.67646  10651293.61344  23131075.3284                   23131075.4384
   6048750.37146   9800590.44544  22444162.1644                   22444163.6764
 -14086126.35947 -10931794.06646  20216040.9924                   20216039.0824
 -23398591.27347 -18199560.37945  20448636.0634                   20448634.6134
  19722991.53546  15825354.10943  23421444.0554                   23421444.8404
  15533888.52746  12127059.09843  23406225.0004                   23406227.3554
   8367233.75846   6547963.82443  23359599.1334                   23359596.1414
 -10614379.39147  -7964787.12145  22120104.2974                   22120101.8244
 -14096293.44547  -8854356.39144  21492862.4534                   21492860.4804
 11  8 16 18 45  0.0000000  0  9G17G24G07G08G26G13G19G28G11
  13417267.44946  10503142.64143  23094894.5944                   23094896.1054
   5897672.19146   9682867.25444  22415413.5784                   22415414.2154
 -14176845.77347 -11002484.54746  20198778.0634                   20198775.0084
 -23545168.70747 -18313776.57445  20420742.9694                   20420741.4064
  19557467.57046  15696374.40643  23389945.5474                   23389946.7504
  15546467.17646  12136860.38743  23408619.0004                   23408621.2344
   8369655.15246   6549850.56643  23360059.6644                   23360057.3204
 -10738981.52347  -8061879.68045  22096393.0314                   22096391.0984
 -14209420.77047  -8942507.53945  21471334.9304                   21471333.0274
 11  8 16 18 45 30.0000000  0  9G17G24G07G08G26G13G19G28G11
  13227377.27046  10355176.42644  23058760.1094                   23058761.6024
   5746940.77046   9565414.23844  22386729.8364                   22386731.0164
 -14267120.39847 -11072828.43446  20181599.0554                   20181597.4224
 -23691426.15247 -18427743.41845  20392911.3524                   20392909.6644
  19392436.12945  15567778.53542  23358541.3284                   23358542.3984
  15559100.44146  12146704.22343  23411023.1414                   23411025.1524
   8372238.21146   6551863.28543  23360551.1644                   23360548.6024
 -10863518.79347  -8158921.69545  22072694.0474                   22072692.2114
 -14322004.01647  -9030234.72744  21449911.4304                   21449909.5394
 11  8 16 18 46  0.0000000  0  9G17G24G07G08G26G13G19G28G11
  14613152.85246  11435001.70743  23322463.7974                   23322466.2774
   7171984.58246  10675838.02344  22657906.3754                   22657907.6684
 -12781525.87947  -9915222.32446  20464298.3754                   20464295.9384
 -22261935.73047 -17313854.78145  20664934.3054                   20664932.5824
  20803325.48845  16667172.85942  23627023.7504                   23627026.0354
  17147205.57446  13384188.43043  23713228.7734                   23713232.2424
   9950400.88746   7781600.38343  23660865.9534                   23660863.2154
  -9412567.51647  -7028310.28945  22348801.4844                   22348799.6374
 -12858617.66847  -7889933.66045  21728384.3444                   21728382.3324
 11  8 16 18 46 30.0000000  0  9G17G24G07G08G26G13G19G28G11
  14423744.09846  11287410.63344  23286420.4304                   23286422.2384
   7021956.98846  10558933.45344  22629356.7734                   22629358.0824
 -12870906.12547  -9984869.28946  20447289.9694                   20447287.7344
 -22407543.50847 -17427315.39545  20637226.1094                   20637224.7624
  20639287.60546  16539351.14542  23595808.7814                   23595810.3094
  17159941.42646  13394112.15642  23715651.8284                   23715655.9654
   9953301.34446   7783860.42243  23661417.2974                   23661415.0704
  -9536975.77347  -7125251.77345  22325127.0164                   22325125.0314
 -12970107.32047  -7976808.70745  21707169.0554                   21707166.7664
 11  8 16 18 47  0.0000000  0  9G17G24G07G08G26G13G19G28G11
  14234577.19946  11140007.97744  23250423.3204                   23250424.4804
   6872284.14546  10442305.29744  22600874.8364                   22600876.6214
 -12959839.08247 -10054167.70746  20430366.3134                   20430364.2624
 -22552823.87547 -17540520.87945  20609579.6414                   20609578.5984
  20475748.56646  16411918.08642  23564688.9144                   23564688.9774
  17172722.76246  13404071.35543  23718085.5864                   23718088.4884
   9956355.17646   7786240.00043  23661999.1484                   23661996.3444
  -9661321.87947  -7222144.82445  22301464.5944                   22301462.7974
 -13081049.70347  -8063257.28945  21686056.5314                   21686055.3834
 11  8 16 18 47 30.0000000  0  9G17G24G07G08G26G13G19G28G11
  14045653.35246  10992794.71944  23214472.1174                   23214472.9774
   6722968.16046  10325955.22344  22572461.7734                   22572462.8094
 -13048324.00047 -10123117.00046  20413528.8054                   20413526.2344
 -22697775.12147 -17653469.91045  20581996.5634                   20581995.2274
  20312709.83246  16284874.90642  23533664.4304                   23533663.9614
  17185546.06346  13414063.25043  23720526.5314                   23720529.1684
   9959559.08646   7788736.46943  23662608.5004                   23662605.9804
  -9785607.39547  -7318990.66445  22277813.8054                   22277812.1254
 -13191444.15247  -8149278.94145  21665049.8054                   21665047.9964
 11  8 16 18 48  0.0000000  0  9G17G24G07G08G26G13G19G28G11
  13856971.32047  10845769.93444  23178567.0004                   23178568.3444
   6574008.84846  10209883.08644  22544115.0004                   22544116.2344
 -13136362.65647 -10191718.56646  20396775.8284                   20396773.1294
 -22842397.54747 -17766162.71145  20554475.6564                   20554474.2734
  20150170.44146  16158220.83243  23502733.8594                   23502733.7624
  17198405.52046  13424083.35543  23722973.1094                   23722976.6454
   9962907.43046   7791345.50843  23663245.5474                   23663242.2074
  -9909835.60247  -7415791.84045  22254174.4454                   22254172.1724
 -13301292.42247  -8234874.98045  21644146.1024                   21644144.3404
 11  8 16 18 48 30.0000000  0  9G17G24G07G08G26G13G19G28G11
  13668529.00846  10698931.89544  23142707.1254                   23142709.2234
   6425405.43046  10094088.26643  22515836.7424                   22515838.3094
 -13223957.64547 -10259974.41446  20380106.7584                   20380104.2814
 -22986692.32847 -17878600.21545  20527017.5394                   20527016.1994
  19988129.10946  16031954.91443  23471897.0004                   23471897.9844
  17211294.62546  13434126.55543  23725426.7194                   23725430.0314
   9966394.02346   7794062.23843  23663908.9774                   23663905.6764
 -10034011.04747  -7512551.90645  22230544.2274                   22230541.9024
 -13410597.16847  -8320047.51245  21623346.2424                   21623344.4924
 11  8 16 18 49  0.0000000  0  9G17G24G07G08G26G13G19G28G11
  13480324.04346  10552278.81644  23106892.6334                   23106895.1804
   6277156.57047   9978569.72744  22487626.5164                   22487627.0204
 -13311112.33247 -10327887.17246  20363521.7974                   20363519.2854
 -23130661.18047 -17990783.73845  20499621.0084                   20499619.5744
  19826583.68846  15906075.43042  23441157.0394                   23441157.2464
  17224206.09446  13444187.13743  23727884.1174                   23727887.5904
   9970012.10546   7796881.46543  23664597.6254                   23664594.7584
 -10158138.55947  -7609274.63345  22206923.7664                   22206921.7544
 -13519361.44947  -8404798.87945  21602648.5704                   21602647.4144
 11  8 16 18 49 30.0000000  0  9G17G24G07G08G26G13G19G28G11
  13292359.90647  10405813.37144  23071125.0004                   23071126.8794
   6129266.35547   9863330.67244  22459483.8524                   22459484.7814
 -13397824.14847 -10395454.83646  20347020.8914                   20347018.2154
 -23274299.97747 -18102710.08645  20472287.7344                   20472285.7194
  19665537.87146  15780585.22743  23410510.4924                   23410511.1374
  17237138.80146  13454264.26643  23730345.1564                   23730348.6994
   9973760.47346   7799802.18443  23665311.1254                   23665308.4384
 -10282217.11747  -7705959.21545  22183312.0394                   22183310.7234
 -13627582.71147  -8489127.14845  21582055.2194                   21582053.4924
 11  8 16 18 50  0.0000000  0  9G17G24G07G08G26G13G19G28G11
  13104637.73047  10259536.49244  23035403.0554                   23035405.1954
   5981737.27347   9748372.99244  22431409.8444                   22431410.7854
 -13484092.23447 -10462676.75446  20330605.0164                   20330602.4184
 -23417606.33247 -18214377.37945  20445017.2664                   20445015.8324
  19504993.50446  15655485.75043  23379959.9384                   23379959.7114
  17250089.48046  13464355.41043  23732809.3134                   23732813.5274
   9977636.51646   7802822.42243  23666049.4534                   23666046.7664
 -10406248.15647  -7802606.75045  22159709.7894                   22159707.7464
 -13735260.29347  -8573031.75845  21561564.7274                   21561563.3594
 11  8 16 18 50 30.0000000  0  9G17G24G07G08G26G13G19G28G11
  12917156.20347  10113447.10244  22999726.1174                   22999727.4454
   5834569.28547   9633696.69944  22403404.8204                   22403405.5984
 -13569918.65247 -10529554.50046  20314272.5704                   20314269.9224
 -23560580.91447 -18325786.14145  20417809.8204                   20417808.7894
  19344949.57046  15530776.16043  23349505.4534                   23349504.7344
  17263052.37146  13474456.03942  23735276.8054                   23735279.7034
   9981634.66846   7805937.76643  23666810.0164                   23666807.5704
 -10530234.58647  -7899219.53545  22136116.3594                   22136114.1054
 -13842395.60947  -8656513.83245  21541177.7974                   21541175.8754
 11  8 16 18 51  0.0000000  0  9G17G24G07G08G26G13G19G28G11
  12729919.59447   9967548.57044  22964095.9224                   22964096.9614
   5687767.90646   9519306.07044  22375468.7734                   22375470.0784
 -13655299.87547 -10596085.34046  20298025.0314                   20298022.2384
 -23703218.45747 -18436932.28545  20390667.1954                   20390665.0904
  19185410.68446  15406460.13743  23319146.6094                   23319145.8444
  17276027.03146  13484565.83242  23737745.9534                   23737749.2774
   9985755.03946   7809148.38743  23667594.2114                   23667591.7274
 -10654174.53547  -7995796.09844  22112531.0084                   22112529.1684
 -13948985.16447  -8739570.62545  21520894.2194                   21520892.7344
 11  8 16 18 51 30.0000000  0  9G17G24G07G08G26G13G19G28G11
  12542927.58247   9821840.62144  22928511.8834                   22928513.2074
   5541333.38746   9405201.29344  22347603.5634                   22347604.9264
 -13740236.84847 -10662270.01646  20281862.3834                   20281859.8014
 -23845518.39147 -18547815.34045  20363588.3204                   20363586.3244
  19026376.97346  15282537.73443  23288883.0944                   23288881.9884
  17289008.63746  13494681.07042  23740216.5864                   23740219.9344
   9989992.86346   7812450.52343  23668400.2344                   23668397.5944
 -10778071.01647  -8092338.79745  22088954.2194                   22088952.2424
 -14055030.29347  -8822203.19145  21500714.4694                   21500712.9734
 11  8 16 18 52  0.0000000  0  9G17G24G07G08G26G13G19G28G11
  12356181.95747   9676324.66044  22892975.7664                   22892977.0824
   5395268.84046   9291384.81344  22319807.6174                   22319808.8444
 -13824728.65647 -10728107.81646  20265783.4924                   20265781.4734
 -23987478.23847 -18658433.41445  20336574.3364                   20336572.6134
  18867850.37946  15159010.50443  23258715.7034                   23258716.4454
  17301994.45746  13504799.56643  23742687.6564                   23742691.7774
   9994345.44946   7815842.07843  23669229.1954                   23669226.4024
 -10901924.42247  -8188847.92244  22065386.1254                   22065383.4184
 -14160529.89547  -8904410.67245  21480639.0314                   21480637.2664
 11  8 16 18 52 30.0000000  0  9G17G24G07G08G26G13G19G28G11
  12169690.31647   9531006.62144  22857487.3754                   22857489.1024
   5249582.68846   9177863.16444  22292085.1024                   22292086.3054
 -13908768.13747 -10793593.16446  20249791.5314                   20249789.5474
 -24129089.66847 -18768779.98045  20309626.4144                   20309624.7734
  18709839.05546  15035884.80943  23228647.3594                   23228648.2424
  17314987.62146  13514923.80542  23745159.8594                   23745164.6994
   9998816.58246   7819326.01243  23670079.7734                   23670076.5554
 -11025729.55147  -8285319.42644  22041826.3284                   22041824.2194
 -14265476.92247  -8986187.56645  21460668.0944                   21460666.1804
 11  8 16 18 53  0.0000000  0  9G17G24G07G08G26G13G19G28G11
  11983453.24647   9385886.93844  22822048.0234                   22822049.3754
   5104276.68846   9064637.73444  22264434.2814                   22264435.4184
 -13992355.40648 -10858726.14146  20233885.6024                   20233883.2814
 -24270350.89147 -18878853.66445  20282745.9454                   20282743.9494
  18552344.01646  14913161.46944  23198677.2974                   23198678.2344
  17327984.26246  13525050.74642  23747633.4614                   23747638.5944
  10003402.59446   7822899.44543  23670951.7274                   23670949.7384
 -11149487.78947  -8381754.39144  22018276.1804                   22018274.0664
 -14369871.15247  -9067533.71145  21440802.5084                   21440800.3554
 11  8 16 18 53 30.0000000  0  9G17G24G07G08G26G13G19G28G11
  11797476.14547   9240969.82844  22786657.3834                   22786659.1414
   4959357.22747   8951713.51644  22236856.3054                   22236858.3714
 -14075486.30547 -10923503.48846  20218066.0474                   20218063.9884
 -24411255.80947 -18988649.70345  20255931.7894                   20255930.6054
  18395370.57847  14790844.51644  23168807.1954                   23168806.9534
  17340985.16846  13535180.98843  23750107.4924                   23750113.3984
  10008104.54746   7826563.24642  23671846.7274                   23671844.5314
 -11273196.20747  -8478150.56644  21994735.0394                   21994733.2854
 -14473708.41847  -9148445.85545  21421042.5474                   21421040.8244
 11  8 16 18 54  0.0000000  0  9G17G24G07G08G26G13G19G28G11
  13187189.03147  10323863.09444  23051111.0554                   23051111.8914
   6390254.12147  10066698.14544  22509147.6174                   22509149.4264
 -12582734.58647  -9760320.36346  20502127.1954                   20502124.9574
 -22976375.25047 -17870560.97345  20528980.8364                   20528979.3404
  19814348.48046  15896541.59044  23438829.7424                   23438828.7664
  18929409.40646  14772913.82842  24052374.8364                   24052380.2814
  11588342.06646   9057917.07843  23972556.7274                   23972553.4304
  -9821428.91847  -7346903.30544  22270997.1254                   22270995.3714
 -13001562.28547  -8001318.99245  21701182.8524                   21701180.5704
 11  8 16 18 54 30.0000000  0  9G17G24G07G08G26G13G19G28G11
  13001740.37147  10179357.77344  23015820.8984                   23015822.4384
   6246119.73447   9954385.65644  22481719.7894                   22481721.1024
 -12664945.39547  -9824380.75446  20486483.2734                   20486480.9734
 -23116556.55947 -17979793.16445  20502305.2424                   20502303.5234
  19658428.44646  15775045.46843  23409157.8754                   23409157.6174
  18942414.25446  14783047.15242  24054850.2424                   24054855.0704
  11593272.53946   9061758.88743  23973495.2814                   23973491.0744
  -9945035.61747  -7443220.22344  22247475.4694                   22247473.7464
 -13104279.09047  -8081358.05145  21681637.0234                   21681634.8674
 11  8 16 18 55  0.0000000  0  9G17G24G07G08G26G13G19G28G11
  12816562.58247  10035063.50844  22980582.4224                   22980583.6524
   6102385.71547   9842385.17644  22454367.9384                   22454369.1804
 -12746690.75847  -9888078.47346  20470927.3204                   20470925.4344
 -23256368.23047 -18088737.33645  20475700.2424                   20475698.1414
  19503041.98046  15653965.07043  23379589.7424                   23379588.8594
  18955420.89546  14793181.86742  24057325.6094                   24057330.4924
  11598317.50046   9065689.97742  23974454.8594                   23974451.5394
 -10068588.29347  -7539495.02744  22223964.0704                   22223961.9184
 -13206430.41847  -8160956.46545  21662197.7194                   21662196.1564
 11  8 16 18 55 30.0000000  0  9G17G24G07G08G26G13G19G28G11
  12631660.61347   9890984.15244  22945396.6484                   22945398.1644
   5959057.89547   9730701.19544  22427093.6484                   22427094.1254
 -12827966.82047  -9951410.50046  20455461.3284                   20455459.0744
 -23395804.67647 -18197389.12945  20449166.6254                   20449164.5004
  19348194.10546  15533304.41443  23350122.4614                   23350121.6804
  18968429.65646  14803318.24642  24059801.0084                   24059806.4144
  11603477.70746   9069710.85943  23975437.0234                   23975434.1054
 -10192084.22347  -7635725.62145  22200463.7974                   22200461.7624
 -13308012.04347  -8240110.95344  21642867.8754                   21642865.6174
 11  8 16 18 56  0.0000000  0  9G17G24G07G08G26G13G19G28G11
  12447034.69947   9747119.93844  22910263.5474                   22910265.5554
   5816138.30147   9619335.30144  22399896.4304                   22399897.7274
 -12908773.76647 -10014376.96546  20440084.3364                   20440082.1914
 -23534864.01647 -18305747.06645  20422703.5784                   20422702.3914
  19193886.21946  15413064.52043  23320758.6254                   23320758.1484
  18981437.33246  14813453.75043  24062277.0864                   24062281.9694
  11608749.79346   9073818.87543  23976440.1724                   23976437.8594
 -10315524.59047  -7731912.91445  22176974.3984                   22176971.5784
 -13409024.21547  -8318821.72745  21623645.8674                   21623643.2894
 11  8 16 18 56 30.0000000  0  9G17G24G07G08G26G13G19G28G11
  12262685.50047   9603471.32844  22875183.0234                   22875184.1764
   5673628.21547   9508288.52044  22372777.7194                   22372779.0394
 -12989111.44147 -10076977.77346  20424796.5634                   20424794.8204
 -23673544.78547 -18413810.00845  20396314.1174                   20396312.1334
  19040118.36346  15293245.43443  23291496.6334                   23291497.1484
  18994439.41846  14823584.87142  24064751.2734                   24064756.7464
  11614130.34046   9078011.47743  23977464.0004                   23977461.6134
 -10438911.47347  -7828058.52745  22153494.4614                   22153492.2384
 -13509467.12947  -8397088.92245  21604532.2274                   21604529.8914
 11  8 16 18 57  0.0000000  0  9G17G24G07G08G26G13G19G28G11
  12078614.10247   9460039.19144  22840155.4064                   22840156.5514
   5531529.25446   9397562.06644  22345737.5084                   22345738.8014
 -13068980.37947 -10139213.31246  20409598.0474                   20409595.8634
 -23811845.48447 -18521576.80545  20369996.8914                   20369994.7194
  18886891.80546  15173848.14843  23262338.6644                   23262338.5594
  19007432.44946  14833709.02342  24067224.3754                   24067228.5474
  11619615.79746   9082285.82043  23978508.3204                   23978505.4384
 -10562246.48847  -7924163.72345  22130024.5944                   22130022.6094
 -13609341.22347  -8474912.87545  21585526.3754                   21585524.8204
 11  8 16 18 57 30.0000000  0  9G17G24G07G08G26G13G19G28G11
  11894817.57047   9316821.22744  22805179.9614                   22805181.6214
   5389840.12946   9287154.98844  22318774.5394                   22318776.0744
 -13148383.55147 -10201085.93046  20394487.7584                   20394485.8164
 -23949767.67647 -18629048.64144  20343750.4454                   20343748.9614
  18734204.07846  15054870.68443  23233283.5554                   23233282.8554
  19020409.50846  14843820.66442  24069693.5084                   24069698.8054
  11625199.63746   9086636.82443  23979570.5164                   23979568.1764
 -10685533.96547  -8020231.88745  22106564.0004                   22106561.6844
 -13708649.48047  -8552295.91445  21566628.7194                   21566627.4414
 11  8 16 18 58  0.0000000  0  9G17G24G07G08G26G13G19G28G11
  11711296.14147   9173817.64845  22770256.6094                   22770258.5664
   5248562.08247   9177068.20744  22291890.0864                   22291891.3794
 -13227321.50847 -10262596.04346  20379466.5554                   20379464.5084
 -24087310.04347 -18736224.50845  20317577.7114                   20317575.2424
  18582056.26246  14936313.95743  23204331.1724                   23204331.3404
  19033367.09846  14853917.15642  24072159.7194                   24072165.5354
  11630878.32446   9091061.70342  23980650.5314                   23980649.0514
 -10808775.34447  -8116264.10945  22083111.8134                   22083109.3134
 -13807392.74647  -8629238.71945  21547838.6954                   21547836.5744
 11  8 16 18 58 30.0000000  0  9G17G24G07G08G26G13G19G28G11
  11528049.68447   9031028.32044  22735385.9454                   22735387.7584
   5107695.75047   9067302.27344  22265083.5864                   22265085.5704
 -13305795.48447 -10323744.62146  20364534.0474                   20364531.4024
 -24224472.20747 -18843104.14145  20291475.7584                   20291474.3714
  18430447.87546  14818177.57443  23175480.8054                   23175481.1134
  19046300.04746  14863994.49242  24074620.4844                   24074627.0204
  11636647.39546   9095557.01643  23981749.1334                   23981746.6094
 -10931973.29347  -8212262.49245  22059667.8674                   22059665.7234
 -13905571.90247  -8705741.94144  21529155.5084                   21529153.4264
 11  8 16 18 59  0.0000000  0  9G17G24G07G08G26G13G19G28G11
  11345075.28547   8888450.99244  22700566.8054                   22700568.6724
   4967239.46147   8957855.84844  22238356.6174                   22238357.7814
 -13383809.04747 -10384534.42646  20349687.9224                   20349686.1604
 -24361255.68047 -18949688.66845  20265446.9924                   20265445.6174
  18279376.25046  14700459.43043  23146732.7584                   23146733.9384
  19059201.53546  14874047.18442  24077075.7344                   24077082.0314
  11642500.12946   9100117.53143  23982863.2504                   23982860.0204
 -11055132.84447  -8308230.95745  22036230.8984                   22036228.8554
 -14003190.89847  -8781808.69145  21510579.4844                   21510577.5904
 11  8 16 18 59 30.0000000  0  9G17G24G07G08G26G13G19G28G11
  11162375.11747   8746087.32044  22665800.6094                   22665801.1954
   4827196.03547   8848731.13744  22211706.9614                   22211707.9024
 -13461361.23047 -10444964.72346  20334930.3134                   20334928.3834
 -24497658.25847 -19055976.40244  20239489.7814                   20239489.2704
  18128843.36346  14583161.07443  23118087.9224                   23118087.7074
  19072068.80546  14884073.41042  24079524.3444                   24079531.3674
  11648434.39546   9104741.53143  23983991.8054                   23983989.7664
 -11178254.30147  -8404169.74245  22012801.8984                   22012799.6684
 -14100248.96547  -8857438.34844  21492109.6724                   21492107.7384
 11  8 16 19  0  0.0000000  0  9G17G24G07G08G26G13G19G28G11
  10979941.31647   8603931.21144  22631084.1954                   22631084.8244
   4687558.91047   8739923.05144  22185135.3594                   22185135.3914
 -13538459.96947 -10505041.68746  20320259.1954                   20320257.2194
 -24633686.01647 -19161972.06244  20213605.6884                   20213604.0514
  17978842.05946  14466276.94143  23089542.7664                   23089542.8874
  19084890.42246  14894063.86342  24081964.7734                   24081971.2974
  11654438.95746   9109420.34043  23985134.6174                   23985132.7034
 -11301347.02347  -8500086.12545  21989378.6254                   21989376.1994
 -14196754.30947  -8932637.31644  21473744.9534                   21473742.8484
 11  8 16 19  0 30.0000000  0  9G17G24G07G08G26G13G19G28G11
  10797774.60547   8461983.24244  22596418.1644                   22596419.8954
   4548329.83247   8631432.91044  22158640.2664                   22158641.5634
 -13615105.60247 -10564765.58246  20305674.1334                   20305671.9344
 -24769337.25447 -19267674.33645  20187791.6174                   20187790.0824
  17829373.34046  14349807.78543  23061100.2034                   23061100.0944
  19097662.95346  14904016.21542  24084396.1724                   24084402.3484
  11660510.61346   9114151.41042  23986290.7504                   23986288.6764
 -11424412.07847  -8595980.96145  21965959.6484                   21965957.3594
 -14292707.21147  -9007405.81645  21455486.3364                   21455484.3244
 11  8 16 19  1  0.0000000  0  9G17G24G07G08G26G13G19G28G11
  10615875.77747   8320244.03545  22561804.7894                   22561805.6134
   4409510.30947   8523261.90244  22132223.8444                   22132225.0984
 -13691298.35947 -10624136.59046  20291175.1094                   20291172.4064
 -24904610.75047 -19373082.25845  20162050.3364                   20162048.0314
  17680438.00446  14233754.25043  23032758.3674                   23032759.0164
  19110382.38345  14913927.14142  24086816.8984                   24086823.1604
  11666646.04746   9118932.14842  23987458.1414                   23987456.3834
 -11547450.87947  -8691855.32045  21942546.5234                   21942543.8404
 -14388108.13747  -9081744.21545  21437332.2504                   21437329.9454
 11  8 16 19  1 30.0000000  0  9G17G24G07G08G26G13G19G28G11
  10434247.33247   8178715.47344  22527241.7894                   22527242.5004
   4271103.93447   8415412.83244  22105885.8054                   22105887.2034
 -13767036.70347 -10683153.51246  20276762.9694                   20276760.1334
 -25039502.88347 -19478193.01245  20136380.7584                   20136379.3054
  17532038.55146  14118118.28543  23004519.2344                   23004519.2974
  19123047.23445  14923795.62142  24089226.5704                   24089234.0554
  11672843.85546   9123761.57042  23988636.4454                   23988635.6454
 -11670463.05947  -8787708.95345  21919137.6254                   21919135.3714
 -14482955.51247  -9155651.26245  21419283.1724                   21419281.3204
 11  8 16 19  2  0.0000000  0  9G17G24G07G08G26G13G19G28G11
  11828312.28547   9264999.96544  22792524.3524                   22792524.3754
   5708533.23447   9535487.66444  22379419.6094                   22379420.9344
 -12266901.64147  -9514217.14146  20562228.6414                   20562226.2194
 -23598591.23047 -18355404.72745  20410577.3674                   20410575.7734
  18959597.19146  15230501.62143  23276174.0864                   23276175.4414
  20711070.07445  16161215.55142  24391416.4924                   24391425.6644
  13254517.04345  10356234.11742  24289618.9454                   24289618.8874
 -10218029.38747  -7655942.44145  22195526.5004                   22195524.3634
 -13001830.19947  -8001527.63745  21701131.9534                   21701129.9964
 11  8 16 19  2 30.0000000  0  9G17G24G07G08G26G13G19G28G11
  11647220.14147   9123889.32444  22758062.0234                   22758063.8714
   5570951.60546   9428281.25844  22353239.0004                   22353239.6844
 -12341737.57848  -9572530.88746  20547988.1254                   20547985.9384
 -23732722.05547 -18459922.27345  20385052.8754
  20385051.8404   18812265.60246  15115697.79343                  23248138.8054
  23248138.9964                   20723609.020 5                  24393803.273
  13260823.72346  10361148.30542  24290819.5394                   24290818.7274
 -10340998.75047  -7751762.71145  22172126.4144                   22172124.2114
 -13095577.65247  -8074577.60945  21683291.9924                   21683290.5164
 11  8 16 19  3  0.0000000  0  9G17G24G07G08G26G13G19G28G11
  11466398.52747   8982989.44544  22723654.1954                   22723654.1484
   5433786.16047   9321399.12544  22327136.8674                   22327137.9414
 -12416121.49647  -9630492.41046  20533833.0004                   20533830.6414
 -23866468.34847 -18564140.17245  20359601.7584                   20359600.1764
  18665470.57446  15001312.05543  23220204.1174                   23220205.1174
                                  20736081.230 6                  24396177.648
  13267181.66446  10366102.51642  24292030.3834                   24292028.1334
 -10463946.99647  -7847566.53545  22148730.0474                   22148727.5394
 -13188774.36347  -8147198.42645  21665557.8444                   21665555.8754
 11  8 16 19  3 30.0000000  0  9G17G24G07G08G26G13G19G28G11
  11285851.78547   8842303.77744  22689296.1024                   22689297.0554
   5297042.02047   9214845.30144  22301115.8134                   22301116.1374
 -12490049.72747  -9688098.84846  20519765.1644                   20519763.1094
 -23999825.02347 -18668054.47745  20334224.9614                   20334223.0354
  18519216.07446  14887347.52343  23192372.3524                   23192373.9344
                                  20748486.559 6                  24398539.125
  13273590.97346  10371096.73042  24293249.4304                   24293247.6644
 -10586871.68047  -7943351.98845  22125338.6884                   22125336.5514
 -13281417.02747  -8219387.50045  21647927.8444                   21647925.8484
 11  8 16 19  4  0.0000000  0  9G17G24G07G08G26G13G19G28G11
  11105583.61747   8701835.18444  22654992.4064                   22654993.4774
   5160723.82847   9108623.36744  22275175.4384                   22275176.0984
 -12563519.51247  -9745348.06646  20505784.2194                   20505782.2194
 -24132787.56647 -18771661.66445  20308923.1174                   20308921.0084
  18373506.23446  14773807.43043  23164645.0474                   23164645.4804
  20760824.79346  16173399.19152  24400887.4614                   24400891.5944
  13280052.12946  10376131.33242  24294479.1174                   24294477.7504
 -10709771.23047  -8039117.86745  22101951.0004                   22101949.2704
 -13373502.94947  -8291142.77745  21630404.6644                   21630402.7504
 11  8 16 19  4 30.0000000  0  9G17G24G07G08G26G13G19G28G11
  10925599.21947   8561587.70745  22620742.5164                   22620743.4024
   5024838.14547   9002738.46544  22249317.1724                   22249317.9104
 -12636526.73047  -9802236.84046  20491891.4064                   20491889.3014
 -24265349.41047 -18874956.60945  20283697.1414                   20283695.6604
  18228346.36346  14660695.85243  23137021.6804                   23137022.2194
  20773096.90246  16182961.52342  24403222.7194                   24403227.9734
  13286566.44546  10381207.33243  24295718.8444                   24295716.9534
 -10832642.17647  -8134861.44545  22078569.9924                   22078567.5044
 -13465028.04347  -8362461.03145  21612988.1174                   21612986.1954
 11  8 16 19  5  0.0000000  0  9G17G24G07G08G26G13G19G28G11
  10745902.29747   8421564.23444  22586547.0394                   22586547.7274
   4889389.31647   8897193.98044  22223542.1094                   22223542.8634
 -12709068.35947  -9858762.81646  20478087.0704                   20478085.1564
 -24397505.95347 -18977935.75045  20258547.9924                   20258546.7664
  18083740.27746  14548015.78143  23109505.0314                   23109504.5984
  20785302.86346  16192472.32442  24405544.8524                   24405551.7774
  13293133.71946  10386324.59843  24296968.9534                   24296967.5824
 -10955482.66847  -8230581.31645  22055194.1484                   22055191.8554
 -13555989.87147  -8433340.39545  21595679.1024                   21595676.6054
 11  8 16 19  5 30.0000000  0  9G17G24G07G08G26G13G19G28G11
  10566498.39847   8281769.11744  22552407.9694                   22552408.5984
   4754383.52347   8791994.71144  22197850.8754                   22197852.0234
 -12781139.59847  -9914922.25046  20464372.7814                   20464371.0664
 -24529250.39547 -19080593.76645  20233478.3834                   20233476.9804
  17939693.28147  14435771.35243  23082094.0234                   23082092.8754
  20797443.71546  16201932.36342  24407855.1564                   24407862.6024
  13299755.78146  10391484.54742  24298227.9924                   24298227.3484
 -11078288.84447  -8326274.43045  22031824.9384                   22031822.8134
 -13646383.88347  -8503777.28145  21578477.0704                   21578475.9064
 11  8 16 19  6  0.0000000  0  9G17G24G07G08G26G13G19G28G11
  10387393.90647   8142207.28944  22518325.1484                   22518326.0274
   4619828.47747   8687146.67244  22172245.7664                   22172246.9144
 -12852735.21947  -9970711.07846  20450748.3914                   20450746.5634
 -24660575.83247 -19182925.28945  20208488.1094                   20208486.4804
  17796211.93047  14323967.69143  23054790.3594                   23054789.0354
  20809522.19546  16211343.81342  24410153.7814                   24410161.2544
  13306435.42646  10396689.42242  24299499.3364                   24299498.7814
 -11201056.28947  -8421937.37545  22008462.6024                   22008460.4304
 -13736204.76647  -8573767.59445  21561385.7034                   21561383.4734
 11  8 16 19  6 30.0000000  0  9G17G24G07G08G26G13G19G28G11
  10208592.32847   8002881.49245  22484300.3524                   22484301.0234
   4485728.44947   8582653.18444  22146727.0864                   22146728.7384
 -12923852.32447 -10026127.02746  20437214.6804                   20437213.5124
 -24791477.61747 -19284926.68045  20183578.3134                   20183577.4024
  17653299.94147  14212607.72343  23027594.6884                   23027594.0164
  20821537.49246  16220706.00042  24412441.7974                   24412447.9264
  13313172.54745  10401939.04342  24300780.7894                   24300781.0864
 -11323783.42647  -8517568.91045  21985108.2274                   21985105.9654
 -13825449.95747  -8643309.29345  21544402.2274                   21544400.5824
 11  8 16 19  7  0.0000000  0  9G17G24G07G08G26G13G19G28G11
  10030098.22747   7863795.29745  22450333.6484                   22450334.8204
   4352088.93847   8478518.55944  22121296.7584                   22121297.6764
 -12994487.78147 -10081167.66446  20423774.0394                   20423771.9104
 -24921950.15647 -19386593.60245  20158750.1804                   20158748.9414
  17510961.58246  14101694.66843  23000509.0554                   23000507.8094
  20833490.30946  16230019.60942  24414716.8674                   24414722.1994
  13319967.91045  10407234.11742  24302074.2344                   24302074.6094
 -11446467.29747  -8613166.74245  21961762.7734                   21961760.6844
 -13914116.21947  -8712399.89545  21527529.4844                   21527528.0704
 11  8 16 19  7 30.0000000  0  9G17G24G07G08G26G13G19G28G11
   9851914.98847   7724951.32445  22416426.6804                   22416427.3984
   4218914.43846   8374746.26244  22095954.3754                   22095955.1914
 -13064638.73047 -10135830.77746  20410424.4534                   20410422.9224
 -25051988.84047 -19487922.45345  20134004.9454                   20134003.4384
  17369200.46946  13991231.49643  22973532.5634                   22973531.9534
  20845380.359 5                  24416979.289
  13326821.56345  10412574.57042  24303378.4534                   24303379.2034
 -11569106.14147  -8708729.47345  21938424.8674                   21938423.0394
 -14002201.26647  -8781037.60245  21510767.8754                   21510765.9264
 11  8 16 19  8  0.0000000  0  9G17G24G07G08G26G13G19G28G11
   9674050.37547   7586355.63345  22382580.0704                   22382580.9694
   4086213.23447   8271342.76644  22070702.6254                   22070702.6054
 -13134298.35947 -10190111.04746  20397169.2974                   20397166.8984
 -25181585.43047 -19588906.82045  20109343.3134                   20109341.8204
  17228024.21546  13881224.02043  22946667.5394                   22946667.6174
  20857211.020 5                  24419230.742
  13333737.61345  10417963.55142  24304694.8984                   24304695.6994
 -11691693.90247  -8804252.41445  21915097.4614                   21915095.1374
 -14089698.73447  -8849217.44545  21494117.6564                   21494115.3444
 11  8 16 19  8 30.0000000  0  9G17G24G07G08G26G13G19G28G11
   9496507.87947   7448010.93845  22348795.0394                   22348795.6484
   3953989.64847   8168311.43844  22045541.0084                   22045541.8834
 -13203464.28547 -10244006.60246  20384007.1094                   20384005.1024
 -25310735.16447 -19689542.98045  20084766.9774                   20084765.3404
  17087436.30946  13771675.05943  22919914.1484                   22919914.5204
  20868981.875 5                  24421471.055
  13340715.61745  10423400.93042  24306023.0944                   24306023.3714
 -11814229.09047  -8899734.37945  21891779.8054                   21891777.4104
 -14176606.04747  -8916937.44145  21477579.7344                   21477577.9654
 11  8 16 19  9  0.0000000  0  9G17G24G07G08G26G13G19G28G11
   9319289.93447   7309919.14845  22315071.3524                   22315071.7974
   3822247.21947   8065655.05944  22020471.2114                   22020471.8634
 -13272135.23447 -10297516.47346  20370939.6484                   20370937.6214
 -25439434.63347 -19789828.28545  20060276.2974                   20060274.6884
  16947438.89146  13662586.17243  22893273.0864                   22893274.1334
  20880691.461 5                  24423699.047
  13347754.582 5                  24307362.242
 -11936711.02747  -8995174.85545  21868472.4924                   21868470.0554
 -14262922.19147  -8984196.78544  21461154.2114                   21461152.4144
 11  8 16 19  9 30.0000000  0  9G17G24G07G08G26G13G19G28G11
   9142404.52347   7172086.45345  22281411.2664                   22281411.6994
   3690994.72346   7963380.43044  21995494.5634                   21995495.5164
 -13340303.60547 -10350634.74246  20357967.7664                   20357965.6954
 -25567675.03147 -19889755.87945  20035873.0634                   20035871.7544
  16808039.96946  13553963.65643  22866746.6414                   22866747.6414
  20892343.652 6                  24425917.055
  13354858.992 5                  24308714.359
 -12059133.44547  -9090568.94945  21845176.2274                   21845174.0594
 -14348640.32447  -9050990.13344  21444842.2664                   21444840.2464
 11  8 16 19 10  0.0000000  0  9G17G24G07G08G26G13G19G28G11
  10541281.58247   8262120.62145  22547608.4534                   22547609.0944
   5135661.50047   9089094.87544  22270405.8444                   22270406.3954
 -11832544.30947  -9175757.40246  20644884.7424                   20644882.7664
 -24120026.84047 -18761718.34445  20311351.6334                   20311349.8404
  18244668.32847  14673414.33243  23140128.6414                   23140128.4344
                                  22479358.855 6                  24727916.234
  14937449.324 6                  24609871.992
 -10606069.80147  -7958311.55945  22121684.7274                   22121682.6764
 -12858334.74247  -7889713.05544  21728438.4064                   21728436.3244
